<?xml version="1.0" encoding="utf-8"?>
<gpx xmlns:xsi="http://www.w3.org/2001/XMLSchema-instance" xmlns:xsd="http://www.w3.org/2001/XMLSchema" version="1.1" creator="Shapelink.com" xmlns="http://www.topografix.com/GPX/1/1" xmlns:gpxtpx="http://www.garmin.com/xmlschemas/TrackPointExtension/v1">
  <metadata>
    <name>Cykling 34.13 km, 2013-05-05</name>
    <desc></desc>
    <author><name>Alexander Engvall</name></author> 
    <time>2013-05-05T19:09:28Z</time>
  </metadata>
  <trk>
    <name>Cykling 34.13 km, 2013-05-05</name>
    <trkseg>
      <trkpt lat="59.4581822056" lon="17.8046238574">
        <ele>0</ele>
        <time>2013-05-05T19:09:28Z</time>
      </trkpt>
      <trkpt lat="59.4573030282" lon="17.8051688486">
        <ele>2.6</ele>
        <time>2013-05-05T19:09:43Z</time>
      </trkpt>
      <trkpt lat="59.4572557542" lon="17.8052533381">
        <ele>2.6</ele>
        <time>2013-05-05T19:09:44Z</time>
      </trkpt>
      <trkpt lat="59.457166487" lon="17.8054374885">
        <ele>2.6</ele>
        <time>2013-05-05T19:09:46Z</time>
      </trkpt>
      <trkpt lat="59.4570755434" lon="17.8056013546">
        <ele>2.6</ele>
        <time>2013-05-05T19:09:48Z</time>
      </trkpt>
      <trkpt lat="59.4570137688" lon="17.8056068867">
        <ele>2.6</ele>
        <time>2013-05-05T19:09:49Z</time>
      </trkpt>
      <trkpt lat="59.4568192249" lon="17.8054757099">
        <ele>2.6</ele>
        <time>2013-05-05T19:09:52Z</time>
      </trkpt>
      <trkpt lat="59.4562508482" lon="17.805065835">
        <ele>2.6</ele>
        <time>2013-05-05T19:10:00Z</time>
      </trkpt>
      <trkpt lat="59.4559094535" lon="17.804792166">
        <ele>2.6</ele>
        <time>2013-05-05T19:10:05Z</time>
      </trkpt>
      <trkpt lat="59.455391452" lon="17.8043829616">
        <ele>2.6</ele>
        <time>2013-05-05T19:10:12Z</time>
      </trkpt>
      <trkpt lat="59.4551357203" lon="17.8043136433">
        <ele>2.6</ele>
        <time>2013-05-05T19:10:15Z</time>
      </trkpt>
      <trkpt lat="59.4550474589" lon="17.8043228634">
        <ele>2.2</ele>
        <time>2013-05-05T19:10:16Z</time>
      </trkpt>
      <trkpt lat="59.4549579402" lon="17.8043401301">
        <ele>1.8</ele>
        <time>2013-05-05T19:10:17Z</time>
      </trkpt>
      <trkpt lat="59.4548693435" lon="17.804377681">
        <ele>1.2</ele>
        <time>2013-05-05T19:10:18Z</time>
      </trkpt>
      <trkpt lat="59.4547844348" lon="17.8044289782">
        <ele>0.8</ele>
        <time>2013-05-05T19:10:19Z</time>
      </trkpt>
      <trkpt lat="59.4546954191" lon="17.8045003082">
        <ele>0.4</ele>
        <time>2013-05-05T19:10:20Z</time>
      </trkpt>
      <trkpt lat="59.4544735502" lon="17.8047962731">
        <ele>0.4</ele>
        <time>2013-05-05T19:10:23Z</time>
      </trkpt>
      <trkpt lat="59.45419854" lon="17.8052145299">
        <ele>0</ele>
        <time>2013-05-05T19:10:27Z</time>
      </trkpt>
      <trkpt lat="59.4541248631" lon="17.805325171">
        <ele>0</ele>
        <time>2013-05-05T19:10:28Z</time>
      </trkpt>
      <trkpt lat="59.454057305" lon="17.8054348901">
        <ele>0</ele>
        <time>2013-05-05T19:10:29Z</time>
      </trkpt>
      <trkpt lat="59.4539889925" lon="17.8055462017">
        <ele>0</ele>
        <time>2013-05-05T19:10:30Z</time>
      </trkpt>
      <trkpt lat="59.4539242004" lon="17.8056571781">
        <ele>0</ele>
        <time>2013-05-05T19:10:31Z</time>
      </trkpt>
      <trkpt lat="59.4536087057" lon="17.806217089">
        <ele>0</ele>
        <time>2013-05-05T19:10:36Z</time>
      </trkpt>
      <trkpt lat="59.4532046982" lon="17.8068819413">
        <ele>0</ele>
        <time>2013-05-05T19:10:42Z</time>
      </trkpt>
      <trkpt lat="59.4528177058" lon="17.8075032915">
        <ele>0</ele>
        <time>2013-05-05T19:10:48Z</time>
      </trkpt>
      <trkpt lat="59.4523926597" lon="17.8082947105">
        <ele>0</ele>
        <time>2013-05-05T19:10:55Z</time>
      </trkpt>
      <trkpt lat="59.4520005544" lon="17.8090717127">
        <ele>0</ele>
        <time>2013-05-05T19:11:02Z</time>
      </trkpt>
      <trkpt lat="59.451567294" lon="17.8099355513">
        <ele>0</ele>
        <time>2013-05-05T19:11:09Z</time>
      </trkpt>
      <trkpt lat="59.451567294" lon="17.8099355513">
        <ele>0</ele>
        <time>2013-05-05T19:11:11Z</time>
      </trkpt>
      <trkpt lat="59.4515211935" lon="17.8100436778">
        <ele>0</ele>
        <time>2013-05-05T19:11:12Z</time>
      </trkpt>
      <trkpt lat="59.4511683155" lon="17.8108070174">
        <ele>0</ele>
        <time>2013-05-05T19:11:19Z</time>
      </trkpt>
      <trkpt lat="59.4507964106" lon="17.8117189681">
        <ele>0</ele>
        <time>2013-05-05T19:11:27Z</time>
      </trkpt>
      <trkpt lat="59.4504269365" lon="17.8126620157">
        <ele>0</ele>
        <time>2013-05-05T19:11:35Z</time>
      </trkpt>
      <trkpt lat="59.4500779142" lon="17.813563489">
        <ele>0</ele>
        <time>2013-05-05T19:11:43Z</time>
      </trkpt>
      <trkpt lat="59.4500392736" lon="17.813667257">
        <ele>0</ele>
        <time>2013-05-05T19:11:44Z</time>
      </trkpt>
      <trkpt lat="59.4499704582" lon="17.8138991003">
        <ele>0</ele>
        <time>2013-05-05T19:11:46Z</time>
      </trkpt>
      <trkpt lat="59.4499012237" lon="17.8141734399">
        <ele>0</ele>
        <time>2013-05-05T19:11:48Z</time>
      </trkpt>
      <trkpt lat="59.4496914248" lon="17.8147883361">
        <ele>0</ele>
        <time>2013-05-05T19:11:53Z</time>
      </trkpt>
      <trkpt lat="59.4496449052" lon="17.814899983">
        <ele>0</ele>
        <time>2013-05-05T19:11:54Z</time>
      </trkpt>
      <trkpt lat="59.4496023252" lon="17.8150141445">
        <ele>0</ele>
        <time>2013-05-05T19:11:55Z</time>
      </trkpt>
      <trkpt lat="59.4495604157" lon="17.8151313234">
        <ele>0.2</ele>
        <time>2013-05-05T19:11:56Z</time>
      </trkpt>
      <trkpt lat="59.4495199311" lon="17.8152476642">
        <ele>0.6</ele>
        <time>2013-05-05T19:11:57Z</time>
      </trkpt>
      <trkpt lat="59.4494484335" lon="17.8154897335">
        <ele>0.6</ele>
        <time>2013-05-05T19:11:59Z</time>
      </trkpt>
      <trkpt lat="59.4492341083" lon="17.816192472">
        <ele>0.6</ele>
        <time>2013-05-05T19:12:05Z</time>
      </trkpt>
      <trkpt lat="59.4489903627" lon="17.8172581467">
        <ele>1</ele>
        <time>2013-05-05T19:12:14Z</time>
      </trkpt>
      <trkpt lat="59.4489677315" lon="17.8173790976">
        <ele>1.4</ele>
        <time>2013-05-05T19:12:15Z</time>
      </trkpt>
      <trkpt lat="59.4489432564" lon="17.8174961927">
        <ele>1.8</ele>
        <time>2013-05-05T19:12:16Z</time>
      </trkpt>
      <trkpt lat="59.4489211282" lon="17.8176163053">
        <ele>2.4</ele>
        <time>2013-05-05T19:12:17Z</time>
      </trkpt>
      <trkpt lat="59.4488993352" lon="17.8177379267">
        <ele>2.8</ele>
        <time>2013-05-05T19:12:18Z</time>
      </trkpt>
      <trkpt lat="59.4488403266" lon="17.8180866976">
        <ele>2.8</ele>
        <time>2013-05-05T19:12:21Z</time>
      </trkpt>
      <trkpt lat="59.4487520652" lon="17.8186616121">
        <ele>3.2</ele>
        <time>2013-05-05T19:12:26Z</time>
      </trkpt>
      <trkpt lat="59.4487356367" lon="17.8187750192">
        <ele>3.6</ele>
        <time>2013-05-05T19:12:27Z</time>
      </trkpt>
      <trkpt lat="59.4487201302" lon="17.8188879234">
        <ele>4.4</ele>
        <time>2013-05-05T19:12:28Z</time>
      </trkpt>
      <trkpt lat="59.4487026958" lon="17.819002504">
        <ele>4.8</ele>
        <time>2013-05-05T19:12:29Z</time>
      </trkpt>
      <trkpt lat="59.4486305277" lon="17.8196301406">
        <ele>4.8</ele>
        <time>2013-05-05T19:12:34Z</time>
      </trkpt>
      <trkpt lat="59.4486041247" lon="17.8200014588">
        <ele>5.2</ele>
        <time>2013-05-05T19:12:37Z</time>
      </trkpt>
      <trkpt lat="59.4485971677" lon="17.8201342281">
        <ele>5.6</ele>
        <time>2013-05-05T19:12:38Z</time>
      </trkpt>
      <trkpt lat="59.4485889535" lon="17.8202602081">
        <ele>6</ele>
        <time>2013-05-05T19:12:39Z</time>
      </trkpt>
      <trkpt lat="59.4485829185" lon="17.8203865233">
        <ele>6.4</ele>
        <time>2013-05-05T19:12:40Z</time>
      </trkpt>
      <trkpt lat="59.448576213" lon="17.8205152693">
        <ele>7</ele>
        <time>2013-05-05T19:12:41Z</time>
      </trkpt>
      <trkpt lat="59.4485670767" lon="17.8206440991">
        <ele>7</ele>
        <time>2013-05-05T19:12:42Z</time>
      </trkpt>
      <trkpt lat="59.4485483851" lon="17.821436021">
        <ele>7</ele>
        <time>2013-05-05T19:12:48Z</time>
      </trkpt>
      <trkpt lat="59.4485466249" lon="17.8223845168">
        <ele>7</ele>
        <time>2013-05-05T19:12:55Z</time>
      </trkpt>
      <trkpt lat="59.448573866" lon="17.8233213618">
        <ele>7</ele>
        <time>2013-05-05T19:13:02Z</time>
      </trkpt>
      <trkpt lat="59.4485827509" lon="17.8241062429">
        <ele>7</ele>
        <time>2013-05-05T19:13:08Z</time>
      </trkpt>
      <trkpt lat="59.4485590301" lon="17.8242360785">
        <ele>7</ele>
        <time>2013-05-05T19:13:09Z</time>
      </trkpt>
      <trkpt lat="59.4484550945" lon="17.8243730387">
        <ele>7.4</ele>
        <time>2013-05-05T19:13:11Z</time>
      </trkpt>
      <trkpt lat="59.4483949125" lon="17.8244214023">
        <ele>7.8</ele>
        <time>2013-05-05T19:13:12Z</time>
      </trkpt>
      <trkpt lat="59.4483304557" lon="17.8244682571">
        <ele>8.2</ele>
        <time>2013-05-05T19:13:13Z</time>
      </trkpt>
      <trkpt lat="59.4482619755" lon="17.8245133518">
        <ele>8.8</ele>
        <time>2013-05-05T19:13:14Z</time>
      </trkpt>
      <trkpt lat="59.4481920705" lon="17.8245593684">
        <ele>9.2</ele>
        <time>2013-05-05T19:13:15Z</time>
      </trkpt>
      <trkpt lat="59.4481221654" lon="17.8246061394">
        <ele>9.2</ele>
        <time>2013-05-05T19:13:16Z</time>
      </trkpt>
      <trkpt lat="59.4476053375" lon="17.8249473665">
        <ele>8.8</ele>
        <time>2013-05-05T19:13:23Z</time>
      </trkpt>
      <trkpt lat="59.4475345104" lon="17.8249891084">
        <ele>8.4</ele>
        <time>2013-05-05T19:13:24Z</time>
      </trkpt>
      <trkpt lat="59.4474672038" lon="17.8250366338">
        <ele>8</ele>
        <time>2013-05-05T19:13:25Z</time>
      </trkpt>
      <trkpt lat="59.4474029146" lon="17.8250919543">
        <ele>7.6</ele>
        <time>2013-05-05T19:13:26Z</time>
      </trkpt>
      <trkpt lat="59.4473372843" lon="17.8251484483">
        <ele>7.2</ele>
        <time>2013-05-05T19:13:27Z</time>
      </trkpt>
      <trkpt lat="59.4472024196" lon="17.8252216223">
        <ele>7.2</ele>
        <time>2013-05-05T19:13:29Z</time>
      </trkpt>
      <trkpt lat="59.4466337915" lon="17.8254201895">
        <ele>7.2</ele>
        <time>2013-05-05T19:13:37Z</time>
      </trkpt>
      <trkpt lat="59.4460712822" lon="17.8254957943">
        <ele>7.2</ele>
        <time>2013-05-05T19:13:45Z</time>
      </trkpt>
      <trkpt lat="59.4455791808" lon="17.8254650327">
        <ele>7.2</ele>
        <time>2013-05-05T19:13:52Z</time>
      </trkpt>
      <trkpt lat="59.4452916816" lon="17.8254289905">
        <ele>7.2</ele>
        <time>2013-05-05T19:13:56Z</time>
      </trkpt>
      <trkpt lat="59.4450899293" lon="17.8253843988">
        <ele>7.6</ele>
        <time>2013-05-05T19:13:59Z</time>
      </trkpt>
      <trkpt lat="59.4450174259" lon="17.8253553136">
        <ele>8</ele>
        <time>2013-05-05T19:14:00Z</time>
      </trkpt>
      <trkpt lat="59.4449486943" lon="17.8253329339">
        <ele>8.4</ele>
        <time>2013-05-05T19:14:01Z</time>
      </trkpt>
      <trkpt lat="59.4448823096" lon="17.8253163378">
        <ele>8.8</ele>
        <time>2013-05-05T19:14:02Z</time>
      </trkpt>
      <trkpt lat="59.4448096386" lon="17.8252973947">
        <ele>9.2</ele>
        <time>2013-05-05T19:14:03Z</time>
      </trkpt>
      <trkpt lat="59.4445177808" lon="17.8252094685">
        <ele>9.2</ele>
        <time>2013-05-05T19:14:07Z</time>
      </trkpt>
      <trkpt lat="59.4441784815" lon="17.8251454308">
        <ele>9.2</ele>
        <time>2013-05-05T19:14:12Z</time>
      </trkpt>
      <trkpt lat="59.4437650024" lon="17.8251138311">
        <ele>9.2</ele>
        <time>2013-05-05T19:14:18Z</time>
      </trkpt>
      <trkpt lat="59.4432565563" lon="17.825124057">
        <ele>9.2</ele>
        <time>2013-05-05T19:14:25Z</time>
      </trkpt>
      <trkpt lat="59.442886244" lon="17.8252259809">
        <ele>9.2</ele>
        <time>2013-05-05T19:14:30Z</time>
      </trkpt>
      <trkpt lat="59.4423746966" lon="17.8253181818">
        <ele>9.2</ele>
        <time>2013-05-05T19:14:37Z</time>
      </trkpt>
      <trkpt lat="59.4418816733" lon="17.8255025836">
        <ele>9.2</ele>
        <time>2013-05-05T19:14:44Z</time>
      </trkpt>
      <trkpt lat="59.4416770711" lon="17.8256141467">
        <ele>9.2</ele>
        <time>2013-05-05T19:14:47Z</time>
      </trkpt>
      <trkpt lat="59.4413294737" lon="17.8258439784">
        <ele>9.2</ele>
        <time>2013-05-05T19:14:52Z</time>
      </trkpt>
      <trkpt lat="59.4407637793" lon="17.826191492">
        <ele>9.2</ele>
        <time>2013-05-05T19:15:00Z</time>
      </trkpt>
      <trkpt lat="59.4406927007" lon="17.8262326471">
        <ele>9.2</ele>
        <time>2013-05-05T19:15:01Z</time>
      </trkpt>
      <trkpt lat="59.4402656429" lon="17.8264639875">
        <ele>9.2</ele>
        <time>2013-05-05T19:15:07Z</time>
      </trkpt>
      <trkpt lat="59.4398887927" lon="17.8265733713">
        <ele>8.8</ele>
        <time>2013-05-05T19:15:12Z</time>
      </trkpt>
      <trkpt lat="59.4398135233" lon="17.8265846031">
        <ele>8.4</ele>
        <time>2013-05-05T19:15:13Z</time>
      </trkpt>
      <trkpt lat="59.4397379185" lon="17.8265954995">
        <ele>8</ele>
        <time>2013-05-05T19:15:14Z</time>
      </trkpt>
      <trkpt lat="59.4396612241" lon="17.8266048034">
        <ele>7.6</ele>
        <time>2013-05-05T19:15:15Z</time>
      </trkpt>
      <trkpt lat="59.4395846136" lon="17.8266088268">
        <ele>7.2</ele>
        <time>2013-05-05T19:15:16Z</time>
      </trkpt>
      <trkpt lat="59.4392008064" lon="17.8265764726">
        <ele>7.2</ele>
        <time>2013-05-05T19:15:21Z</time>
      </trkpt>
      <trkpt lat="59.4386750936" lon="17.8264231677">
        <ele>7.2</ele>
        <time>2013-05-05T19:15:28Z</time>
      </trkpt>
      <trkpt lat="59.4384782028" lon="17.8266087429">
        <ele>7.2</ele>
        <time>2013-05-05T19:15:31Z</time>
      </trkpt>
      <trkpt lat="59.4384303421" lon="17.8267248322">
        <ele>7.2</ele>
        <time>2013-05-05T19:15:32Z</time>
      </trkpt>
      <trkpt lat="59.4384128239" lon="17.8268648938">
        <ele>7.2</ele>
        <time>2013-05-05T19:15:33Z</time>
      </trkpt>
      <trkpt lat="59.4383741834" lon="17.8273563246">
        <ele>7.2</ele>
        <time>2013-05-05T19:15:37Z</time>
      </trkpt>
      <trkpt lat="59.4382879336" lon="17.8279958636">
        <ele>7.2</ele>
        <time>2013-05-05T19:15:42Z</time>
      </trkpt>
      <trkpt lat="59.4382440125" lon="17.8280704625">
        <ele>7.2</ele>
        <time>2013-05-05T19:15:43Z</time>
      </trkpt>
      <trkpt lat="59.4381246542" lon="17.8280717198">
        <ele>7.2</ele>
        <time>2013-05-05T19:15:45Z</time>
      </trkpt>
      <trkpt lat="59.4379150229" lon="17.827932664">
        <ele>7.2</ele>
        <time>2013-05-05T19:15:48Z</time>
      </trkpt>
      <trkpt lat="59.4378364845" lon="17.827887318">
        <ele>7.2</ele>
        <time>2013-05-05T19:15:49Z</time>
      </trkpt>
      <trkpt lat="59.4373714567" lon="17.8276046803">
        <ele>7.2</ele>
        <time>2013-05-05T19:15:55Z</time>
      </trkpt>
      <trkpt lat="59.4369269645" lon="17.8273969768">
        <ele>7.2</ele>
        <time>2013-05-05T19:16:01Z</time>
      </trkpt>
      <trkpt lat="59.4366372022" lon="17.8275055224">
        <ele>7.2</ele>
        <time>2013-05-05T19:16:05Z</time>
      </trkpt>
      <trkpt lat="59.4365049359" lon="17.8276274791">
        <ele>7.2</ele>
        <time>2013-05-05T19:16:07Z</time>
      </trkpt>
      <trkpt lat="59.4362405707" lon="17.8278772597">
        <ele>7.2</ele>
        <time>2013-05-05T19:16:11Z</time>
      </trkpt>
      <trkpt lat="59.4361723421" lon="17.8279357653">
        <ele>7.2</ele>
        <time>2013-05-05T19:16:12Z</time>
      </trkpt>
      <trkpt lat="59.4357343878" lon="17.8283602248">
        <ele>7.2</ele>
        <time>2013-05-05T19:16:18Z</time>
      </trkpt>
      <trkpt lat="59.4355817534" lon="17.8285247615">
        <ele>7.2</ele>
        <time>2013-05-05T19:16:20Z</time>
      </trkpt>
      <trkpt lat="59.4355009519" lon="17.8285921519">
        <ele>6.8</ele>
        <time>2013-05-05T19:16:21Z</time>
      </trkpt>
      <trkpt lat="59.4354183064" lon="17.8286542618">
        <ele>6.4</ele>
        <time>2013-05-05T19:16:22Z</time>
      </trkpt>
      <trkpt lat="59.4353375887" lon="17.8286969257">
        <ele>6</ele>
        <time>2013-05-05T19:16:23Z</time>
      </trkpt>
      <trkpt lat="59.435256368" lon="17.8287306209">
        <ele>5.6</ele>
        <time>2013-05-05T19:16:24Z</time>
      </trkpt>
      <trkpt lat="59.4351740578" lon="17.8287081574">
        <ele>5.2</ele>
        <time>2013-05-05T19:16:25Z</time>
      </trkpt>
      <trkpt lat="59.4351074217" lon="17.8286288647">
        <ele>5.2</ele>
        <time>2013-05-05T19:16:26Z</time>
      </trkpt>
      <trkpt lat="59.4349682821" lon="17.828462903">
        <ele>5.2</ele>
        <time>2013-05-05T19:16:28Z</time>
      </trkpt>
      <trkpt lat="59.4348975389" lon="17.8284191495">
        <ele>5.2</ele>
        <time>2013-05-05T19:16:29Z</time>
      </trkpt>
      <trkpt lat="59.4348260413" lon="17.8283987815">
        <ele>5.2</ele>
        <time>2013-05-05T19:16:30Z</time>
      </trkpt>
      <trkpt lat="59.4345983889" lon="17.8284139527">
        <ele>4.6</ele>
        <time>2013-05-05T19:16:33Z</time>
      </trkpt>
      <trkpt lat="59.434521946" lon="17.8284313033">
        <ele>4.2</ele>
        <time>2013-05-05T19:16:34Z</time>
      </trkpt>
      <trkpt lat="59.4344461736" lon="17.8284428703">
        <ele>3.4</ele>
        <time>2013-05-05T19:16:35Z</time>
      </trkpt>
      <trkpt lat="59.4343664617" lon="17.8284561975">
        <ele>3</ele>
        <time>2013-05-05T19:16:36Z</time>
      </trkpt>
      <trkpt lat="59.4339762843" lon="17.828492072">
        <ele>2.4</ele>
        <time>2013-05-05T19:16:41Z</time>
      </trkpt>
      <trkpt lat="59.4338943093" lon="17.8285043934">
        <ele>2</ele>
        <time>2013-05-05T19:16:42Z</time>
      </trkpt>
      <trkpt lat="59.4338058802" lon="17.8285146194">
        <ele>1.6</ele>
        <time>2013-05-05T19:16:43Z</time>
      </trkpt>
      <trkpt lat="59.4337206363" lon="17.8285292039">
        <ele>1.2</ele>
        <time>2013-05-05T19:16:44Z</time>
      </trkpt>
      <trkpt lat="59.4336369011" lon="17.8285398489">
        <ele>0.8</ele>
        <time>2013-05-05T19:16:45Z</time>
      </trkpt>
      <trkpt lat="59.4333852765" lon="17.8286051439">
        <ele>0.8</ele>
        <time>2013-05-05T19:16:48Z</time>
      </trkpt>
      <trkpt lat="59.4332157107" lon="17.8286803295">
        <ele>0.2</ele>
        <time>2013-05-05T19:16:50Z</time>
      </trkpt>
      <trkpt lat="59.4331295447" lon="17.8287322135">
        <ele>0</ele>
        <time>2013-05-05T19:16:51Z</time>
      </trkpt>
      <trkpt lat="59.4330513416" lon="17.8287911382">
        <ele>0</ele>
        <time>2013-05-05T19:16:52Z</time>
      </trkpt>
      <trkpt lat="59.4329730547" lon="17.8288538348">
        <ele>0</ele>
        <time>2013-05-05T19:16:53Z</time>
      </trkpt>
      <trkpt lat="59.4328958574" lon="17.8289195489">
        <ele>0</ele>
        <time>2013-05-05T19:16:54Z</time>
      </trkpt>
      <trkpt lat="59.4324502756" lon="17.829351133">
        <ele>0</ele>
        <time>2013-05-05T19:17:00Z</time>
      </trkpt>
      <trkpt lat="59.432148611" lon="17.8296722436">
        <ele>0</ele>
        <time>2013-05-05T19:17:04Z</time>
      </trkpt>
      <trkpt lat="59.4320744312" lon="17.8297582419">
        <ele>0</ele>
        <time>2013-05-05T19:17:05Z</time>
      </trkpt>
      <trkpt lat="59.4320036879" lon="17.829843402">
        <ele>0</ele>
        <time>2013-05-05T19:17:06Z</time>
      </trkpt>
      <trkpt lat="59.4319392311" lon="17.8299229462">
        <ele>0</ele>
        <time>2013-05-05T19:17:07Z</time>
      </trkpt>
      <trkpt lat="59.4318750258" lon="17.8300092798">
        <ele>0</ele>
        <time>2013-05-05T19:17:08Z</time>
      </trkpt>
      <trkpt lat="59.431577636" lon="17.8304170592">
        <ele>0</ele>
        <time>2013-05-05T19:17:13Z</time>
      </trkpt>
      <trkpt lat="59.4311038071" lon="17.8311120863">
        <ele>0</ele>
        <time>2013-05-05T19:17:21Z</time>
      </trkpt>
      <trkpt lat="59.4310390989" lon="17.8311868529">
        <ele>0</ele>
        <time>2013-05-05T19:17:22Z</time>
      </trkpt>
      <trkpt lat="59.4305755798" lon="17.8316030142">
        <ele>0</ele>
        <time>2013-05-05T19:17:29Z</time>
      </trkpt>
      <trkpt lat="59.4301812952" lon="17.8317854044">
        <ele>0</ele>
        <time>2013-05-05T19:17:35Z</time>
      </trkpt>
      <trkpt lat="59.4301273158" lon="17.8317709037">
        <ele>0</ele>
        <time>2013-05-05T19:17:36Z</time>
      </trkpt>
      <trkpt lat="59.4300731687" lon="17.8317167566">
        <ele>0</ele>
        <time>2013-05-05T19:17:37Z</time>
      </trkpt>
      <trkpt lat="59.4300338576" lon="17.8316290819">
        <ele>0</ele>
        <time>2013-05-05T19:17:38Z</time>
      </trkpt>
      <trkpt lat="59.430004018" lon="17.8315243082">
        <ele>0</ele>
        <time>2013-05-05T19:17:39Z</time>
      </trkpt>
      <trkpt lat="59.4299427464" lon="17.8313012658">
        <ele>0</ele>
        <time>2013-05-05T19:17:41Z</time>
      </trkpt>
      <trkpt lat="59.4296999227" lon="17.8305457214">
        <ele>0</ele>
        <time>2013-05-05T19:17:48Z</time>
      </trkpt>
      <trkpt lat="59.4296478711" lon="17.830502806">
        <ele>0</ele>
        <time>2013-05-05T19:17:49Z</time>
      </trkpt>
      <trkpt lat="59.4295623757" lon="17.8303545302">
        <ele>0</ele>
        <time>2013-05-05T19:17:51Z</time>
      </trkpt>
      <trkpt lat="59.4295053788" lon="17.8300998881">
        <ele>0</ele>
        <time>2013-05-05T19:17:53Z</time>
      </trkpt>
      <trkpt lat="59.4294748687" lon="17.8299632631">
        <ele>0</ele>
        <time>2013-05-05T19:17:54Z</time>
      </trkpt>
      <trkpt lat="59.4294314505" lon="17.8298315835">
        <ele>0</ele>
        <time>2013-05-05T19:17:55Z</time>
      </trkpt>
      <trkpt lat="59.4293956597" lon="17.8296938689">
        <ele>0</ele>
        <time>2013-05-05T19:17:56Z</time>
      </trkpt>
      <trkpt lat="59.4293597852" lon="17.8295603452">
        <ele>0</ele>
        <time>2013-05-05T19:17:57Z</time>
      </trkpt>
      <trkpt lat="59.429289042" lon="17.8293323575">
        <ele>0</ele>
        <time>2013-05-05T19:17:59Z</time>
      </trkpt>
      <trkpt lat="59.4292113418" lon="17.8291824053">
        <ele>0</ele>
        <time>2013-05-05T19:18:01Z</time>
      </trkpt>
      <trkpt lat="59.4291453762" lon="17.829022311">
        <ele>0</ele>
        <time>2013-05-05T19:18:03Z</time>
      </trkpt>
      <trkpt lat="59.4290916482" lon="17.8287263461">
        <ele>0</ele>
        <time>2013-05-05T19:18:06Z</time>
      </trkpt>
      <trkpt lat="59.4290305442" lon="17.8284458878">
        <ele>0</ele>
        <time>2013-05-05T19:18:09Z</time>
      </trkpt>
      <trkpt lat="59.4290091703" lon="17.8283554471">
        <ele>0</ele>
        <time>2013-05-05T19:18:10Z</time>
      </trkpt>
      <trkpt lat="59.4289882994" lon="17.8282673533">
        <ele>0</ele>
        <time>2013-05-05T19:18:11Z</time>
      </trkpt>
      <trkpt lat="59.4289666741" lon="17.8281818579">
        <ele>0</ele>
        <time>2013-05-05T19:18:12Z</time>
      </trkpt>
      <trkpt lat="59.4289743016" lon="17.8280814428">
        <ele>0</ele>
        <time>2013-05-05T19:18:13Z</time>
      </trkpt>
      <trkpt lat="59.4290079969" lon="17.8280043293">
        <ele>0</ele>
        <time>2013-05-05T19:18:14Z</time>
      </trkpt>
      <trkpt lat="59.4291727012" lon="17.8277009883">
        <ele>0</ele>
        <time>2013-05-05T19:18:18Z</time>
      </trkpt>
      <trkpt lat="59.4294652295" lon="17.827308883">
        <ele>0</ele>
        <time>2013-05-05T19:18:24Z</time>
      </trkpt>
      <trkpt lat="59.4298282496" lon="17.8269591902">
        <ele>0</ele>
        <time>2013-05-05T19:18:31Z</time>
      </trkpt>
      <trkpt lat="59.4301314229" lon="17.8266750438">
        <ele>0</ele>
        <time>2013-05-05T19:18:36Z</time>
      </trkpt>
      <trkpt lat="59.4305139728" lon="17.8263909812">
        <ele>0</ele>
        <time>2013-05-05T19:18:42Z</time>
      </trkpt>
      <trkpt lat="59.4306459878" lon="17.8263157117">
        <ele>0</ele>
        <time>2013-05-05T19:18:44Z</time>
      </trkpt>
      <trkpt lat="59.4307150546" lon="17.8262779932">
        <ele>0</ele>
        <time>2013-05-05T19:18:45Z</time>
      </trkpt>
      <trkpt lat="59.4307818584" lon="17.8262350778">
        <ele>0</ele>
        <time>2013-05-05T19:18:46Z</time>
      </trkpt>
      <trkpt lat="59.4308456446" lon="17.8261916596">
        <ele>0</ele>
        <time>2013-05-05T19:18:47Z</time>
      </trkpt>
      <trkpt lat="59.4309113587" lon="17.8261506721">
        <ele>0</ele>
        <time>2013-05-05T19:18:48Z</time>
      </trkpt>
      <trkpt lat="59.4311866203" lon="17.8259707127">
        <ele>0</ele>
        <time>2013-05-05T19:18:52Z</time>
      </trkpt>
      <trkpt lat="59.4317305218" lon="17.825595455">
        <ele>0</ele>
        <time>2013-05-05T19:19:00Z</time>
      </trkpt>
      <trkpt lat="59.4322072005" lon="17.8252980652">
        <ele>0</ele>
        <time>2013-05-05T19:19:07Z</time>
      </trkpt>
      <trkpt lat="59.4327331647" lon="17.8249615319">
        <ele>0</ele>
        <time>2013-05-05T19:19:15Z</time>
      </trkpt>
      <trkpt lat="59.4328003037" lon="17.8249155991">
        <ele>0</ele>
        <time>2013-05-05T19:19:16Z</time>
      </trkpt>
      <trkpt lat="59.4333126893" lon="17.8245719412">
        <ele>0</ele>
        <time>2013-05-05T19:19:24Z</time>
      </trkpt>
      <trkpt lat="59.4333757211" lon="17.8245276848">
        <ele>0</ele>
        <time>2013-05-05T19:19:25Z</time>
      </trkpt>
      <trkpt lat="59.4337597798" lon="17.8242375034">
        <ele>0</ele>
        <time>2013-05-05T19:19:31Z</time>
      </trkpt>
      <trkpt lat="59.4340740172" lon="17.8239872199">
        <ele>0</ele>
        <time>2013-05-05T19:19:37Z</time>
      </trkpt>
      <trkpt lat="59.4341750191" lon="17.823902898">
        <ele>0</ele>
        <time>2013-05-05T19:19:39Z</time>
      </trkpt>
      <trkpt lat="59.4342725844" lon="17.8236674504">
        <ele>0</ele>
        <time>2013-05-05T19:19:42Z</time>
      </trkpt>
      <trkpt lat="59.4342747637" lon="17.8233905962">
        <ele>0</ele>
        <time>2013-05-05T19:19:45Z</time>
      </trkpt>
      <trkpt lat="59.4342645378" lon="17.8230398976">
        <ele>0</ele>
        <time>2013-05-05T19:19:50Z</time>
      </trkpt>
      <trkpt lat="59.4342614365" lon="17.8229626164">
        <ele>0</ele>
        <time>2013-05-05T19:19:51Z</time>
      </trkpt>
      <trkpt lat="59.434263532" lon="17.8228869279">
        <ele>0</ele>
        <time>2013-05-05T19:19:52Z</time>
      </trkpt>
      <trkpt lat="59.4342595087" lon="17.8228171905">
        <ele>0</ele>
        <time>2013-05-05T19:19:53Z</time>
      </trkpt>
      <trkpt lat="59.4342544795" lon="17.8227383168">
        <ele>0</ele>
        <time>2013-05-05T19:19:54Z</time>
      </trkpt>
      <trkpt lat="59.4342520488" lon="17.8226604489">
        <ele>0</ele>
        <time>2013-05-05T19:19:55Z</time>
      </trkpt>
      <trkpt lat="59.4342579999" lon="17.8225890351">
        <ele>0.4</ele>
        <time>2013-05-05T19:19:56Z</time>
      </trkpt>
      <trkpt lat="59.4342600954" lon="17.8225183757">
        <ele>0.8</ele>
        <time>2013-05-05T19:19:57Z</time>
      </trkpt>
      <trkpt lat="59.4342600116" lon="17.8224504823">
        <ele>1.2</ele>
        <time>2013-05-05T19:19:58Z</time>
      </trkpt>
      <trkpt lat="59.4342670524" lon="17.8222380012">
        <ele>1.2</ele>
        <time>2013-05-05T19:20:01Z</time>
      </trkpt>
      <trkpt lat="59.4342664657" lon="17.8221704431">
        <ele>1.6</ele>
        <time>2013-05-05T19:20:02Z</time>
      </trkpt>
      <trkpt lat="59.4342706566" lon="17.8221060701">
        <ele>2</ele>
        <time>2013-05-05T19:20:03Z</time>
      </trkpt>
      <trkpt lat="59.4342766916" lon="17.8220415294">
        <ele>2.4</ele>
        <time>2013-05-05T19:20:04Z</time>
      </trkpt>
      <trkpt lat="59.4343022564" lon="17.8219859574">
        <ele>2.8</ele>
        <time>2013-05-05T19:20:05Z</time>
      </trkpt>
      <trkpt lat="59.4343346943" lon="17.8219322295">
        <ele>3.2</ele>
        <time>2013-05-05T19:20:06Z</time>
      </trkpt>
      <trkpt lat="59.4345221136" lon="17.8216581413">
        <ele>3.2</ele>
        <time>2013-05-05T19:20:11Z</time>
      </trkpt>
      <trkpt lat="59.4348205931" lon="17.8212921038">
        <ele>3.2</ele>
        <time>2013-05-05T19:20:18Z</time>
      </trkpt>
      <trkpt lat="59.4348495944" lon="17.8212031718">
        <ele>3.6</ele>
        <time>2013-05-05T19:20:19Z</time>
      </trkpt>
      <trkpt lat="59.4348696272" lon="17.8211069476">
        <ele>4</ele>
        <time>2013-05-05T19:20:20Z</time>
      </trkpt>
      <trkpt lat="59.4348802722" lon="17.8210004136">
        <ele>4.4</ele>
        <time>2013-05-05T19:20:21Z</time>
      </trkpt>
      <trkpt lat="59.4348946891" lon="17.8209016749">
        <ele>4.8</ele>
        <time>2013-05-05T19:20:22Z</time>
      </trkpt>
      <trkpt lat="59.4349101956" lon="17.8208010921">
        <ele>5.2</ele>
        <time>2013-05-05T19:20:23Z</time>
      </trkpt>
      <trkpt lat="59.4349782566" lon="17.8202177956">
        <ele>5.2</ele>
        <time>2013-05-05T19:20:29Z</time>
      </trkpt>
      <trkpt lat="59.4349930087" lon="17.8200167977">
        <ele>5.2</ele>
        <time>2013-05-05T19:20:31Z</time>
      </trkpt>
      <trkpt lat="59.4349584753" lon="17.8198566196">
        <ele>5.2</ele>
        <time>2013-05-05T19:20:33Z</time>
      </trkpt>
      <trkpt lat="59.4348635922" lon="17.8197815177">
        <ele>5.6</ele>
        <time>2013-05-05T19:20:35Z</time>
      </trkpt>
      <trkpt lat="59.4348037454" lon="17.8197620717">
        <ele>6</ele>
        <time>2013-05-05T19:20:36Z</time>
      </trkpt>
      <trkpt lat="59.4347481734" lon="17.8197355011">
        <ele>6.6</ele>
        <time>2013-05-05T19:20:37Z</time>
      </trkpt>
      <trkpt lat="59.4346884105" lon="17.8197112774">
        <ele>7</ele>
        <time>2013-05-05T19:20:38Z</time>
      </trkpt>
      <trkpt lat="59.4346334252" lon="17.8196808511">
        <ele>7.4</ele>
        <time>2013-05-05T19:20:39Z</time>
      </trkpt>
      <trkpt lat="59.4344062757" lon="17.8195711321">
        <ele>7.4</ele>
        <time>2013-05-05T19:20:43Z</time>
      </trkpt>
      <trkpt lat="59.433917611" lon="17.8193023245">
        <ele>7.4</ele>
        <time>2013-05-05T19:20:51Z</time>
      </trkpt>
      <trkpt lat="59.433565655" lon="17.8189110574">
        <ele>7.4</ele>
        <time>2013-05-05T19:20:57Z</time>
      </trkpt>
      <trkpt lat="59.4332310495" lon="17.818395822">
        <ele>7.4</ele>
        <time>2013-05-05T19:21:04Z</time>
      </trkpt>
      <trkpt lat="59.4330522636" lon="17.8180317961">
        <ele>7.4</ele>
        <time>2013-05-05T19:21:08Z</time>
      </trkpt>
      <trkpt lat="59.4329753178" lon="17.817805401">
        <ele>7.4</ele>
        <time>2013-05-05T19:21:10Z</time>
      </trkpt>
      <trkpt lat="59.4327219329" lon="17.8170337633">
        <ele>7</ele>
        <time>2013-05-05T19:21:17Z</time>
      </trkpt>
      <trkpt lat="59.4326920934" lon="17.8169238766">
        <ele>6.4</ele>
        <time>2013-05-05T19:21:18Z</time>
      </trkpt>
      <trkpt lat="59.4326635111" lon="17.8168159177">
        <ele>6</ele>
        <time>2013-05-05T19:21:19Z</time>
      </trkpt>
      <trkpt lat="59.4326372758" lon="17.8167086294">
        <ele>5.6</ele>
        <time>2013-05-05T19:21:20Z</time>
      </trkpt>
      <trkpt lat="59.4326116271" lon="17.8166170152">
        <ele>5.2</ele>
        <time>2013-05-05T19:21:21Z</time>
      </trkpt>
      <trkpt lat="59.4325672869" lon="17.8164109043">
        <ele>5.2</ele>
        <time>2013-05-05T19:21:23Z</time>
      </trkpt>
      <trkpt lat="59.4325198453" lon="17.81623413">
        <ele>5.2</ele>
        <time>2013-05-05T19:21:25Z</time>
      </trkpt>
      <trkpt lat="59.4324569811" lon="17.8158673381">
        <ele>5.6</ele>
        <time>2013-05-05T19:21:29Z</time>
      </trkpt>
      <trkpt lat="59.4324297399" lon="17.8157959243">
        <ele>6.6</ele>
        <time>2013-05-05T19:21:30Z</time>
      </trkpt>
      <trkpt lat="59.4323836395" lon="17.8157453814">
        <ele>7</ele>
        <time>2013-05-05T19:21:31Z</time>
      </trkpt>
      <trkpt lat="59.4323204399" lon="17.8157043101">
        <ele>7.4</ele>
        <time>2013-05-05T19:21:32Z</time>
      </trkpt>
      <trkpt lat="59.4322573242" lon="17.8156792482">
        <ele>7.4</ele>
        <time>2013-05-05T19:21:33Z</time>
      </trkpt>
      <trkpt lat="59.4320505428" lon="17.8156875463">
        <ele>7.4</ele>
        <time>2013-05-05T19:21:36Z</time>
      </trkpt>
      <trkpt lat="59.4319814759" lon="17.8156714531">
        <ele>7.4</ele>
        <time>2013-05-05T19:21:37Z</time>
      </trkpt>
      <trkpt lat="59.4317099862" lon="17.8155543579">
        <ele>7</ele>
        <time>2013-05-05T19:21:41Z</time>
      </trkpt>
      <trkpt lat="59.4316446073" lon="17.8155187349">
        <ele>6.6</ele>
        <time>2013-05-05T19:21:42Z</time>
      </trkpt>
      <trkpt lat="59.4315826651" lon="17.8154779988">
        <ele>6.2</ele>
        <time>2013-05-05T19:21:43Z</time>
      </trkpt>
      <trkpt lat="59.4315218125" lon="17.8154300544">
        <ele>5.8</ele>
        <time>2013-05-05T19:21:44Z</time>
      </trkpt>
      <trkpt lat="59.431461379" lon="17.8153826966">
        <ele>5.4</ele>
        <time>2013-05-05T19:21:45Z</time>
      </trkpt>
      <trkpt lat="59.4312224948" lon="17.8151294794">
        <ele>5.4</ele>
        <time>2013-05-05T19:21:49Z</time>
      </trkpt>
      <trkpt lat="59.4311108479" lon="17.8150374462">
        <ele>5.4</ele>
        <time>2013-05-05T19:21:51Z</time>
      </trkpt>
      <trkpt lat="59.4309867958" lon="17.8150744103">
        <ele>5.4</ele>
        <time>2013-05-05T19:21:53Z</time>
      </trkpt>
      <trkpt lat="59.430807507" lon="17.815253783">
        <ele>5.4</ele>
        <time>2013-05-05T19:21:56Z</time>
      </trkpt>
      <trkpt lat="59.4307499233" lon="17.815313043">
        <ele>5.4</ele>
        <time>2013-05-05T19:21:57Z</time>
      </trkpt>
      <trkpt lat="59.4304783498" lon="17.8157064056">
        <ele>5.4</ele>
        <time>2013-05-05T19:22:02Z</time>
      </trkpt>
      <trkpt lat="59.4304413856" lon="17.8158116823">
        <ele>5.4</ele>
        <time>2013-05-05T19:22:03Z</time>
      </trkpt>
      <trkpt lat="59.4304076065" lon="17.8159110916">
        <ele>5</ele>
        <time>2013-05-05T19:22:04Z</time>
      </trkpt>
      <trkpt lat="59.4303672058" lon="17.8159742073">
        <ele>4.6</ele>
        <time>2013-05-05T19:22:05Z</time>
      </trkpt>
      <trkpt lat="59.4303105441" lon="17.8159696811">
        <ele>4.2</ele>
        <time>2013-05-05T19:22:06Z</time>
      </trkpt>
      <trkpt lat="59.430255475" lon="17.8159265143">
        <ele>3.6</ele>
        <time>2013-05-05T19:22:07Z</time>
      </trkpt>
      <trkpt lat="59.4302083688" lon="17.8158513287">
        <ele>3.2</ele>
        <time>2013-05-05T19:22:08Z</time>
      </trkpt>
      <trkpt lat="59.4301606758" lon="17.8157743828">
        <ele>3.2</ele>
        <time>2013-05-05T19:22:09Z</time>
      </trkpt>
      <trkpt lat="59.4301104682" lon="17.8156944195">
        <ele>3.2</ele>
        <time>2013-05-05T19:22:10Z</time>
      </trkpt>
      <trkpt lat="59.4299059498" lon="17.8153854627">
        <ele>3.2</ele>
        <time>2013-05-05T19:22:14Z</time>
      </trkpt>
      <trkpt lat="59.4298550717" lon="17.8153106123">
        <ele>3.2</ele>
        <time>2013-05-05T19:22:15Z</time>
      </trkpt>
      <trkpt lat="59.429800757" lon="17.815231571">
        <ele>3.8</ele>
        <time>2013-05-05T19:22:16Z</time>
      </trkpt>
      <trkpt lat="59.429741916" lon="17.815158397">
        <ele>4.2</ele>
        <time>2013-05-05T19:22:17Z</time>
      </trkpt>
      <trkpt lat="59.4296900321" lon="17.815091258">
        <ele>4.6</ele>
        <time>2013-05-05T19:22:18Z</time>
      </trkpt>
      <trkpt lat="59.4296370585" lon="17.8150267173">
        <ele>5.2</ele>
        <time>2013-05-05T19:22:19Z</time>
      </trkpt>
      <trkpt lat="59.4295813188" lon="17.8149636016">
        <ele>6.4</ele>
        <time>2013-05-05T19:22:20Z</time>
      </trkpt>
      <trkpt lat="59.429527507" lon="17.8149016594">
        <ele>7</ele>
        <time>2013-05-05T19:22:21Z</time>
      </trkpt>
      <trkpt lat="59.4294679117" lon="17.8148566486">
        <ele>7.6</ele>
        <time>2013-05-05T19:22:22Z</time>
      </trkpt>
      <trkpt lat="59.429404796" lon="17.8148025853">
        <ele>8.2</ele>
        <time>2013-05-05T19:22:23Z</time>
      </trkpt>
      <trkpt lat="59.4293478829" lon="17.8147307524">
        <ele>8.6</ele>
        <time>2013-05-05T19:22:24Z</time>
      </trkpt>
      <trkpt lat="59.4292872818" lon="17.8146556506">
        <ele>9</ele>
        <time>2013-05-05T19:22:25Z</time>
      </trkpt>
      <trkpt lat="59.4292233279" lon="17.8145726698">
        <ele>9.4</ele>
        <time>2013-05-05T19:22:26Z</time>
      </trkpt>
      <trkpt lat="59.4291643193" lon="17.8144940476">
        <ele>9.8</ele>
        <time>2013-05-05T19:22:27Z</time>
      </trkpt>
      <trkpt lat="59.4291030476" lon="17.8144213765">
        <ele>10.2</ele>
        <time>2013-05-05T19:22:28Z</time>
      </trkpt>
      <trkpt lat="59.4288738027" lon="17.8141228132">
        <ele>10.2</ele>
        <time>2013-05-05T19:22:32Z</time>
      </trkpt>
      <trkpt lat="59.4285602358" lon="17.8137502378">
        <ele>10.2</ele>
        <time>2013-05-05T19:22:38Z</time>
      </trkpt>
      <trkpt lat="59.4284015664" lon="17.8135628185">
        <ele>10.6</ele>
        <time>2013-05-05T19:22:41Z</time>
      </trkpt>
      <trkpt lat="59.4283571423" lon="17.8135114374">
        <ele>11</ele>
        <time>2013-05-05T19:22:42Z</time>
      </trkpt>
      <trkpt lat="59.4283110419" lon="17.8134620681">
        <ele>11.6</ele>
        <time>2013-05-05T19:22:43Z</time>
      </trkpt>
      <trkpt lat="59.4282681266" lon="17.8134065799">
        <ele>12.4</ele>
        <time>2013-05-05T19:22:44Z</time>
      </trkpt>
      <trkpt lat="59.4281334294" lon="17.8132474076">
        <ele>12.8</ele>
        <time>2013-05-05T19:22:47Z</time>
      </trkpt>
      <trkpt lat="59.4280884186" lon="17.8131955236">
        <ele>13.2</ele>
        <time>2013-05-05T19:22:48Z</time>
      </trkpt>
      <trkpt lat="59.42804148" lon="17.8131410413">
        <ele>13.6</ele>
        <time>2013-05-05T19:22:49Z</time>
      </trkpt>
      <trkpt lat="59.4279975588" lon="17.813086056">
        <ele>14</ele>
        <time>2013-05-05T19:22:50Z</time>
      </trkpt>
      <trkpt lat="59.4279501173" lon="17.8130351779">
        <ele>14.4</ele>
        <time>2013-05-05T19:22:51Z</time>
      </trkpt>
      <trkpt lat="59.4276519731" lon="17.8126714873">
        <ele>14.4</ele>
        <time>2013-05-05T19:22:57Z</time>
      </trkpt>
      <trkpt lat="59.4273897873" lon="17.8123586747">
        <ele>14.8</ele>
        <time>2013-05-05T19:23:02Z</time>
      </trkpt>
      <trkpt lat="59.427336646" lon="17.8123022646">
        <ele>15.2</ele>
        <time>2013-05-05T19:23:03Z</time>
      </trkpt>
      <trkpt lat="59.4272803196" lon="17.8122300964">
        <ele>15.8</ele>
        <time>2013-05-05T19:23:04Z</time>
      </trkpt>
      <trkpt lat="59.4272247476" lon="17.8121701658">
        <ele>16.2</ele>
        <time>2013-05-05T19:23:05Z</time>
      </trkpt>
      <trkpt lat="59.4271690918" lon="17.8121110734">
        <ele>16.6</ele>
        <time>2013-05-05T19:23:06Z</time>
      </trkpt>
      <trkpt lat="59.4268488194" lon="17.8117356481">
        <ele>17</ele>
        <time>2013-05-05T19:23:12Z</time>
      </trkpt>
      <trkpt lat="59.4267958458" lon="17.8116730353">
        <ele>17.4</ele>
        <time>2013-05-05T19:23:13Z</time>
      </trkpt>
      <trkpt lat="59.4267422017" lon="17.811606483">
        <ele>17.8</ele>
        <time>2013-05-05T19:23:14Z</time>
      </trkpt>
      <trkpt lat="59.4266883899" lon="17.8115429482">
        <ele>18.2</ele>
        <time>2013-05-05T19:23:15Z</time>
      </trkpt>
      <trkpt lat="59.4266294651" lon="17.8114869571">
        <ele>18.6</ele>
        <time>2013-05-05T19:23:16Z</time>
      </trkpt>
      <trkpt lat="59.4264528585" lon="17.8112803433">
        <ele>18.6</ele>
        <time>2013-05-05T19:23:19Z</time>
      </trkpt>
      <trkpt lat="59.4260566461" lon="17.8107911756">
        <ele>18.6</ele>
        <time>2013-05-05T19:23:26Z</time>
      </trkpt>
      <trkpt lat="59.4260195981" lon="17.8107465001">
        <ele>18.2</ele>
        <time>2013-05-05T19:23:27Z</time>
      </trkpt>
      <trkpt lat="59.4259969669" lon="17.8107179178">
        <ele>17.8</ele>
        <time>2013-05-05T19:23:28Z</time>
      </trkpt>
      <trkpt lat="59.4259694743" lon="17.8106876592">
        <ele>17.4</ele>
        <time>2013-05-05T19:23:29Z</time>
      </trkpt>
      <trkpt lat="59.4259448315" lon="17.8106645251">
        <ele>17</ele>
        <time>2013-05-05T19:23:30Z</time>
      </trkpt>
      <trkpt lat="59.4259037602" lon="17.8106234538">
        <ele>16.4</ele>
        <time>2013-05-05T19:23:31Z</time>
      </trkpt>
      <trkpt lat="59.4258635271" lon="17.8105646967">
        <ele>16</ele>
        <time>2013-05-05T19:23:32Z</time>
      </trkpt>
      <trkpt lat="59.4258123137" lon="17.8104993179">
        <ele>15.4</ele>
        <time>2013-05-05T19:23:33Z</time>
      </trkpt>
      <trkpt lat="59.4257586695" lon="17.8104370403">
        <ele>14.4</ele>
        <time>2013-05-05T19:23:34Z</time>
      </trkpt>
      <trkpt lat="59.4255126608" lon="17.8101350405">
        <ele>14.4</ele>
        <time>2013-05-05T19:23:38Z</time>
      </trkpt>
      <trkpt lat="59.4252472898" lon="17.809805548">
        <ele>13.8</ele>
        <time>2013-05-05T19:23:42Z</time>
      </trkpt>
      <trkpt lat="59.4251817433" lon="17.8097276802">
        <ele>13.4</ele>
        <time>2013-05-05T19:23:43Z</time>
      </trkpt>
      <trkpt lat="59.425114772" lon="17.8096478006">
        <ele>13</ele>
        <time>2013-05-05T19:23:44Z</time>
      </trkpt>
      <trkpt lat="59.4250545061" lon="17.8095711901">
        <ele>12.2</ele>
        <time>2013-05-05T19:23:45Z</time>
      </trkpt>
      <trkpt lat="59.4249863612" lon="17.809491562">
        <ele>11.6</ele>
        <time>2013-05-05T19:23:46Z</time>
      </trkpt>
      <trkpt lat="59.4249250057" lon="17.8094172984">
        <ele>11</ele>
        <time>2013-05-05T19:23:47Z</time>
      </trkpt>
      <trkpt lat="59.4248627282" lon="17.8093436215">
        <ele>10.4</ele>
        <time>2013-05-05T19:23:48Z</time>
      </trkpt>
      <trkpt lat="59.4247959245" lon="17.8092636582">
        <ele>9.8</ele>
        <time>2013-05-05T19:23:49Z</time>
      </trkpt>
      <trkpt lat="59.4247262709" lon="17.809172044">
        <ele>9.2</ele>
        <time>2013-05-05T19:23:50Z</time>
      </trkpt>
      <trkpt lat="59.4246687711" lon="17.8091028933">
        <ele>8.6</ele>
        <time>2013-05-05T19:23:51Z</time>
      </trkpt>
      <trkpt lat="59.4246199046" lon="17.8090463993">
        <ele>8</ele>
        <time>2013-05-05T19:23:52Z</time>
      </trkpt>
      <trkpt lat="59.4245736365" lon="17.8089939286">
        <ele>7.4</ele>
        <time>2013-05-05T19:23:53Z</time>
      </trkpt>
      <trkpt lat="59.4245348283" lon="17.8089511809">
        <ele>6.6</ele>
        <time>2013-05-05T19:23:54Z</time>
      </trkpt>
      <trkpt lat="59.4244941761" lon="17.8089035717">
        <ele>6</ele>
        <time>2013-05-05T19:23:55Z</time>
      </trkpt>
      <trkpt lat="59.424458553" lon="17.8088638415">
        <ele>5.2</ele>
        <time>2013-05-05T19:23:56Z</time>
      </trkpt>
      <trkpt lat="59.4244201639" lon="17.8088206748">
        <ele>4.4</ele>
        <time>2013-05-05T19:23:57Z</time>
      </trkpt>
      <trkpt lat="59.4243708783" lon="17.8087697966">
        <ele>3.8</ele>
        <time>2013-05-05T19:23:58Z</time>
      </trkpt>
      <trkpt lat="59.4243153063" lon="17.8087102013">
        <ele>2.2</ele>
        <time>2013-05-05T19:23:59Z</time>
      </trkpt>
      <trkpt lat="59.4241216844" lon="17.8085197645">
        <ele>2.2</ele>
        <time>2013-05-05T19:24:02Z</time>
      </trkpt>
      <trkpt lat="59.424060748" lon="17.8084546372">
        <ele>1.8</ele>
        <time>2013-05-05T19:24:03Z</time>
      </trkpt>
      <trkpt lat="59.4239915135" lon="17.8083921082">
        <ele>1.4</ele>
        <time>2013-05-05T19:24:04Z</time>
      </trkpt>
      <trkpt lat="59.4239208541" lon="17.8083310042">
        <ele>0.8</ele>
        <time>2013-05-05T19:24:05Z</time>
      </trkpt>
      <trkpt lat="59.4238527093" lon="17.8082724147">
        <ele>0.2</ele>
        <time>2013-05-05T19:24:06Z</time>
      </trkpt>
      <trkpt lat="59.4237850673" lon="17.808212065">
        <ele>0</ele>
        <time>2013-05-05T19:24:07Z</time>
      </trkpt>
      <trkpt lat="59.4237195209" lon="17.808144926">
        <ele>0</ele>
        <time>2013-05-05T19:24:08Z</time>
      </trkpt>
      <trkpt lat="59.4236519628" lon="17.8080761106">
        <ele>0</ele>
        <time>2013-05-05T19:24:09Z</time>
      </trkpt>
      <trkpt lat="59.4235869192" lon="17.8080030204">
        <ele>0</ele>
        <time>2013-05-05T19:24:10Z</time>
      </trkpt>
      <trkpt lat="59.4232473685" lon="17.8076152737">
        <ele>0</ele>
        <time>2013-05-05T19:24:15Z</time>
      </trkpt>
      <trkpt lat="59.4231813191" lon="17.8075482185">
        <ele>0</ele>
        <time>2013-05-05T19:24:16Z</time>
      </trkpt>
      <trkpt lat="59.4231135933" lon="17.8074774753">
        <ele>0</ele>
        <time>2013-05-05T19:24:17Z</time>
      </trkpt>
      <trkpt lat="59.4230410899" lon="17.8073985178">
        <ele>0</ele>
        <time>2013-05-05T19:24:18Z</time>
      </trkpt>
      <trkpt lat="59.4229663233" lon="17.8073249247">
        <ele>0</ele>
        <time>2013-05-05T19:24:19Z</time>
      </trkpt>
      <trkpt lat="59.4228935685" lon="17.8072505772">
        <ele>0</ele>
        <time>2013-05-05T19:24:20Z</time>
      </trkpt>
      <trkpt lat="59.4228246692" lon="17.8071900599">
        <ele>0</ele>
        <time>2013-05-05T19:24:21Z</time>
      </trkpt>
      <trkpt lat="59.4227535069" lon="17.807122418">
        <ele>0</ele>
        <time>2013-05-05T19:24:22Z</time>
      </trkpt>
      <trkpt lat="59.4226868708" lon="17.8070693606">
        <ele>0</ele>
        <time>2013-05-05T19:24:23Z</time>
      </trkpt>
      <trkpt lat="59.4226283651" lon="17.8070206617">
        <ele>0</ele>
        <time>2013-05-05T19:24:24Z</time>
      </trkpt>
      <trkpt lat="59.4225717035" lon="17.8069657603">
        <ele>0</ele>
        <time>2013-05-05T19:24:25Z</time>
      </trkpt>
      <trkpt lat="59.4225202386" lon="17.8069153012">
        <ele>0</ele>
        <time>2013-05-05T19:24:26Z</time>
      </trkpt>
      <trkpt lat="59.4224836097" lon="17.8068682788">
        <ele>0</ele>
        <time>2013-05-05T19:24:27Z</time>
      </trkpt>
      <trkpt lat="59.4224022215" lon="17.8067476632">
        <ele>0</ele>
        <time>2013-05-05T19:24:30Z</time>
      </trkpt>
      <trkpt lat="59.4223836137" lon="17.8066715556">
        <ele>0</ele>
        <time>2013-05-05T19:24:31Z</time>
      </trkpt>
      <trkpt lat="59.42238529" lon="17.8065594896">
        <ele>0</ele>
        <time>2013-05-05T19:24:32Z</time>
      </trkpt>
      <trkpt lat="59.4224051551" lon="17.8064454119">
        <ele>0</ele>
        <time>2013-05-05T19:24:33Z</time>
      </trkpt>
      <trkpt lat="59.4224212484" lon="17.8063402191">
        <ele>0</ele>
        <time>2013-05-05T19:24:34Z</time>
      </trkpt>
      <trkpt lat="59.4225754754" lon="17.8058560805">
        <ele>0</ele>
        <time>2013-05-05T19:24:38Z</time>
      </trkpt>
      <trkpt lat="59.4226193965" lon="17.8057384825">
        <ele>0</ele>
        <time>2013-05-05T19:24:39Z</time>
      </trkpt>
      <trkpt lat="59.422662228" lon="17.8056236505">
        <ele>0</ele>
        <time>2013-05-05T19:24:40Z</time>
      </trkpt>
      <trkpt lat="59.4227045566" lon="17.8055019453">
        <ele>0</ele>
        <time>2013-05-05T19:24:41Z</time>
      </trkpt>
      <trkpt lat="59.4227461308" lon="17.8053856045">
        <ele>0</ele>
        <time>2013-05-05T19:24:42Z</time>
      </trkpt>
      <trkpt lat="59.422945201" lon="17.8048049903">
        <ele>0</ele>
        <time>2013-05-05T19:24:47Z</time>
      </trkpt>
      <trkpt lat="59.4231977476" lon="17.8040147448">
        <ele>0</ele>
        <time>2013-05-05T19:24:54Z</time>
      </trkpt>
      <trkpt lat="59.4233969016" lon="17.8033870243">
        <ele>0</ele>
        <time>2013-05-05T19:25:00Z</time>
      </trkpt>
      <trkpt lat="59.4234311835" lon="17.8032872796">
        <ele>0</ele>
        <time>2013-05-05T19:25:01Z</time>
      </trkpt>
      <trkpt lat="59.4234652979" lon="17.8031936538">
        <ele>0</ele>
        <time>2013-05-05T19:25:02Z</time>
      </trkpt>
      <trkpt lat="59.4234984064" lon="17.8030936578">
        <ele>0</ele>
        <time>2013-05-05T19:25:03Z</time>
      </trkpt>
      <trkpt lat="59.423531012" lon="17.8030015407">
        <ele>0</ele>
        <time>2013-05-05T19:25:04Z</time>
      </trkpt>
      <trkpt lat="59.4235637852" lon="17.8029062385">
        <ele>0</ele>
        <time>2013-05-05T19:25:05Z</time>
      </trkpt>
      <trkpt lat="59.4236360372" lon="17.802706414">
        <ele>0</ele>
        <time>2013-05-05T19:25:07Z</time>
      </trkpt>
      <trkpt lat="59.4239285655" lon="17.8020232891">
        <ele>0</ele>
        <time>2013-05-05T19:25:14Z</time>
      </trkpt>
      <trkpt lat="59.424100143" lon="17.8016354586">
        <ele>0</ele>
        <time>2013-05-05T19:25:18Z</time>
      </trkpt>
      <trkpt lat="59.4242065931" lon="17.8014601093">
        <ele>0</ele>
        <time>2013-05-05T19:25:20Z</time>
      </trkpt>
      <trkpt lat="59.4246328127" lon="17.8007565326">
        <ele>0</ele>
        <time>2013-05-05T19:25:28Z</time>
      </trkpt>
      <trkpt lat="59.4246883847" lon="17.800668355">
        <ele>0</ele>
        <time>2013-05-05T19:25:29Z</time>
      </trkpt>
      <trkpt lat="59.4251410073" lon="17.7999678796">
        <ele>0</ele>
        <time>2013-05-05T19:25:37Z</time>
      </trkpt>
      <trkpt lat="59.4251944838" lon="17.7998794506">
        <ele>0</ele>
        <time>2013-05-05T19:25:38Z</time>
      </trkpt>
      <trkpt lat="59.4256233018" lon="17.7991783885">
        <ele>0</ele>
        <time>2013-05-05T19:25:46Z</time>
      </trkpt>
      <trkpt lat="59.4256756049" lon="17.799085517">
        <ele>0</ele>
        <time>2013-05-05T19:25:47Z</time>
      </trkpt>
      <trkpt lat="59.4260133955" lon="17.7984095168">
        <ele>0</ele>
        <time>2013-05-05T19:25:54Z</time>
      </trkpt>
      <trkpt lat="59.4263003079" lon="17.7976000767">
        <ele>0</ele>
        <time>2013-05-05T19:26:01Z</time>
      </trkpt>
      <trkpt lat="59.426494768" lon="17.796936314">
        <ele>0</ele>
        <time>2013-05-05T19:26:06Z</time>
      </trkpt>
      <trkpt lat="59.4265259486" lon="17.7967942408">
        <ele>0</ele>
        <time>2013-05-05T19:26:07Z</time>
      </trkpt>
      <trkpt lat="59.426660059" lon="17.7960080186">
        <ele>0</ele>
        <time>2013-05-05T19:26:12Z</time>
      </trkpt>
      <trkpt lat="59.4267284553" lon="17.7954506222">
        <ele>0</ele>
        <time>2013-05-05T19:26:15Z</time>
      </trkpt>
      <trkpt lat="59.4267484881" lon="17.7952626162">
        <ele>0</ele>
        <time>2013-05-05T19:26:16Z</time>
      </trkpt>
      <trkpt lat="59.4267608933" lon="17.7950734367">
        <ele>0</ele>
        <time>2013-05-05T19:26:17Z</time>
      </trkpt>
      <trkpt lat="59.4267748911" lon="17.7948757915">
        <ele>0</ele>
        <time>2013-05-05T19:26:18Z</time>
      </trkpt>
      <trkpt lat="59.4267810099" lon="17.7946760509">
        <ele>0</ele>
        <time>2013-05-05T19:26:19Z</time>
      </trkpt>
      <trkpt lat="59.4267837759" lon="17.7944811717">
        <ele>0</ele>
        <time>2013-05-05T19:26:20Z</time>
      </trkpt>
      <trkpt lat="59.4267788306" lon="17.7942775753">
        <ele>0</ele>
        <time>2013-05-05T19:26:21Z</time>
      </trkpt>
      <trkpt lat="59.4267748073" lon="17.7940852946">
        <ele>0</ele>
        <time>2013-05-05T19:26:22Z</time>
      </trkpt>
      <trkpt lat="59.4267724603" lon="17.7938948578">
        <ele>0</ele>
        <time>2013-05-05T19:26:23Z</time>
      </trkpt>
      <trkpt lat="59.426765671" lon="17.793698889">
        <ele>0</ele>
        <time>2013-05-05T19:26:24Z</time>
      </trkpt>
      <trkpt lat="59.4267542716" lon="17.793509458">
        <ele>0</ele>
        <time>2013-05-05T19:26:25Z</time>
      </trkpt>
      <trkpt lat="59.4267364181" lon="17.7933200271">
        <ele>0</ele>
        <time>2013-05-05T19:26:26Z</time>
      </trkpt>
      <trkpt lat="59.4267011304" lon="17.7929508882">
        <ele>0</ele>
        <time>2013-05-05T19:26:28Z</time>
      </trkpt>
      <trkpt lat="59.4266823549" lon="17.7927767961">
        <ele>0</ele>
        <time>2013-05-05T19:26:29Z</time>
      </trkpt>
      <trkpt lat="59.4266587179" lon="17.7926080685">
        <ele>0</ele>
        <time>2013-05-05T19:26:30Z</time>
      </trkpt>
      <trkpt lat="59.4266329855" lon="17.7924461302">
        <ele>0</ele>
        <time>2013-05-05T19:26:31Z</time>
      </trkpt>
      <trkpt lat="59.4266075883" lon="17.7922883828">
        <ele>0</ele>
        <time>2013-05-05T19:26:32Z</time>
      </trkpt>
      <trkpt lat="59.4265106936" lon="17.791831234">
        <ele>0</ele>
        <time>2013-05-05T19:26:35Z</time>
      </trkpt>
      <trkpt lat="59.4263802712" lon="17.791395459">
        <ele>0</ele>
        <time>2013-05-05T19:26:38Z</time>
      </trkpt>
      <trkpt lat="59.4263316562" lon="17.7912653719">
        <ele>0</ele>
        <time>2013-05-05T19:26:39Z</time>
      </trkpt>
      <trkpt lat="59.426284969" lon="17.7911363745">
        <ele>0</ele>
        <time>2013-05-05T19:26:40Z</time>
      </trkpt>
      <trkpt lat="59.4262355996" lon="17.791006455">
        <ele>0</ele>
        <time>2013-05-05T19:26:41Z</time>
      </trkpt>
      <trkpt lat="59.4261880743" lon="17.7908903657">
        <ele>0</ele>
        <time>2013-05-05T19:26:42Z</time>
      </trkpt>
      <trkpt lat="59.4259843103" lon="17.7904898785">
        <ele>0</ele>
        <time>2013-05-05T19:26:46Z</time>
      </trkpt>
      <trkpt lat="59.4256458491" lon="17.7899438816">
        <ele>0</ele>
        <time>2013-05-05T19:26:53Z</time>
      </trkpt>
      <trkpt lat="59.4254350444" lon="17.789649174">
        <ele>0</ele>
        <time>2013-05-05T19:26:58Z</time>
      </trkpt>
      <trkpt lat="59.4253970743" lon="17.7895927638">
        <ele>0</ele>
        <time>2013-05-05T19:26:59Z</time>
      </trkpt>
      <trkpt lat="59.4253644688" lon="17.7895379462">
        <ele>0</ele>
        <time>2013-05-05T19:27:00Z</time>
      </trkpt>
      <trkpt lat="59.4253312764" lon="17.7894820389">
        <ele>0</ele>
        <time>2013-05-05T19:27:01Z</time>
      </trkpt>
      <trkpt lat="59.4252963239" lon="17.7894235332">
        <ele>0</ele>
        <time>2013-05-05T19:27:02Z</time>
      </trkpt>
      <trkpt lat="59.4252619581" lon="17.7893637703">
        <ele>0</ele>
        <time>2013-05-05T19:27:03Z</time>
      </trkpt>
      <trkpt lat="59.4252285143" lon="17.7893048455">
        <ele>0</ele>
        <time>2013-05-05T19:27:04Z</time>
      </trkpt>
      <trkpt lat="59.4251949867" lon="17.7892483515">
        <ele>0</ele>
        <time>2013-05-05T19:27:05Z</time>
      </trkpt>
      <trkpt lat="59.4251603695" lon="17.789193953">
        <ele>0</ele>
        <time>2013-05-05T19:27:06Z</time>
      </trkpt>
      <trkpt lat="59.4249856069" lon="17.7888795479">
        <ele>0</ele>
        <time>2013-05-05T19:27:12Z</time>
      </trkpt>
      <trkpt lat="59.4249349802" lon="17.7887683201">
        <ele>0</ele>
        <time>2013-05-05T19:27:14Z</time>
      </trkpt>
      <trkpt lat="59.4249064817" lon="17.7887146759">
        <ele>0</ele>
        <time>2013-05-05T19:27:15Z</time>
      </trkpt>
      <trkpt lat="59.4248817551" lon="17.7886621214">
        <ele>0</ele>
        <time>2013-05-05T19:27:16Z</time>
      </trkpt>
      <trkpt lat="59.4248561065" lon="17.7886085611">
        <ele>0</ele>
        <time>2013-05-05T19:27:17Z</time>
      </trkpt>
      <trkpt lat="59.4248025462" lon="17.7885061343">
        <ele>0</ele>
        <time>2013-05-05T19:27:19Z</time>
      </trkpt>
      <trkpt lat="59.4247764785" lon="17.7884545018">
        <ele>0</ele>
        <time>2013-05-05T19:27:20Z</time>
      </trkpt>
      <trkpt lat="59.424752171" lon="17.7884035398">
        <ele>0</ele>
        <time>2013-05-05T19:27:21Z</time>
      </trkpt>
      <trkpt lat="59.4247284502" lon="17.788341849">
        <ele>0</ele>
        <time>2013-05-05T19:27:22Z</time>
      </trkpt>
      <trkpt lat="59.4247017119" lon="17.7882811641">
        <ele>0</ele>
        <time>2013-05-05T19:27:23Z</time>
      </trkpt>
      <trkpt lat="59.4246002909" lon="17.788035742">
        <ele>0</ele>
        <time>2013-05-05T19:27:27Z</time>
      </trkpt>
      <trkpt lat="59.424575732" lon="17.7879784937">
        <ele>0</ele>
        <time>2013-05-05T19:27:28Z</time>
      </trkpt>
      <trkpt lat="59.4245507539" lon="17.7879194851">
        <ele>0</ele>
        <time>2013-05-05T19:27:29Z</time>
      </trkpt>
      <trkpt lat="59.4245282066" lon="17.7878557827">
        <ele>0</ele>
        <time>2013-05-05T19:27:30Z</time>
      </trkpt>
      <trkpt lat="59.4245074195" lon="17.7877901524">
        <ele>0</ele>
        <time>2013-05-05T19:27:31Z</time>
      </trkpt>
      <trkpt lat="59.424447908" lon="17.7876070079">
        <ele>0</ele>
        <time>2013-05-05T19:27:34Z</time>
      </trkpt>
      <trkpt lat="59.4243887318" lon="17.7874305689">
        <ele>0</ele>
        <time>2013-05-05T19:27:37Z</time>
      </trkpt>
      <trkpt lat="59.4243702916" lon="17.7873652739">
        <ele>0</ele>
        <time>2013-05-05T19:27:38Z</time>
      </trkpt>
      <trkpt lat="59.4243489178" lon="17.7873055109">
        <ele>0</ele>
        <time>2013-05-05T19:27:39Z</time>
      </trkpt>
      <trkpt lat="59.4243282145" lon="17.7872399645">
        <ele>0</ele>
        <time>2013-05-05T19:27:40Z</time>
      </trkpt>
      <trkpt lat="59.4243091875" lon="17.7871776031">
        <ele>0</ele>
        <time>2013-05-05T19:27:41Z</time>
      </trkpt>
      <trkpt lat="59.424145992" lon="17.7867010921">
        <ele>0</ele>
        <time>2013-05-05T19:27:48Z</time>
      </trkpt>
      <trkpt lat="59.4241247857" lon="17.786630768">
        <ele>0</ele>
        <time>2013-05-05T19:27:49Z</time>
      </trkpt>
      <trkpt lat="59.4241025737" lon="17.7865627069">
        <ele>0</ele>
        <time>2013-05-05T19:27:50Z</time>
      </trkpt>
      <trkpt lat="59.4240814513" lon="17.7864897844">
        <ele>0</ele>
        <time>2013-05-05T19:27:51Z</time>
      </trkpt>
      <trkpt lat="59.4240626759" lon="17.7864171133">
        <ele>0</ele>
        <time>2013-05-05T19:27:52Z</time>
      </trkpt>
      <trkpt lat="59.424021856" lon="17.7862757945">
        <ele>0</ele>
        <time>2013-05-05T19:27:54Z</time>
      </trkpt>
      <trkpt lat="59.4239428985" lon="17.785997264">
        <ele>0</ele>
        <time>2013-05-05T19:27:58Z</time>
      </trkpt>
      <trkpt lat="59.4239041741" lon="17.78585276">
        <ele>0</ele>
        <time>2013-05-05T19:28:00Z</time>
      </trkpt>
      <trkpt lat="59.4238586604" lon="17.7856863793">
        <ele>0</ele>
        <time>2013-05-05T19:28:02Z</time>
      </trkpt>
      <trkpt lat="59.4237948742" lon="17.785455458">
        <ele>0</ele>
        <time>2013-05-05T19:28:05Z</time>
      </trkpt>
      <trkpt lat="59.4237746738" lon="17.7853704655">
        <ele>0</ele>
        <time>2013-05-05T19:28:06Z</time>
      </trkpt>
      <trkpt lat="59.4237552278" lon="17.7852885743">
        <ele>0</ele>
        <time>2013-05-05T19:28:07Z</time>
      </trkpt>
      <trkpt lat="59.4237360332" lon="17.7852097845">
        <ele>0</ele>
        <time>2013-05-05T19:28:08Z</time>
      </trkpt>
      <trkpt lat="59.4236511246" lon="17.7848085429">
        <ele>0</ele>
        <time>2013-05-05T19:28:13Z</time>
      </trkpt>
      <trkpt lat="59.423688424" lon="17.7845754423">
        <ele>0</ele>
        <time>2013-05-05T19:28:16Z</time>
      </trkpt>
      <trkpt lat="59.4237295792" lon="17.7845298447">
        <ele>0</ele>
        <time>2013-05-05T19:28:17Z</time>
      </trkpt>
      <trkpt lat="59.4237724107" lon="17.7844943055">
        <ele>0</ele>
        <time>2013-05-05T19:28:18Z</time>
      </trkpt>
      <trkpt lat="59.4238201037" lon="17.7844548267">
        <ele>0</ele>
        <time>2013-05-05T19:28:19Z</time>
      </trkpt>
      <trkpt lat="59.4238694731" lon="17.7844225564">
        <ele>0.2</ele>
        <time>2013-05-05T19:28:20Z</time>
      </trkpt>
      <trkpt lat="59.4239190939" lon="17.7843922139">
        <ele>0.2</ele>
        <time>2013-05-05T19:28:21Z</time>
      </trkpt>
      <trkpt lat="59.424067705" lon="17.7842751188">
        <ele>0.2</ele>
        <time>2013-05-05T19:28:24Z</time>
      </trkpt>
      <trkpt lat="59.4242709661" lon="17.7840975063">
        <ele>0.2</ele>
        <time>2013-05-05T19:28:28Z</time>
      </trkpt>
      <trkpt lat="59.4244219241" lon="17.7839214864">
        <ele>0.2</ele>
        <time>2013-05-05T19:28:31Z</time>
      </trkpt>
      <trkpt lat="59.424753093" lon="17.7834388566">
        <ele>0.2</ele>
        <time>2013-05-05T19:28:38Z</time>
      </trkpt>
      <trkpt lat="59.4251143529" lon="17.7828671272">
        <ele>0.2</ele>
        <time>2013-05-05T19:28:45Z</time>
      </trkpt>
      <trkpt lat="59.4253943083" lon="17.7824849126">
        <ele>0.2</ele>
        <time>2013-05-05T19:28:49Z</time>
      </trkpt>
      <trkpt lat="59.4254811448" lon="17.7824081344">
        <ele>0.2</ele>
        <time>2013-05-05T19:28:50Z</time>
      </trkpt>
      <trkpt lat="59.4257771097" lon="17.7823346251">
        <ele>0</ele>
        <time>2013-05-05T19:28:53Z</time>
      </trkpt>
      <trkpt lat="59.4258767705" lon="17.7823245668">
        <ele>0</ele>
        <time>2013-05-05T19:28:54Z</time>
      </trkpt>
      <trkpt lat="59.425980706" lon="17.7823123293">
        <ele>0</ele>
        <time>2013-05-05T19:28:55Z</time>
      </trkpt>
      <trkpt lat="59.4260807859" lon="17.7823017681">
        <ele>0</ele>
        <time>2013-05-05T19:28:56Z</time>
      </trkpt>
      <trkpt lat="59.4261812849" lon="17.7822914583">
        <ele>0</ele>
        <time>2013-05-05T19:28:57Z</time>
      </trkpt>
      <trkpt lat="59.4262795208" lon="17.7822811486">
        <ele>0</ele>
        <time>2013-05-05T19:28:58Z</time>
      </trkpt>
      <trkpt lat="59.4263795168" lon="17.7822724314">
        <ele>0</ele>
        <time>2013-05-05T19:28:59Z</time>
      </trkpt>
      <trkpt lat="59.4264800996" lon="17.7822603615">
        <ele>0</ele>
        <time>2013-05-05T19:29:00Z</time>
      </trkpt>
      <trkpt lat="59.4265808501" lon="17.7822462799">
        <ele>0</ele>
        <time>2013-05-05T19:29:01Z</time>
      </trkpt>
      <trkpt lat="59.4266829416" lon="17.7822319468">
        <ele>0</ele>
        <time>2013-05-05T19:29:02Z</time>
      </trkpt>
      <trkpt lat="59.4267905652" lon="17.7822170271">
        <ele>0</ele>
        <time>2013-05-05T19:29:03Z</time>
      </trkpt>
      <trkpt lat="59.4268949199" lon="17.7822021911">
        <ele>0</ele>
        <time>2013-05-05T19:29:04Z</time>
      </trkpt>
      <trkpt lat="59.4273113327" lon="17.7821488822">
        <ele>0</ele>
        <time>2013-05-05T19:29:08Z</time>
      </trkpt>
      <trkpt lat="59.4274140109" lon="17.7821404165">
        <ele>0</ele>
        <time>2013-05-05T19:29:09Z</time>
      </trkpt>
      <trkpt lat="59.4275207125" lon="17.7821256644">
        <ele>0</ele>
        <time>2013-05-05T19:29:10Z</time>
      </trkpt>
      <trkpt lat="59.4276218821" lon="17.7821105769">
        <ele>0</ele>
        <time>2013-05-05T19:29:11Z</time>
      </trkpt>
      <trkpt lat="59.4277237222" lon="17.782098507">
        <ele>0</ele>
        <time>2013-05-05T19:29:12Z</time>
      </trkpt>
      <trkpt lat="59.4279208644" lon="17.7820755406">
        <ele>0</ele>
        <time>2013-05-05T19:29:14Z</time>
      </trkpt>
      <trkpt lat="59.4282117164" lon="17.7820398337">
        <ele>0</ele>
        <time>2013-05-05T19:29:17Z</time>
      </trkpt>
      <trkpt lat="59.4283065995" lon="17.7820266741">
        <ele>0</ele>
        <time>2013-05-05T19:29:18Z</time>
      </trkpt>
      <trkpt lat="59.4283940227" lon="17.7820199686">
        <ele>0</ele>
        <time>2013-05-05T19:29:19Z</time>
      </trkpt>
      <trkpt lat="59.4284807754" lon="17.7820114191">
        <ele>0</ele>
        <time>2013-05-05T19:29:20Z</time>
      </trkpt>
      <trkpt lat="59.4288544405" lon="17.7819612953">
        <ele>0</ele>
        <time>2013-05-05T19:29:25Z</time>
      </trkpt>
      <trkpt lat="59.4291877886" lon="17.7819388318">
        <ele>0</ele>
        <time>2013-05-05T19:29:30Z</time>
      </trkpt>
      <trkpt lat="59.4296151817" lon="17.7818705193">
        <ele>0</ele>
        <time>2013-05-05T19:29:37Z</time>
      </trkpt>
      <trkpt lat="59.4297317739" lon="17.7818671666">
        <ele>0</ele>
        <time>2013-05-05T19:29:39Z</time>
      </trkpt>
      <trkpt lat="59.4297874298" lon="17.7818633947">
        <ele>0</ele>
        <time>2013-05-05T19:29:40Z</time>
      </trkpt>
      <trkpt lat="59.4298440076" lon="17.7818564377">
        <ele>0</ele>
        <time>2013-05-05T19:29:41Z</time>
      </trkpt>
      <trkpt lat="59.4298988252" lon="17.7818490617">
        <ele>0</ele>
        <time>2013-05-05T19:29:42Z</time>
      </trkpt>
      <trkpt lat="59.4299505415" lon="17.7818514924">
        <ele>0</ele>
        <time>2013-05-05T19:29:43Z</time>
      </trkpt>
      <trkpt lat="59.4300601768" lon="17.7818467985">
        <ele>0</ele>
        <time>2013-05-05T19:29:45Z</time>
      </trkpt>
      <trkpt lat="59.430322195" lon="17.7818245027">
        <ele>0</ele>
        <time>2013-05-05T19:29:50Z</time>
      </trkpt>
      <trkpt lat="59.430372654" lon="17.7818194736">
        <ele>0</ele>
        <time>2013-05-05T19:29:51Z</time>
      </trkpt>
      <trkpt lat="59.4304219396" lon="17.781810002">
        <ele>0</ele>
        <time>2013-05-05T19:29:52Z</time>
      </trkpt>
      <trkpt lat="59.4304744941" lon="17.7818022907">
        <ele>0</ele>
        <time>2013-05-05T19:29:53Z</time>
      </trkpt>
      <trkpt lat="59.4305291441" lon="17.7817932382">
        <ele>0</ele>
        <time>2013-05-05T19:29:54Z</time>
      </trkpt>
      <trkpt lat="59.4306447305" lon="17.7817730378">
        <ele>0</ele>
        <time>2013-05-05T19:29:56Z</time>
      </trkpt>
      <trkpt lat="59.4307619094" lon="17.7817512449">
        <ele>0</ele>
        <time>2013-05-05T19:29:58Z</time>
      </trkpt>
      <trkpt lat="59.4309411145" lon="17.7817458805">
        <ele>0</ele>
        <time>2013-05-05T19:30:01Z</time>
      </trkpt>
      <trkpt lat="59.4311276117" lon="17.7817895502">
        <ele>0</ele>
        <time>2013-05-05T19:30:04Z</time>
      </trkpt>
      <trkpt lat="59.4315592796" lon="17.7819758798">
        <ele>0</ele>
        <time>2013-05-05T19:30:11Z</time>
      </trkpt>
      <trkpt lat="59.4317588526" lon="17.7820808212">
        <ele>0</ele>
        <time>2013-05-05T19:30:14Z</time>
      </trkpt>
      <trkpt lat="59.4318316913" lon="17.7821546657">
        <ele>0</ele>
        <time>2013-05-05T19:30:15Z</time>
      </trkpt>
      <trkpt lat="59.4319026022" lon="17.7822708389">
        <ele>0</ele>
        <time>2013-05-05T19:30:16Z</time>
      </trkpt>
      <trkpt lat="59.4319715014" lon="17.7824186956">
        <ele>0</ele>
        <time>2013-05-05T19:30:17Z</time>
      </trkpt>
      <trkpt lat="59.4320270734" lon="17.7825972301">
        <ele>0</ele>
        <time>2013-05-05T19:30:18Z</time>
      </trkpt>
      <trkpt lat="59.4320609363" lon="17.7828150756">
        <ele>0</ele>
        <time>2013-05-05T19:30:19Z</time>
      </trkpt>
      <trkpt lat="59.4320978167" lon="17.7830182529">
        <ele>0</ele>
        <time>2013-05-05T19:30:20Z</time>
      </trkpt>
      <trkpt lat="59.4321284106" lon="17.7832284709">
        <ele>0</ele>
        <time>2013-05-05T19:30:21Z</time>
      </trkpt>
      <trkpt lat="59.4321547298" lon="17.7834370964">
        <ele>0</ele>
        <time>2013-05-05T19:30:22Z</time>
      </trkpt>
      <trkpt lat="59.4321779476" lon="17.7836528465">
        <ele>0</ele>
        <time>2013-05-05T19:30:23Z</time>
      </trkpt>
      <trkpt lat="59.4322038477" lon="17.7838732067">
        <ele>0</ele>
        <time>2013-05-05T19:30:24Z</time>
      </trkpt>
      <trkpt lat="59.4322354475" lon="17.7841014458">
        <ele>0</ele>
        <time>2013-05-05T19:30:25Z</time>
      </trkpt>
      <trkpt lat="59.4322789495" lon="17.7843299364">
        <ele>0</ele>
        <time>2013-05-05T19:30:26Z</time>
      </trkpt>
      <trkpt lat="59.4323460885" lon="17.7845587623">
        <ele>0</ele>
        <time>2013-05-05T19:30:27Z</time>
      </trkpt>
      <trkpt lat="59.43241767" lon="17.784757078">
        <ele>0</ele>
        <time>2013-05-05T19:30:28Z</time>
      </trkpt>
      <trkpt lat="59.432494532" lon="17.7849429886">
        <ele>0</ele>
        <time>2013-05-05T19:30:29Z</time>
      </trkpt>
      <trkpt lat="59.4325749982" lon="17.7851070224">
        <ele>0</ele>
        <time>2013-05-05T19:30:30Z</time>
      </trkpt>
      <trkpt lat="59.4326582305" lon="17.7852462457">
        <ele>0</ele>
        <time>2013-05-05T19:30:31Z</time>
      </trkpt>
      <trkpt lat="59.432745067" lon="17.785355881">
        <ele>0</ele>
        <time>2013-05-05T19:30:32Z</time>
      </trkpt>
      <trkpt lat="59.4328357591" lon="17.7854236067">
        <ele>0</ele>
        <time>2013-05-05T19:30:33Z</time>
      </trkpt>
      <trkpt lat="59.432924272" lon="17.7854481657">
        <ele>0</ele>
        <time>2013-05-05T19:30:34Z</time>
      </trkpt>
      <trkpt lat="59.4330107732" lon="17.7854333297">
        <ele>0</ele>
        <time>2013-05-05T19:30:35Z</time>
      </trkpt>
      <trkpt lat="59.4331613121" lon="17.7853319926">
        <ele>0</ele>
        <time>2013-05-05T19:30:37Z</time>
      </trkpt>
      <trkpt lat="59.4333726198" lon="17.7851827947">
        <ele>0</ele>
        <time>2013-05-05T19:30:40Z</time>
      </trkpt>
      <trkpt lat="59.4335120947" lon="17.7851532905">
        <ele>0</ele>
        <time>2013-05-05T19:30:42Z</time>
      </trkpt>
      <trkpt lat="59.4338302716" lon="17.7850638556">
        <ele>0</ele>
        <time>2013-05-05T19:30:47Z</time>
      </trkpt>
      <trkpt lat="59.4338839157" lon="17.7850204373">
        <ele>0</ele>
        <time>2013-05-05T19:30:48Z</time>
      </trkpt>
      <trkpt lat="59.4340433395" lon="17.7848458424">
        <ele>0</ele>
        <time>2013-05-05T19:30:51Z</time>
      </trkpt>
      <trkpt lat="59.4340929603" lon="17.784813153">
        <ele>0</ele>
        <time>2013-05-05T19:30:52Z</time>
      </trkpt>
      <trkpt lat="59.4341353727" lon="17.784794629">
        <ele>0</ele>
        <time>2013-05-05T19:30:53Z</time>
      </trkpt>
      <trkpt lat="59.434172756" lon="17.7847828943">
        <ele>0</ele>
        <time>2013-05-05T19:30:54Z</time>
      </trkpt>
      <trkpt lat="59.4342036014" lon="17.7847706567">
        <ele>0</ele>
        <time>2013-05-05T19:30:55Z</time>
      </trkpt>
      <trkpt lat="59.4342278251" lon="17.7847546473">
        <ele>0</ele>
        <time>2013-05-05T19:30:56Z</time>
      </trkpt>
      <trkpt lat="59.434246852" lon="17.7847321">
        <ele>0</ele>
        <time>2013-05-05T19:30:57Z</time>
      </trkpt>
      <trkpt lat="59.4342564074" lon="17.7847005002">
        <ele>0</ele>
        <time>2013-05-05T19:30:58Z</time>
      </trkpt>
      <trkpt lat="59.4342414038" lon="17.7846369654">
        <ele>0</ele>
        <time>2013-05-05T19:31:00Z</time>
      </trkpt>
      <trkpt lat="59.4341633683" lon="17.784697818">
        <ele>0</ele>
        <time>2013-05-05T19:31:03Z</time>
      </trkpt>
      <trkpt lat="59.4339966523" lon="17.784777949">
        <ele>0</ele>
        <time>2013-05-05T19:31:07Z</time>
      </trkpt>
      <trkpt lat="59.4335946564" lon="17.7849983091">
        <ele>0</ele>
        <time>2013-05-05T19:31:15Z</time>
      </trkpt>
      <trkpt lat="59.4332705283" lon="17.7851725688">
        <ele>0</ele>
        <time>2013-05-05T19:31:21Z</time>
      </trkpt>
      <trkpt lat="59.4331119427" lon="17.7852844672">
        <ele>0</ele>
        <time>2013-05-05T19:31:24Z</time>
      </trkpt>
      <trkpt lat="59.4330046544" lon="17.7853601557">
        <ele>0</ele>
        <time>2013-05-05T19:31:26Z</time>
      </trkpt>
      <trkpt lat="59.4327738169" lon="17.7852862274">
        <ele>0</ele>
        <time>2013-05-05T19:31:30Z</time>
      </trkpt>
      <trkpt lat="59.4326271337" lon="17.7850638556">
        <ele>0</ele>
        <time>2013-05-05T19:31:33Z</time>
      </trkpt>
      <trkpt lat="59.4325345975" lon="17.7848851535">
        <ele>0</ele>
        <time>2013-05-05T19:31:35Z</time>
      </trkpt>
      <trkpt lat="59.4323356112" lon="17.7843489633">
        <ele>0</ele>
        <time>2013-05-05T19:31:40Z</time>
      </trkpt>
      <trkpt lat="59.4323098787" lon="17.7842415912">
        <ele>0</ele>
        <time>2013-05-05T19:31:41Z</time>
      </trkpt>
      <trkpt lat="59.432239387" lon="17.7837634876">
        <ele>0</ele>
        <time>2013-05-05T19:31:46Z</time>
      </trkpt>
      <trkpt lat="59.4322206953" lon="17.7835970231">
        <ele>0</ele>
        <time>2013-05-05T19:31:48Z</time>
      </trkpt>
      <trkpt lat="59.4322121458" lon="17.783515551">
        <ele>0</ele>
        <time>2013-05-05T19:31:49Z</time>
      </trkpt>
      <trkpt lat="59.4322044344" lon="17.7834353362">
        <ele>0</ele>
        <time>2013-05-05T19:31:50Z</time>
      </trkpt>
      <trkpt lat="59.4321973098" lon="17.7833572169">
        <ele>0</ele>
        <time>2013-05-05T19:31:51Z</time>
      </trkpt>
      <trkpt lat="59.4321903528" lon="17.7832764154">
        <ele>0</ele>
        <time>2013-05-05T19:31:52Z</time>
      </trkpt>
      <trkpt lat="59.4321795402" lon="17.7831255412">
        <ele>0</ele>
        <time>2013-05-05T19:31:54Z</time>
      </trkpt>
      <trkpt lat="59.4321729185" lon="17.7830537921">
        <ele>0</ele>
        <time>2013-05-05T19:31:55Z</time>
      </trkpt>
      <trkpt lat="59.4321644528" lon="17.7829835518">
        <ele>0</ele>
        <time>2013-05-05T19:31:56Z</time>
      </trkpt>
      <trkpt lat="59.4321552327" lon="17.7829133953">
        <ele>0</ele>
        <time>2013-05-05T19:31:57Z</time>
      </trkpt>
      <trkpt lat="59.4321468508" lon="17.7828409757">
        <ele>0</ele>
        <time>2013-05-05T19:31:58Z</time>
      </trkpt>
      <trkpt lat="59.4321406482" lon="17.7827621858">
        <ele>0</ele>
        <time>2013-05-05T19:31:59Z</time>
      </trkpt>
      <trkpt lat="59.4321320148" lon="17.7826870002">
        <ele>0</ele>
        <time>2013-05-05T19:32:00Z</time>
      </trkpt>
      <trkpt lat="59.43208977" lon="17.7824639578">
        <ele>0</ele>
        <time>2013-05-05T19:32:03Z</time>
      </trkpt>
      <trkpt lat="59.4320683962" lon="17.7823933822">
        <ele>0</ele>
        <time>2013-05-05T19:32:04Z</time>
      </trkpt>
      <trkpt lat="59.4320455974" lon="17.7823243992">
        <ele>0</ele>
        <time>2013-05-05T19:32:05Z</time>
      </trkpt>
      <trkpt lat="59.4320209546" lon="17.7822598586">
        <ele>0</ele>
        <time>2013-05-05T19:32:06Z</time>
      </trkpt>
      <trkpt lat="59.4319930429" lon="17.7821987545">
        <ele>0</ele>
        <time>2013-05-05T19:32:07Z</time>
      </trkpt>
      <trkpt lat="59.4319010097" lon="17.7820844254">
        <ele>0</ele>
        <time>2013-05-05T19:32:10Z</time>
      </trkpt>
      <trkpt lat="59.4318686555" lon="17.7820571004">
        <ele>0</ele>
        <time>2013-05-05T19:32:11Z</time>
      </trkpt>
      <trkpt lat="59.4318376425" lon="17.7820379059">
        <ele>0</ele>
        <time>2013-05-05T19:32:12Z</time>
      </trkpt>
      <trkpt lat="59.4318068809" lon="17.7820241595">
        <ele>0</ele>
        <time>2013-05-05T19:32:13Z</time>
      </trkpt>
      <trkpt lat="59.4317098185" lon="17.781981831">
        <ele>0</ele>
        <time>2013-05-05T19:32:16Z</time>
      </trkpt>
      <trkpt lat="59.4316784702" lon="17.7819731976">
        <ele>0</ele>
        <time>2013-05-05T19:32:17Z</time>
      </trkpt>
      <trkpt lat="59.4316458646" lon="17.7819652348">
        <ele>0</ele>
        <time>2013-05-05T19:32:18Z</time>
      </trkpt>
      <trkpt lat="59.4316127561" lon="17.7819553441">
        <ele>0</ele>
        <time>2013-05-05T19:32:19Z</time>
      </trkpt>
      <trkpt lat="59.4315804858" lon="17.7819372392">
        <ele>0</ele>
        <time>2013-05-05T19:32:20Z</time>
      </trkpt>
      <trkpt lat="59.4315142688" lon="17.7818965032">
        <ele>0</ele>
        <time>2013-05-05T19:32:22Z</time>
      </trkpt>
      <trkpt lat="59.4314803221" lon="17.7818787336">
        <ele>0</ele>
        <time>2013-05-05T19:32:23Z</time>
      </trkpt>
      <trkpt lat="59.4314464592" lon="17.7818603772">
        <ele>0</ele>
        <time>2013-05-05T19:32:24Z</time>
      </trkpt>
      <trkpt lat="59.4314134345" lon="17.7818457089">
        <ele>0</ele>
        <time>2013-05-05T19:32:25Z</time>
      </trkpt>
      <trkpt lat="59.4313799069" lon="17.7818281069">
        <ele>0</ele>
        <time>2013-05-05T19:32:26Z</time>
      </trkpt>
      <trkpt lat="59.4313126841" lon="17.7817939926">
        <ele>0</ele>
        <time>2013-05-05T19:32:28Z</time>
      </trkpt>
      <trkpt lat="59.4312760552" lon="17.7817776479">
        <ele>0</ele>
        <time>2013-05-05T19:32:29Z</time>
      </trkpt>
      <trkpt lat="59.431236325" lon="17.7817515802">
        <ele>0</ele>
        <time>2013-05-05T19:32:30Z</time>
      </trkpt>
      <trkpt lat="59.4311982712" lon="17.7817260154">
        <ele>0</ele>
        <time>2013-05-05T19:32:31Z</time>
      </trkpt>
      <trkpt lat="59.4311587086" lon="17.7817096707">
        <ele>0</ele>
        <time>2013-05-05T19:32:32Z</time>
      </trkpt>
      <trkpt lat="59.4310743867" lon="17.7816887159">
        <ele>0</ele>
        <time>2013-05-05T19:32:34Z</time>
      </trkpt>
      <trkpt lat="59.4309828563" lon="17.7816958405">
        <ele>0</ele>
        <time>2013-05-05T19:32:36Z</time>
      </trkpt>
      <trkpt lat="59.430928374" lon="17.7816955052">
        <ele>0</ele>
        <time>2013-05-05T19:32:37Z</time>
      </trkpt>
      <trkpt lat="59.4307164795" lon="17.7816867881">
        <ele>0</ele>
        <time>2013-05-05T19:32:41Z</time>
      </trkpt>
      <trkpt lat="59.430335606" lon="17.7817275241">
        <ele>0</ele>
        <time>2013-05-05T19:32:48Z</time>
      </trkpt>
      <trkpt lat="59.4299347836" lon="17.7817916456">
        <ele>0</ele>
        <time>2013-05-05T19:32:54Z</time>
      </trkpt>
      <trkpt lat="59.4294923031" lon="17.7818284422">
        <ele>0</ele>
        <time>2013-05-05T19:33:00Z</time>
      </trkpt>
      <trkpt lat="59.4294161116" lon="17.7818398416">
        <ele>0</ele>
        <time>2013-05-05T19:33:01Z</time>
      </trkpt>
      <trkpt lat="59.4293406745" lon="17.7818488102">
        <ele>0</ele>
        <time>2013-05-05T19:33:02Z</time>
      </trkpt>
      <trkpt lat="59.4292638963" lon="17.7818572759">
        <ele>0</ele>
        <time>2013-05-05T19:33:03Z</time>
      </trkpt>
      <trkpt lat="59.4288734674" lon="17.7819108363">
        <ele>0</ele>
        <time>2013-05-05T19:33:08Z</time>
      </trkpt>
      <trkpt lat="59.428707841" lon="17.781932713">
        <ele>0</ele>
        <time>2013-05-05T19:33:10Z</time>
      </trkpt>
      <trkpt lat="59.4286209207" lon="17.7819425198">
        <ele>0</ele>
        <time>2013-05-05T19:33:11Z</time>
      </trkpt>
      <trkpt lat="59.4285340842" lon="17.7819529972">
        <ele>0</ele>
        <time>2013-05-05T19:33:12Z</time>
      </trkpt>
      <trkpt lat="59.4284452361" lon="17.7819612953">
        <ele>0</ele>
        <time>2013-05-05T19:33:13Z</time>
      </trkpt>
      <trkpt lat="59.4283562203" lon="17.7819695934">
        <ele>0</ele>
        <time>2013-05-05T19:33:14Z</time>
      </trkpt>
      <trkpt lat="59.428263768" lon="17.7819802384">
        <ele>0</ele>
        <time>2013-05-05T19:33:15Z</time>
      </trkpt>
      <trkpt lat="59.4277746003" lon="17.7820443599">
        <ele>0</ele>
        <time>2013-05-05T19:33:21Z</time>
      </trkpt>
      <trkpt lat="59.4276980735" lon="17.7820555917">
        <ele>0</ele>
        <time>2013-05-05T19:33:22Z</time>
      </trkpt>
      <trkpt lat="59.4276192837" lon="17.7820679131">
        <ele>0</ele>
        <time>2013-05-05T19:33:23Z</time>
      </trkpt>
      <trkpt lat="59.4275434275" lon="17.7820816594">
        <ele>0</ele>
        <time>2013-05-05T19:33:24Z</time>
      </trkpt>
      <trkpt lat="59.4274689124" lon="17.7820907118">
        <ele>0</ele>
        <time>2013-05-05T19:33:25Z</time>
      </trkpt>
      <trkpt lat="59.4271971712" lon="17.7821135944">
        <ele>0</ele>
        <time>2013-05-05T19:33:29Z</time>
      </trkpt>
      <trkpt lat="59.4269036371" lon="17.7821623771">
        <ele>0</ele>
        <time>2013-05-05T19:33:34Z</time>
      </trkpt>
      <trkpt lat="59.4268475621" lon="17.7821721839">
        <ele>0</ele>
        <time>2013-05-05T19:33:35Z</time>
      </trkpt>
      <trkpt lat="59.4267917387" lon="17.7821831642">
        <ele>0</ele>
        <time>2013-05-05T19:33:36Z</time>
      </trkpt>
      <trkpt lat="59.426741112" lon="17.7821898697">
        <ele>0</ele>
        <time>2013-05-05T19:33:37Z</time>
      </trkpt>
      <trkpt lat="59.426689731" lon="17.7821966591">
        <ele>0</ele>
        <time>2013-05-05T19:33:38Z</time>
      </trkpt>
      <trkpt lat="59.4264977016" lon="17.7822310248">
        <ele>0</ele>
        <time>2013-05-05T19:33:42Z</time>
      </trkpt>
      <trkpt lat="59.4263585621" lon="17.7822420051">
        <ele>0</ele>
        <time>2013-05-05T19:33:45Z</time>
      </trkpt>
      <trkpt lat="59.426312294" lon="17.7822434301">
        <ele>0</ele>
        <time>2013-05-05T19:33:46Z</time>
      </trkpt>
      <trkpt lat="59.4262672832" lon="17.782249465">
        <ele>0</ele>
        <time>2013-05-05T19:33:47Z</time>
      </trkpt>
      <trkpt lat="59.4262195064" lon="17.7822544103">
        <ele>0</ele>
        <time>2013-05-05T19:33:48Z</time>
      </trkpt>
      <trkpt lat="59.4261718134" lon="17.7822565896">
        <ele>0</ele>
        <time>2013-05-05T19:33:49Z</time>
      </trkpt>
      <trkpt lat="59.4259122259" lon="17.7823010137">
        <ele>0</ele>
        <time>2013-05-05T19:33:55Z</time>
      </trkpt>
      <trkpt lat="59.4257424086" lon="17.7823137542">
        <ele>0</ele>
        <time>2013-05-05T19:33:59Z</time>
      </trkpt>
      <trkpt lat="59.4257002477" lon="17.7823181128">
        <ele>0</ele>
        <time>2013-05-05T19:34:00Z</time>
      </trkpt>
      <trkpt lat="59.4256567456" lon="17.782327752">
        <ele>0</ele>
        <time>2013-05-05T19:34:01Z</time>
      </trkpt>
      <trkpt lat="59.4256147523" lon="17.7823355471">
        <ele>0</ele>
        <time>2013-05-05T19:34:02Z</time>
      </trkpt>
      <trkpt lat="59.4255737648" lon="17.7823443481">
        <ele>0</ele>
        <time>2013-05-05T19:34:03Z</time>
      </trkpt>
      <trkpt lat="59.4255348728" lon="17.7823557475">
        <ele>0</ele>
        <time>2013-05-05T19:34:04Z</time>
      </trkpt>
      <trkpt lat="59.4253479564" lon="17.7825006706">
        <ele>0</ele>
        <time>2013-05-05T19:34:10Z</time>
      </trkpt>
      <trkpt lat="59.4253202123" lon="17.7825402331">
        <ele>0</ele>
        <time>2013-05-05T19:34:11Z</time>
      </trkpt>
      <trkpt lat="59.4252906242" lon="17.7825812206">
        <ele>0</ele>
        <time>2013-05-05T19:34:12Z</time>
      </trkpt>
      <trkpt lat="59.4252595274" lon="17.7826233816">
        <ele>0</ele>
        <time>2013-05-05T19:34:13Z</time>
      </trkpt>
      <trkpt lat="59.4252302745" lon="17.7826691468">
        <ele>0</ele>
        <time>2013-05-05T19:34:14Z</time>
      </trkpt>
      <trkpt lat="59.4251639737" lon="17.7827600904">
        <ele>0</ele>
        <time>2013-05-05T19:34:16Z</time>
      </trkpt>
      <trkpt lat="59.4251315358" lon="17.7828030895">
        <ele>0</ele>
        <time>2013-05-05T19:34:17Z</time>
      </trkpt>
      <trkpt lat="59.4250980082" lon="17.7828462563">
        <ele>0</ele>
        <time>2013-05-05T19:34:18Z</time>
      </trkpt>
      <trkpt lat="59.4250645644" lon="17.7828893393">
        <ele>0</ele>
        <time>2013-05-05T19:34:19Z</time>
      </trkpt>
      <trkpt lat="59.4250307853" lon="17.7829345177">
        <ele>0</ele>
        <time>2013-05-05T19:34:20Z</time>
      </trkpt>
      <trkpt lat="59.4249575275" lon="17.783041806">
        <ele>0</ele>
        <time>2013-05-05T19:34:22Z</time>
      </trkpt>
      <trkpt lat="59.4249214015" lon="17.7831039997">
        <ele>0</ele>
        <time>2013-05-05T19:34:23Z</time>
      </trkpt>
      <trkpt lat="59.4248898856" lon="17.7831629245">
        <ele>0</ele>
        <time>2013-05-05T19:34:24Z</time>
      </trkpt>
      <trkpt lat="59.4248625606" lon="17.7832246153">
        <ele>0</ele>
        <time>2013-05-05T19:34:25Z</time>
      </trkpt>
      <trkpt lat="59.4248341459" lon="17.7832822827">
        <ele>0</ele>
        <time>2013-05-05T19:34:26Z</time>
      </trkpt>
      <trkpt lat="59.4247991934" lon="17.7833331609">
        <ele>0</ele>
        <time>2013-05-05T19:34:27Z</time>
      </trkpt>
      <trkpt lat="59.4247585412" lon="17.7833799319">
        <ele>0</ele>
        <time>2013-05-05T19:34:28Z</time>
      </trkpt>
      <trkpt lat="59.4246836908" lon="17.7834899862">
        <ele>0</ele>
        <time>2013-05-05T19:34:30Z</time>
      </trkpt>
      <trkpt lat="59.4245800067" lon="17.7836857874">
        <ele>0</ele>
        <time>2013-05-05T19:34:33Z</time>
      </trkpt>
      <trkpt lat="59.4245392707" lon="17.7837470591">
        <ele>0</ele>
        <time>2013-05-05T19:34:34Z</time>
      </trkpt>
      <trkpt lat="59.4243472414" lon="17.7839669163">
        <ele>0</ele>
        <time>2013-05-05T19:34:38Z</time>
      </trkpt>
      <trkpt lat="59.4239621769" lon="17.7843285115">
        <ele>0</ele>
        <time>2013-05-05T19:34:45Z</time>
      </trkpt>
      <trkpt lat="59.423807447" lon="17.7844526474">
        <ele>0</ele>
        <time>2013-05-05T19:34:48Z</time>
      </trkpt>
      <trkpt lat="59.4237153299" lon="17.7845658869">
        <ele>0</ele>
        <time>2013-05-05T19:34:50Z</time>
      </trkpt>
      <trkpt lat="59.4236755159" lon="17.7846416593">
        <ele>0</ele>
        <time>2013-05-05T19:34:51Z</time>
      </trkpt>
      <trkpt lat="59.4236158368" lon="17.7849620993">
        <ele>0</ele>
        <time>2013-05-05T19:34:54Z</time>
      </trkpt>
      <trkpt lat="59.423678701" lon="17.7853226887">
        <ele>0</ele>
        <time>2013-05-05T19:34:57Z</time>
      </trkpt>
      <trkpt lat="59.4239319182" lon="17.7862595336">
        <ele>0</ele>
        <time>2013-05-05T19:35:04Z</time>
      </trkpt>
      <trkpt lat="59.4240089479" lon="17.7865605276">
        <ele>0</ele>
        <time>2013-05-05T19:35:06Z</time>
      </trkpt>
      <trkpt lat="59.4240526176" lon="17.7867083005">
        <ele>0</ele>
        <time>2013-05-05T19:35:07Z</time>
      </trkpt>
      <trkpt lat="59.424099221" lon="17.7868563249">
        <ele>0</ele>
        <time>2013-05-05T19:35:08Z</time>
      </trkpt>
      <trkpt lat="59.4241497638" lon="17.7870160839">
        <ele>0</ele>
        <time>2013-05-05T19:35:09Z</time>
      </trkpt>
      <trkpt lat="59.4241995523" lon="17.787169808">
        <ele>0</ele>
        <time>2013-05-05T19:35:10Z</time>
      </trkpt>
      <trkpt lat="59.4244171464" lon="17.7877949301">
        <ele>0</ele>
        <time>2013-05-05T19:35:14Z</time>
      </trkpt>
      <trkpt lat="59.4244836987" lon="17.7879505819">
        <ele>0</ele>
        <time>2013-05-05T19:35:15Z</time>
      </trkpt>
      <trkpt lat="59.4245538552" lon="17.7881097542">
        <ele>0</ele>
        <time>2013-05-05T19:35:16Z</time>
      </trkpt>
      <trkpt lat="59.4246336509" lon="17.7882944075">
        <ele>0</ele>
        <time>2013-05-05T19:35:17Z</time>
      </trkpt>
      <trkpt lat="59.4247203197" lon="17.7884798151">
        <ele>0</ele>
        <time>2013-05-05T19:35:18Z</time>
      </trkpt>
      <trkpt lat="59.4248120177" lon="17.7886723474">
        <ele>0</ele>
        <time>2013-05-05T19:35:19Z</time>
      </trkpt>
      <trkpt lat="59.4249120138" lon="17.788866556">
        <ele>0</ele>
        <time>2013-05-05T19:35:20Z</time>
      </trkpt>
      <trkpt lat="59.4250187992" lon="17.7890587529">
        <ele>0</ele>
        <time>2013-05-05T19:35:21Z</time>
      </trkpt>
      <trkpt lat="59.4251270095" lon="17.7892460884">
        <ele>0</ele>
        <time>2013-05-05T19:35:22Z</time>
      </trkpt>
      <trkpt lat="59.4252386564" lon="17.7894323342">
        <ele>0</ele>
        <time>2013-05-05T19:35:23Z</time>
      </trkpt>
      <trkpt lat="59.4253551648" lon="17.7896152273">
        <ele>0</ele>
        <time>2013-05-05T19:35:24Z</time>
      </trkpt>
      <trkpt lat="59.4254777082" lon="17.7898106932">
        <ele>0</ele>
        <time>2013-05-05T19:35:25Z</time>
      </trkpt>
      <trkpt lat="59.4255929594" lon="17.7900012976">
        <ele>0</ele>
        <time>2013-05-05T19:35:26Z</time>
      </trkpt>
      <trkpt lat="59.4257084619" lon="17.7901896389">
        <ele>0</ele>
        <time>2013-05-05T19:35:27Z</time>
      </trkpt>
      <trkpt lat="59.4258245512" lon="17.7903809977">
        <ele>0</ele>
        <time>2013-05-05T19:35:28Z</time>
      </trkpt>
      <trkpt lat="59.425934438" lon="17.7905689199">
        <ele>0</ele>
        <time>2013-05-05T19:35:29Z</time>
      </trkpt>
      <trkpt lat="59.4260375353" lon="17.7907614521">
        <ele>0</ele>
        <time>2013-05-05T19:35:30Z</time>
      </trkpt>
      <trkpt lat="59.4261335081" lon="17.7909612766">
        <ele>0</ele>
        <time>2013-05-05T19:35:31Z</time>
      </trkpt>
      <trkpt lat="59.4262195902" lon="17.7911662141">
        <ele>0</ele>
        <time>2013-05-05T19:35:32Z</time>
      </trkpt>
      <trkpt lat="59.4262957817" lon="17.7913776056">
        <ele>0</ele>
        <time>2013-05-05T19:35:33Z</time>
      </trkpt>
      <trkpt lat="59.4263617472" lon="17.7915912602">
        <ele>0</ele>
        <time>2013-05-05T19:35:34Z</time>
      </trkpt>
      <trkpt lat="59.4264174869" lon="17.7918111174">
        <ele>0</ele>
        <time>2013-05-05T19:35:35Z</time>
      </trkpt>
      <trkpt lat="59.4264658504" lon="17.7920231795">
        <ele>0</ele>
        <time>2013-05-05T19:35:36Z</time>
      </trkpt>
      <trkpt lat="59.4265077599" lon="17.7922302124">
        <ele>0</ele>
        <time>2013-05-05T19:35:37Z</time>
      </trkpt>
      <trkpt lat="59.4265712947" lon="17.7926317893">
        <ele>0</ele>
        <time>2013-05-05T19:35:39Z</time>
      </trkpt>
      <trkpt lat="59.426642038" lon="17.7933878367">
        <ele>0</ele>
        <time>2013-05-05T19:35:43Z</time>
      </trkpt>
      <trkpt lat="59.426652683" lon="17.7935663711">
        <ele>0</ele>
        <time>2013-05-05T19:35:44Z</time>
      </trkpt>
      <trkpt lat="59.4266585503" lon="17.7937416367">
        <ele>0</ele>
        <time>2013-05-05T19:35:45Z</time>
      </trkpt>
      <trkpt lat="59.4266639985" lon="17.793910951">
        <ele>0</ele>
        <time>2013-05-05T19:35:46Z</time>
      </trkpt>
      <trkpt lat="59.4266674351" lon="17.7940782538">
        <ele>0</ele>
        <time>2013-05-05T19:35:47Z</time>
      </trkpt>
      <trkpt lat="59.4266655073" lon="17.794246227">
        <ele>0</ele>
        <time>2013-05-05T19:35:48Z</time>
      </trkpt>
      <trkpt lat="59.4266383499" lon="17.7951554955">
        <ele>0</ele>
        <time>2013-05-05T19:35:54Z</time>
      </trkpt>
      <trkpt lat="59.4266118631" lon="17.7954160888">
        <ele>0</ele>
        <time>2013-05-05T19:35:56Z</time>
      </trkpt>
      <trkpt lat="59.4265954346" lon="17.7955354471">
        <ele>0</ele>
        <time>2013-05-05T19:35:57Z</time>
      </trkpt>
      <trkpt lat="59.4265811854" lon="17.7956495247">
        <ele>0</ele>
        <time>2013-05-05T19:35:58Z</time>
      </trkpt>
      <trkpt lat="59.4265683611" lon="17.7957613393">
        <ele>0</ele>
        <time>2013-05-05T19:35:59Z</time>
      </trkpt>
      <trkpt lat="59.4265550338" lon="17.7958709745">
        <ele>0</ele>
        <time>2013-05-05T19:36:00Z</time>
      </trkpt>
      <trkpt lat="59.4265214224" lon="17.7960827851">
        <ele>0</ele>
        <time>2013-05-05T19:36:02Z</time>
      </trkpt>
      <trkpt lat="59.4265049939" lon="17.7961836194">
        <ele>0</ele>
        <time>2013-05-05T19:36:03Z</time>
      </trkpt>
      <trkpt lat="59.4264899065" lon="17.7962818553">
        <ele>0</ele>
        <time>2013-05-05T19:36:04Z</time>
      </trkpt>
      <trkpt lat="59.426475322" lon="17.7963745591">
        <ele>0</ele>
        <time>2013-05-05T19:36:05Z</time>
      </trkpt>
      <trkpt lat="59.4264610727" lon="17.7964681011">
        <ele>0</ele>
        <time>2013-05-05T19:36:06Z</time>
      </trkpt>
      <trkpt lat="59.4264319875" lon="17.7966530058">
        <ele>0</ele>
        <time>2013-05-05T19:36:08Z</time>
      </trkpt>
      <trkpt lat="59.426415559" lon="17.7967480565">
        <ele>0</ele>
        <time>2013-05-05T19:36:09Z</time>
      </trkpt>
      <trkpt lat="59.4264005554" lon="17.7968452028">
        <ele>0</ele>
        <time>2013-05-05T19:36:10Z</time>
      </trkpt>
      <trkpt lat="59.4263820314" lon="17.796935392">
        <ele>0</ele>
        <time>2013-05-05T19:36:11Z</time>
      </trkpt>
      <trkpt lat="59.426361831" lon="17.79702709">
        <ele>0</ele>
        <time>2013-05-05T19:36:12Z</time>
      </trkpt>
      <trkpt lat="59.426339619" lon="17.7971180336">
        <ele>0</ele>
        <time>2013-05-05T19:36:13Z</time>
      </trkpt>
      <trkpt lat="59.4262915907" lon="17.7972963166">
        <ele>0</ele>
        <time>2013-05-05T19:36:15Z</time>
      </trkpt>
      <trkpt lat="59.4262666965" lon="17.7973837398">
        <ele>0</ele>
        <time>2013-05-05T19:36:16Z</time>
      </trkpt>
      <trkpt lat="59.4262397906" lon="17.7974714145">
        <ele>0</ele>
        <time>2013-05-05T19:36:17Z</time>
      </trkpt>
      <trkpt lat="59.4262116274" lon="17.7975631963">
        <ele>0</ele>
        <time>2013-05-05T19:36:18Z</time>
      </trkpt>
      <trkpt lat="59.4261857273" lon="17.7976492784">
        <ele>0</ele>
        <time>2013-05-05T19:36:19Z</time>
      </trkpt>
      <trkpt lat="59.4261599111" lon="17.7977361987">
        <ele>0</ele>
        <time>2013-05-05T19:36:20Z</time>
      </trkpt>
      <trkpt lat="59.4261062669" lon="17.7979046749">
        <ele>0</ele>
        <time>2013-05-05T19:36:22Z</time>
      </trkpt>
      <trkpt lat="59.4260469231" lon="17.7980655236">
        <ele>0</ele>
        <time>2013-05-05T19:36:24Z</time>
      </trkpt>
      <trkpt lat="59.4260162453" lon="17.7981463251">
        <ele>0</ele>
        <time>2013-05-05T19:36:25Z</time>
      </trkpt>
      <trkpt lat="59.4259840588" lon="17.7982317367">
        <ele>0</ele>
        <time>2013-05-05T19:36:26Z</time>
      </trkpt>
      <trkpt lat="59.4259545545" lon="17.7983130411">
        <ele>0</ele>
        <time>2013-05-05T19:36:27Z</time>
      </trkpt>
      <trkpt lat="59.4259240444" lon="17.7984011349">
        <ele>0</ele>
        <time>2013-05-05T19:36:28Z</time>
      </trkpt>
      <trkpt lat="59.4258896786" lon="17.7984864626">
        <ele>0</ele>
        <time>2013-05-05T19:36:29Z</time>
      </trkpt>
      <trkpt lat="59.4256998286" lon="17.7989079884">
        <ele>0</ele>
        <time>2013-05-05T19:36:34Z</time>
      </trkpt>
      <trkpt lat="59.4254174424" lon="17.7994185299">
        <ele>0</ele>
        <time>2013-05-05T19:36:40Z</time>
      </trkpt>
      <trkpt lat="59.4249956652" lon="17.8000900039">
        <ele>0</ele>
        <time>2013-05-05T19:36:48Z</time>
      </trkpt>
      <trkpt lat="59.4245984469" lon="17.8006829395">
        <ele>0</ele>
        <time>2013-05-05T19:36:55Z</time>
      </trkpt>
      <trkpt lat="59.4241507696" lon="17.8014193732">
        <ele>0</ele>
        <time>2013-05-05T19:37:03Z</time>
      </trkpt>
      <trkpt lat="59.4240433975" lon="17.8016040265">
        <ele>0</ele>
        <time>2013-05-05T19:37:05Z</time>
      </trkpt>
      <trkpt lat="59.423706948" lon="17.8023133029">
        <ele>0</ele>
        <time>2013-05-05T19:37:12Z</time>
      </trkpt>
      <trkpt lat="59.423419868" lon="17.8030862817">
        <ele>0</ele>
        <time>2013-05-05T19:37:19Z</time>
      </trkpt>
      <trkpt lat="59.4231365597" lon="17.8039447559">
        <ele>0</ele>
        <time>2013-05-05T19:37:26Z</time>
      </trkpt>
      <trkpt lat="59.422982249" lon="17.8039843185">
        <ele>0</ele>
        <time>2013-05-05T19:37:28Z</time>
      </trkpt>
      <trkpt lat="59.4228427741" lon="17.8038513815">
        <ele>0</ele>
        <time>2013-05-05T19:37:30Z</time>
      </trkpt>
      <trkpt lat="59.4227808319" lon="17.8037741004">
        <ele>0</ele>
        <time>2013-05-05T19:37:31Z</time>
      </trkpt>
      <trkpt lat="59.4225549397" lon="17.8034285985">
        <ele>0</ele>
        <time>2013-05-05T19:37:35Z</time>
      </trkpt>
      <trkpt lat="59.4225043968" lon="17.8033393312">
        <ele>0</ele>
        <time>2013-05-05T19:37:36Z</time>
      </trkpt>
      <trkpt lat="59.4222768283" lon="17.8028049851">
        <ele>0</ele>
        <time>2013-05-05T19:37:41Z</time>
      </trkpt>
      <trkpt lat="59.4220656882" lon="17.802043741">
        <ele>0</ele>
        <time>2013-05-05T19:37:47Z</time>
      </trkpt>
      <trkpt lat="59.4218672048" lon="17.8011637253">
        <ele>0</ele>
        <time>2013-05-05T19:37:54Z</time>
      </trkpt>
      <trkpt lat="59.4216387142" lon="17.8002083563">
        <ele>0</ele>
        <time>2013-05-05T19:38:02Z</time>
      </trkpt>
      <trkpt lat="59.4214435836" lon="17.7993799731">
        <ele>0</ele>
        <time>2013-05-05T19:38:09Z</time>
      </trkpt>
      <trkpt lat="59.4212808909" lon="17.7986920706">
        <ele>0</ele>
        <time>2013-05-05T19:38:15Z</time>
      </trkpt>
      <trkpt lat="59.4210959862" lon="17.7978602509">
        <ele>0</ele>
        <time>2013-05-05T19:38:22Z</time>
      </trkpt>
      <trkpt lat="59.4209639713" lon="17.7968597873">
        <ele>0</ele>
        <time>2013-05-05T19:38:30Z</time>
      </trkpt>
      <trkpt lat="59.4209314495" lon="17.796027297">
        <ele>0</ele>
        <time>2013-05-05T19:38:37Z</time>
      </trkpt>
      <trkpt lat="59.4209000174" lon="17.7952894383">
        <ele>0</ele>
        <time>2013-05-05T19:38:44Z</time>
      </trkpt>
      <trkpt lat="59.4208778891" lon="17.7947799864">
        <ele>0</ele>
        <time>2013-05-05T19:38:50Z</time>
      </trkpt>
      <trkpt lat="59.4208619635" lon="17.7945322175">
        <ele>0</ele>
        <time>2013-05-05T19:38:53Z</time>
      </trkpt>
      <trkpt lat="59.4208602033" lon="17.7944543496">
        <ele>0</ele>
        <time>2013-05-05T19:38:54Z</time>
      </trkpt>
      <trkpt lat="59.4208584431" lon="17.7943744701">
        <ele>0</ele>
        <time>2013-05-05T19:38:55Z</time>
      </trkpt>
      <trkpt lat="59.4208558447" lon="17.794295345">
        <ele>0</ele>
        <time>2013-05-05T19:38:56Z</time>
      </trkpt>
      <trkpt lat="59.4208514023" lon="17.7942196564">
        <ele>0</ele>
        <time>2013-05-05T19:38:57Z</time>
      </trkpt>
      <trkpt lat="59.4208441939" lon="17.7940640045">
        <ele>0</ele>
        <time>2013-05-05T19:38:59Z</time>
      </trkpt>
      <trkpt lat="59.4208403382" lon="17.7939836221">
        <ele>0</ele>
        <time>2013-05-05T19:39:00Z</time>
      </trkpt>
      <trkpt lat="59.4208392486" lon="17.7938989649">
        <ele>0</ele>
        <time>2013-05-05T19:39:01Z</time>
      </trkpt>
      <trkpt lat="59.4208388295" lon="17.793815565">
        <ele>0</ele>
        <time>2013-05-05T19:39:02Z</time>
      </trkpt>
      <trkpt lat="59.4208363987" lon="17.793727136">
        <ele>0</ele>
        <time>2013-05-05T19:39:03Z</time>
      </trkpt>
      <trkpt lat="59.4208318725" lon="17.7936395451">
        <ele>0</ele>
        <time>2013-05-05T19:39:04Z</time>
      </trkpt>
      <trkpt lat="59.4208272625" lon="17.7935514513">
        <ele>0</ele>
        <time>2013-05-05T19:39:05Z</time>
      </trkpt>
      <trkpt lat="59.420821479" lon="17.7934621003">
        <ele>0</ele>
        <time>2013-05-05T19:39:06Z</time>
      </trkpt>
      <trkpt lat="59.4208166175" lon="17.7933776107">
        <ele>0</ele>
        <time>2013-05-05T19:39:07Z</time>
      </trkpt>
      <trkpt lat="59.4208115883" lon="17.7932939594">
        <ele>0</ele>
        <time>2013-05-05T19:39:08Z</time>
      </trkpt>
      <trkpt lat="59.4208074812" lon="17.7931242259">
        <ele>0</ele>
        <time>2013-05-05T19:39:10Z</time>
      </trkpt>
      <trkpt lat="59.4208045475" lon="17.7930361321">
        <ele>0</ele>
        <time>2013-05-05T19:39:11Z</time>
      </trkpt>
      <trkpt lat="59.4207990155" lon="17.792948206">
        <ele>0.4</ele>
        <time>2013-05-05T19:39:12Z</time>
      </trkpt>
      <trkpt lat="59.4207939025" lon="17.7928562566">
        <ele>0.8</ele>
        <time>2013-05-05T19:39:13Z</time>
      </trkpt>
      <trkpt lat="59.4207828384" lon="17.7925914723">
        <ele>1.2</ele>
        <time>2013-05-05T19:39:16Z</time>
      </trkpt>
      <trkpt lat="59.4207777254" lon="17.7925048873">
        <ele>1.6</ele>
        <time>2013-05-05T19:39:17Z</time>
      </trkpt>
      <trkpt lat="59.4207725287" lon="17.7924234991">
        <ele>2</ele>
        <time>2013-05-05T19:39:18Z</time>
      </trkpt>
      <trkpt lat="59.420766829" lon="17.7923454636">
        <ele>2.6</ele>
        <time>2013-05-05T19:39:19Z</time>
      </trkpt>
      <trkpt lat="59.4207601235" lon="17.7922664223">
        <ele>3</ele>
        <time>2013-05-05T19:39:20Z</time>
      </trkpt>
      <trkpt lat="59.4207402583" lon="17.7920979461">
        <ele>3.4</ele>
        <time>2013-05-05T19:39:22Z</time>
      </trkpt>
      <trkpt lat="59.4207318764" lon="17.7920231795">
        <ele>3.8</ele>
        <time>2013-05-05T19:39:23Z</time>
      </trkpt>
      <trkpt lat="59.4207250871" lon="17.7919510114">
        <ele>4.2</ele>
        <time>2013-05-05T19:39:24Z</time>
      </trkpt>
      <trkpt lat="59.4207176272" lon="17.7918821121">
        <ele>4.8</ele>
        <time>2013-05-05T19:39:25Z</time>
      </trkpt>
      <trkpt lat="59.4207092453" lon="17.79181271">
        <ele>5.2</ele>
        <time>2013-05-05T19:39:26Z</time>
      </trkpt>
      <trkpt lat="59.4206426092" lon="17.7913756777">
        <ele>5.6</ele>
        <time>2013-05-05T19:39:32Z</time>
      </trkpt>
      <trkpt lat="59.4206304555" lon="17.7913004921">
        <ele>6</ele>
        <time>2013-05-05T19:39:33Z</time>
      </trkpt>
      <trkpt lat="59.4206190561" lon="17.7912235463">
        <ele>6.4</ele>
        <time>2013-05-05T19:39:34Z</time>
      </trkpt>
      <trkpt lat="59.4206069023" lon="17.7911470195">
        <ele>6.8</ele>
        <time>2013-05-05T19:39:35Z</time>
      </trkpt>
      <trkpt lat="59.4205933236" lon="17.7910642063">
        <ele>7.4</ele>
        <time>2013-05-05T19:39:36Z</time>
      </trkpt>
      <trkpt lat="59.4205747996" lon="17.7909819799">
        <ele>7.8</ele>
        <time>2013-05-05T19:39:37Z</time>
      </trkpt>
      <trkpt lat="59.4205562756" lon="17.7909067943">
        <ele>8.2</ele>
        <time>2013-05-05T19:39:38Z</time>
      </trkpt>
      <trkpt lat="59.4205400148" lon="17.7908306028">
        <ele>8.6</ele>
        <time>2013-05-05T19:39:39Z</time>
      </trkpt>
      <trkpt lat="59.4205221613" lon="17.7907501365">
        <ele>9</ele>
        <time>2013-05-05T19:39:40Z</time>
      </trkpt>
      <trkpt lat="59.4205044755" lon="17.7906708438">
        <ele>9.4</ele>
        <time>2013-05-05T19:39:41Z</time>
      </trkpt>
      <trkpt lat="59.420406994" lon="17.7902388406">
        <ele>9.4</ele>
        <time>2013-05-05T19:39:46Z</time>
      </trkpt>
      <trkpt lat="59.4203909008" lon="17.790148819">
        <ele>9.4</ele>
        <time>2013-05-05T19:39:47Z</time>
      </trkpt>
      <trkpt lat="59.4203181459" lon="17.7897717174">
        <ele>9.8</ele>
        <time>2013-05-05T19:39:51Z</time>
      </trkpt>
      <trkpt lat="59.4202969397" lon="17.7896662731">
        <ele>10.2</ele>
        <time>2013-05-05T19:39:52Z</time>
      </trkpt>
      <trkpt lat="59.4202759011" lon="17.7895650197">
        <ele>10.6</ele>
        <time>2013-05-05T19:39:53Z</time>
      </trkpt>
      <trkpt lat="59.4202537729" lon="17.7894619223">
        <ele>11</ele>
        <time>2013-05-05T19:39:54Z</time>
      </trkpt>
      <trkpt lat="59.4202303874" lon="17.7893598308">
        <ele>11.6</ele>
        <time>2013-05-05T19:39:55Z</time>
      </trkpt>
      <trkpt lat="59.4201006356" lon="17.7887234769">
        <ele>11.6</ele>
        <time>2013-05-05T19:40:01Z</time>
      </trkpt>
      <trkpt lat="59.4199113723" lon="17.7877980314">
        <ele>11.6</ele>
        <time>2013-05-05T19:40:10Z</time>
      </trkpt>
      <trkpt lat="59.4196980529" lon="17.786779882">
        <ele>11.6</ele>
        <time>2013-05-05T19:40:19Z</time>
      </trkpt>
      <trkpt lat="59.419526643" lon="17.7859174683">
        <ele>11.6</ele>
        <time>2013-05-05T19:40:26Z</time>
      </trkpt>
      <trkpt lat="59.4195066103" lon="17.7857978586">
        <ele>11.6</ele>
        <time>2013-05-05T19:40:27Z</time>
      </trkpt>
      <trkpt lat="59.419420612" lon="17.7849324274">
        <ele>11.6</ele>
        <time>2013-05-05T19:40:34Z</time>
      </trkpt>
      <trkpt lat="59.4193945443" lon="17.7845965647">
        <ele>11.6</ele>
        <time>2013-05-05T19:40:37Z</time>
      </trkpt>
      <trkpt lat="59.4193467675" lon="17.7843936389">
        <ele>11.6</ele>
        <time>2013-05-05T19:40:39Z</time>
      </trkpt>
      <trkpt lat="59.4191771178" lon="17.7841530783">
        <ele>11.6</ele>
        <time>2013-05-05T19:40:43Z</time>
      </trkpt>
      <trkpt lat="59.4189937218" lon="17.7841612926">
        <ele>11.6</ele>
        <time>2013-05-05T19:40:46Z</time>
      </trkpt>
      <trkpt lat="59.4188670713" lon="17.7841664894">
        <ele>11.6</ele>
        <time>2013-05-05T19:40:48Z</time>
      </trkpt>
      <trkpt lat="59.4188032013" lon="17.7841605382">
        <ele>12</ele>
        <time>2013-05-05T19:40:49Z</time>
      </trkpt>
      <trkpt lat="59.4187406723" lon="17.784161125">
        <ele>12.4</ele>
        <time>2013-05-05T19:40:50Z</time>
      </trkpt>
      <trkpt lat="59.4186775566" lon="17.7841638072">
        <ele>12.8</ele>
        <time>2013-05-05T19:40:51Z</time>
      </trkpt>
      <trkpt lat="59.4186160334" lon="17.7841628852">
        <ele>13.4</ele>
        <time>2013-05-05T19:40:52Z</time>
      </trkpt>
      <trkpt lat="59.4185551808" lon="17.7841667408">
        <ele>13.8</ele>
        <time>2013-05-05T19:40:53Z</time>
      </trkpt>
      <trkpt lat="59.4184954179" lon="17.7841699259">
        <ele>13.8</ele>
        <time>2013-05-05T19:40:54Z</time>
      </trkpt>
      <trkpt lat="59.4180879737" lon="17.7842315329">
        <ele>13.8</ele>
        <time>2013-05-05T19:41:01Z</time>
      </trkpt>
      <trkpt lat="59.4179086849" lon="17.7843136755">
        <ele>14.2</ele>
        <time>2013-05-05T19:41:04Z</time>
      </trkpt>
      <trkpt lat="59.4178505145" lon="17.7843447724">
        <ele>14.6</ele>
        <time>2013-05-05T19:41:05Z</time>
      </trkpt>
      <trkpt lat="59.4177931823" lon="17.7843828262">
        <ele>15.2</ele>
        <time>2013-05-05T19:41:06Z</time>
      </trkpt>
      <trkpt lat="59.417733587" lon="17.7844189522">
        <ele>15.6</ele>
        <time>2013-05-05T19:41:07Z</time>
      </trkpt>
      <trkpt lat="59.4176759195" lon="17.7844529827">
        <ele>16</ele>
        <time>2013-05-05T19:41:08Z</time>
      </trkpt>
      <trkpt lat="59.4174618458" lon="17.7845974028">
        <ele>16.4</ele>
        <time>2013-05-05T19:41:12Z</time>
      </trkpt>
      <trkpt lat="59.4174073635" lon="17.7846389771">
        <ele>16.8</ele>
        <time>2013-05-05T19:41:13Z</time>
      </trkpt>
      <trkpt lat="59.4173555633" lon="17.7846744325">
        <ele>17.2</ele>
        <time>2013-05-05T19:41:14Z</time>
      </trkpt>
      <trkpt lat="59.417301081" lon="17.7847113129">
        <ele>17.6</ele>
        <time>2013-05-05T19:41:15Z</time>
      </trkpt>
      <trkpt lat="59.4172468501" lon="17.7847475227">
        <ele>18</ele>
        <time>2013-05-05T19:41:16Z</time>
      </trkpt>
      <trkpt lat="59.4170149229" lon="17.7848493628">
        <ele>18</ele>
        <time>2013-05-05T19:41:20Z</time>
      </trkpt>
      <trkpt lat="59.4166982547" lon="17.7849062759">
        <ele>18.4</ele>
        <time>2013-05-05T19:41:26Z</time>
      </trkpt>
      <trkpt lat="59.4166441915" lon="17.7849067788">
        <ele>18.8</ele>
        <time>2013-05-05T19:41:27Z</time>
      </trkpt>
      <trkpt lat="59.4165888709" lon="17.7849008276">
        <ele>19.2</ele>
        <time>2013-05-05T19:41:28Z</time>
      </trkpt>
      <trkpt lat="59.4165308682" lon="17.784893703">
        <ele>19.6</ele>
        <time>2013-05-05T19:41:29Z</time>
      </trkpt>
      <trkpt lat="59.4164746256" lon="17.7848866622">
        <ele>20</ele>
        <time>2013-05-05T19:41:30Z</time>
      </trkpt>
      <trkpt lat="59.4162545169" lon="17.7848564036">
        <ele>20</ele>
        <time>2013-05-05T19:41:34Z</time>
      </trkpt>
      <trkpt lat="59.4159212526" lon="17.7848026756">
        <ele>20.4</ele>
        <time>2013-05-05T19:41:40Z</time>
      </trkpt>
      <trkpt lat="59.4158619925" lon="17.7847945451">
        <ele>20.8</ele>
        <time>2013-05-05T19:41:41Z</time>
      </trkpt>
      <trkpt lat="59.4158037383" lon="17.7847832296">
        <ele>21.4</ele>
        <time>2013-05-05T19:41:42Z</time>
      </trkpt>
      <trkpt lat="59.4157452327" lon="17.7847839001">
        <ele>21.8</ele>
        <time>2013-05-05T19:41:43Z</time>
      </trkpt>
      <trkpt lat="59.4156847992" lon="17.7847814694">
        <ele>22.2</ele>
        <time>2013-05-05T19:41:44Z</time>
      </trkpt>
      <trkpt lat="59.4155559694" lon="17.7847571619">
        <ele>22.2</ele>
        <time>2013-05-05T19:41:46Z</time>
      </trkpt>
      <trkpt lat="59.415118518" lon="17.7846809704">
        <ele>21.6</ele>
        <time>2013-05-05T19:41:52Z</time>
      </trkpt>
      <trkpt lat="59.4150429971" lon="17.7846742649">
        <ele>21.2</ele>
        <time>2013-05-05T19:41:53Z</time>
      </trkpt>
      <trkpt lat="59.4149663027" lon="17.7846787911">
        <ele>20.8</ele>
        <time>2013-05-05T19:41:54Z</time>
      </trkpt>
      <trkpt lat="59.4149009239" lon="17.7847343631">
        <ele>20.2</ele>
        <time>2013-05-05T19:41:55Z</time>
      </trkpt>
      <trkpt lat="59.414847615" lon="17.7848195232">
        <ele>19.8</ele>
        <time>2013-05-05T19:41:56Z</time>
      </trkpt>
      <trkpt lat="59.414778632" lon="17.7852207648">
        <ele>19.8</ele>
        <time>2013-05-05T19:41:59Z</time>
      </trkpt>
      <trkpt lat="59.4147593536" lon="17.7855453957">
        <ele>19.8</ele>
        <time>2013-05-05T19:42:01Z</time>
      </trkpt>
      <trkpt lat="59.4147394047" lon="17.7860588709">
        <ele>19.8</ele>
        <time>2013-05-05T19:42:04Z</time>
      </trkpt>
      <trkpt lat="59.4147109062" lon="17.7872822092">
        <ele>19.8</ele>
        <time>2013-05-05T19:42:11Z</time>
      </trkpt>
      <trkpt lat="59.4146941424" lon="17.7878184832">
        <ele>19.8</ele>
        <time>2013-05-05T19:42:14Z</time>
      </trkpt>
      <trkpt lat="59.414652652" lon="17.7887511372">
        <ele>19.4</ele>
        <time>2013-05-05T19:42:19Z</time>
      </trkpt>
      <trkpt lat="59.4146454436" lon="17.7889344494">
        <ele>19</ele>
        <time>2013-05-05T19:42:20Z</time>
      </trkpt>
      <trkpt lat="59.4146368102" lon="17.7891228745">
        <ele>18.6</ele>
        <time>2013-05-05T19:42:21Z</time>
      </trkpt>
      <trkpt lat="59.414631362" lon="17.7893081983">
        <ele>17.8</ele>
        <time>2013-05-05T19:42:22Z</time>
      </trkpt>
      <trkpt lat="59.4146249917" lon="17.7894994732">
        <ele>17.2</ele>
        <time>2013-05-05T19:42:23Z</time>
      </trkpt>
      <trkpt lat="59.4146184539" lon="17.7896913349">
        <ele>16</ele>
        <time>2013-05-05T19:42:24Z</time>
      </trkpt>
      <trkpt lat="59.4146116645" lon="17.7898914947">
        <ele>15.2</ele>
        <time>2013-05-05T19:42:25Z</time>
      </trkpt>
      <trkpt lat="59.4145797295" lon="17.7910752704">
        <ele>15.2</ele>
        <time>2013-05-05T19:42:31Z</time>
      </trkpt>
      <trkpt lat="59.414539664" lon="17.7920949286">
        <ele>14.8</ele>
        <time>2013-05-05T19:42:36Z</time>
      </trkpt>
      <trkpt lat="59.4145307792" lon="17.7922940825">
        <ele>14.4</ele>
        <time>2013-05-05T19:42:37Z</time>
      </trkpt>
      <trkpt lat="59.4145254148" lon="17.7924919792">
        <ele>14</ele>
        <time>2013-05-05T19:42:38Z</time>
      </trkpt>
      <trkpt lat="59.4145189607" lon="17.7926874451">
        <ele>13.4</ele>
        <time>2013-05-05T19:42:39Z</time>
      </trkpt>
      <trkpt lat="59.4145149374" lon="17.7928817375">
        <ele>12.6</ele>
        <time>2013-05-05T19:42:40Z</time>
      </trkpt>
      <trkpt lat="59.4145033704" lon="17.7930902792">
        <ele>12</ele>
        <time>2013-05-05T19:42:41Z</time>
      </trkpt>
      <trkpt lat="59.4145001853" lon="17.7932813865">
        <ele>11.4</ele>
        <time>2013-05-05T19:42:42Z</time>
      </trkpt>
      <trkpt lat="59.4144923063" lon="17.7934748408">
        <ele>10.6</ele>
        <time>2013-05-05T19:42:43Z</time>
      </trkpt>
      <trkpt lat="59.4144736146" lon="17.7936560575">
        <ele>10.6</ele>
        <time>2013-05-05T19:42:44Z</time>
      </trkpt>
      <trkpt lat="59.4144528275" lon="17.7938338376">
        <ele>10.2</ele>
        <time>2013-05-05T19:42:45Z</time>
      </trkpt>
      <trkpt lat="59.4144226527" lon="17.7940071752">
        <ele>9.6</ele>
        <time>2013-05-05T19:42:46Z</time>
      </trkpt>
      <trkpt lat="59.4143955791" lon="17.7941831113">
        <ele>9.2</ele>
        <time>2013-05-05T19:42:47Z</time>
      </trkpt>
      <trkpt lat="59.4143680027" lon="17.794353683">
        <ele>8.2</ele>
        <time>2013-05-05T19:42:48Z</time>
      </trkpt>
      <trkpt lat="59.4143347265" lon="17.7945214048">
        <ele>8.2</ele>
        <time>2013-05-05T19:42:49Z</time>
      </trkpt>
      <trkpt lat="59.4141864507" lon="17.7953013406">
        <ele>8.2</ele>
        <time>2013-05-05T19:42:54Z</time>
      </trkpt>
      <trkpt lat="59.4139808427" lon="17.7963655066">
        <ele>7.6</ele>
        <time>2013-05-05T19:43:01Z</time>
      </trkpt>
      <trkpt lat="59.413957541" lon="17.7965114355">
        <ele>7.2</ele>
        <time>2013-05-05T19:43:02Z</time>
      </trkpt>
      <trkpt lat="59.4139336526" lon="17.7966553527">
        <ele>6.6</ele>
        <time>2013-05-05T19:43:03Z</time>
      </trkpt>
      <trkpt lat="59.4139034778" lon="17.79679927">
        <ele>6.2</ele>
        <time>2013-05-05T19:43:04Z</time>
      </trkpt>
      <trkpt lat="59.4138722971" lon="17.796936314">
        <ele>5.6</ele>
        <time>2013-05-05T19:43:05Z</time>
      </trkpt>
      <trkpt lat="59.4137943455" lon="17.7972244837">
        <ele>5.6</ele>
        <time>2013-05-05T19:43:08Z</time>
      </trkpt>
      <trkpt lat="59.41375889" lon="17.7972801396">
        <ele>5.2</ele>
        <time>2013-05-05T19:43:09Z</time>
      </trkpt>
      <trkpt lat="59.4137012225" lon="17.7973127451">
        <ele>4.6</ele>
        <time>2013-05-05T19:43:10Z</time>
      </trkpt>
      <trkpt lat="59.4136324071" lon="17.7972969872">
        <ele>4.2</ele>
        <time>2013-05-05T19:43:11Z</time>
      </trkpt>
      <trkpt lat="59.4135610772" lon="17.7972422534">
        <ele>3.6</ele>
        <time>2013-05-05T19:43:12Z</time>
      </trkpt>
      <trkpt lat="59.4134887414" lon="17.7972000924">
        <ele>3.2</ele>
        <time>2013-05-05T19:43:13Z</time>
      </trkpt>
      <trkpt lat="59.4134100353" lon="17.7971496334">
        <ele>3.2</ele>
        <time>2013-05-05T19:43:14Z</time>
      </trkpt>
      <trkpt lat="59.4129139107" lon="17.7969069774">
        <ele>3.2</ele>
        <time>2013-05-05T19:43:21Z</time>
      </trkpt>
      <trkpt lat="59.4128481966" lon="17.7968762996">
        <ele>3.6</ele>
        <time>2013-05-05T19:43:22Z</time>
      </trkpt>
      <trkpt lat="59.4127824825" lon="17.7968479688">
        <ele>4</ele>
        <time>2013-05-05T19:43:23Z</time>
      </trkpt>
      <trkpt lat="59.4127180257" lon="17.7968157823">
        <ele>4.4</ele>
        <time>2013-05-05T19:43:24Z</time>
      </trkpt>
      <trkpt lat="59.412650719" lon="17.796789966">
        <ele>4.8</ele>
        <time>2013-05-05T19:43:25Z</time>
      </trkpt>
      <trkpt lat="59.4125842506" lon="17.7967618029">
        <ele>5.2</ele>
        <time>2013-05-05T19:43:26Z</time>
      </trkpt>
      <trkpt lat="59.4124524871" lon="17.7967105056">
        <ele>5.2</ele>
        <time>2013-05-05T19:43:28Z</time>
      </trkpt>
      <trkpt lat="59.4120082464" lon="17.796569103">
        <ele>5.2</ele>
        <time>2013-05-05T19:43:35Z</time>
      </trkpt>
      <trkpt lat="59.4115521872" lon="17.7964969348">
        <ele>5.8</ele>
        <time>2013-05-05T19:43:42Z</time>
      </trkpt>
      <trkpt lat="59.4114887362" lon="17.7964949232">
        <ele>6.2</ele>
        <time>2013-05-05T19:43:43Z</time>
      </trkpt>
      <trkpt lat="59.4114260396" lon="17.7964916542">
        <ele>6.6</ele>
        <time>2013-05-05T19:43:44Z</time>
      </trkpt>
      <trkpt lat="59.4113655223" lon="17.7964866251">
        <ele>7</ele>
        <time>2013-05-05T19:43:45Z</time>
      </trkpt>
      <trkpt lat="59.4113022389" lon="17.79648805">
        <ele>7.6</ele>
        <time>2013-05-05T19:43:46Z</time>
      </trkpt>
      <trkpt lat="59.411176259" lon="17.7964934144">
        <ele>7.6</ele>
        <time>2013-05-05T19:43:48Z</time>
      </trkpt>
      <trkpt lat="59.4107407355" lon="17.7965370841">
        <ele>7.6</ele>
        <time>2013-05-05T19:43:55Z</time>
      </trkpt>
      <trkpt lat="59.4103733568" lon="17.7965858668">
        <ele>7.6</ele>
        <time>2013-05-05T19:44:01Z</time>
      </trkpt>
      <trkpt lat="59.409949065" lon="17.7966628126">
        <ele>7.6</ele>
        <time>2013-05-05T19:44:08Z</time>
      </trkpt>
      <trkpt lat="59.4098885477" lon="17.7966770619">
        <ele>8</ele>
        <time>2013-05-05T19:44:09Z</time>
      </trkpt>
      <trkpt lat="59.4098268569" lon="17.7966929875">
        <ele>8.4</ele>
        <time>2013-05-05T19:44:10Z</time>
      </trkpt>
      <trkpt lat="59.4097625677" lon="17.7967065661">
        <ele>8.8</ele>
        <time>2013-05-05T19:44:11Z</time>
      </trkpt>
      <trkpt lat="59.4097021342" lon="17.7967229108">
        <ele>9.2</ele>
        <time>2013-05-05T19:44:12Z</time>
      </trkpt>
      <trkpt lat="59.4096431257" lon="17.7967355675">
        <ele>9.6</ele>
        <time>2013-05-05T19:44:13Z</time>
      </trkpt>
      <trkpt lat="59.4095248571" lon="17.7967530857">
        <ele>9.6</ele>
        <time>2013-05-05T19:44:15Z</time>
      </trkpt>
      <trkpt lat="59.4092892418" lon="17.7967794049">
        <ele>9.6</ele>
        <time>2013-05-05T19:44:19Z</time>
      </trkpt>
      <trkpt lat="59.4091739069" lon="17.7967502358">
        <ele>9.6</ele>
        <time>2013-05-05T19:44:21Z</time>
      </trkpt>
      <trkpt lat="59.4089792792" lon="17.7965026345">
        <ele>9.6</ele>
        <time>2013-05-05T19:44:25Z</time>
      </trkpt>
      <trkpt lat="59.4089141518" lon="17.796307001">
        <ele>10</ele>
        <time>2013-05-05T19:44:27Z</time>
      </trkpt>
      <trkpt lat="59.4088902634" lon="17.7962157221">
        <ele>10.4</ele>
        <time>2013-05-05T19:44:28Z</time>
      </trkpt>
      <trkpt lat="59.4088687219" lon="17.7961298076">
        <ele>10.8</ele>
        <time>2013-05-05T19:44:29Z</time>
      </trkpt>
      <trkpt lat="59.4088488568" lon="17.7960469106">
        <ele>11.2</ele>
        <time>2013-05-05T19:44:30Z</time>
      </trkpt>
      <trkpt lat="59.4088358649" lon="17.7959598227">
        <ele>11.6</ele>
        <time>2013-05-05T19:44:31Z</time>
      </trkpt>
      <trkpt lat="59.4088025049" lon="17.7957009058">
        <ele>12</ele>
        <time>2013-05-05T19:44:34Z</time>
      </trkpt>
      <trkpt lat="59.4087970567" lon="17.7956053521">
        <ele>12.4</ele>
        <time>2013-05-05T19:44:35Z</time>
      </trkpt>
      <trkpt lat="59.4087957156" lon="17.795506781">
        <ele>13</ele>
        <time>2013-05-05T19:44:36Z</time>
      </trkpt>
      <trkpt lat="59.4088087913" lon="17.7953880933">
        <ele>13.4</ele>
        <time>2013-05-05T19:44:37Z</time>
      </trkpt>
      <trkpt lat="59.4088178438" lon="17.7952746862">
        <ele>13.8</ele>
        <time>2013-05-05T19:44:38Z</time>
      </trkpt>
      <trkpt lat="59.4088342723" lon="17.7949572636">
        <ele>13.8</ele>
        <time>2013-05-05T19:44:41Z</time>
      </trkpt>
      <trkpt lat="59.4088412293" lon="17.7948523222">
        <ele>14.2</ele>
        <time>2013-05-05T19:44:42Z</time>
      </trkpt>
      <trkpt lat="59.4088480186" lon="17.7947496439">
        <ele>14.6</ele>
        <time>2013-05-05T19:44:43Z</time>
      </trkpt>
      <trkpt lat="59.4088564843" lon="17.794650067">
        <ele>15</ele>
        <time>2013-05-05T19:44:44Z</time>
      </trkpt>
      <trkpt lat="59.4088626031" lon="17.7945530884">
        <ele>15.4</ele>
        <time>2013-05-05T19:44:45Z</time>
      </trkpt>
      <trkpt lat="59.4088676323" lon="17.7944592111">
        <ele>15.8</ele>
        <time>2013-05-05T19:44:46Z</time>
      </trkpt>
      <trkpt lat="59.4088873297" lon="17.7940738113">
        <ele>15.8</ele>
        <time>2013-05-05T19:44:50Z</time>
      </trkpt>
      <trkpt lat="59.4089054346" lon="17.7936962068">
        <ele>16.4</ele>
        <time>2013-05-05T19:44:54Z</time>
      </trkpt>
      <trkpt lat="59.4089090389" lon="17.7936009884">
        <ele>16.8</ele>
        <time>2013-05-05T19:44:55Z</time>
      </trkpt>
      <trkpt lat="59.4089141518" lon="17.7935040098">
        <ele>17.2</ele>
        <time>2013-05-05T19:44:56Z</time>
      </trkpt>
      <trkpt lat="59.408915912" lon="17.7934115574">
        <ele>17.8</ele>
        <time>2013-05-05T19:44:57Z</time>
      </trkpt>
      <trkpt lat="59.4089172531" lon="17.7933152494">
        <ele>18.2</ele>
        <time>2013-05-05T19:44:58Z</time>
      </trkpt>
      <trkpt lat="59.4089398843" lon="17.792739832">
        <ele>18.2</ele>
        <time>2013-05-05T19:45:04Z</time>
      </trkpt>
      <trkpt lat="59.4089618448" lon="17.7924696833">
        <ele>18.6</ele>
        <time>2013-05-05T19:45:07Z</time>
      </trkpt>
      <trkpt lat="59.4089710649" lon="17.7923852776">
        <ele>19</ele>
        <time>2013-05-05T19:45:08Z</time>
      </trkpt>
      <trkpt lat="59.4089786086" lon="17.7922977706">
        <ele>19.6</ele>
        <time>2013-05-05T19:45:09Z</time>
      </trkpt>
      <trkpt lat="59.4089833025" lon="17.7922055697">
        <ele>20</ele>
        <time>2013-05-05T19:45:10Z</time>
      </trkpt>
      <trkpt lat="59.4089869067" lon="17.7921085073">
        <ele>20.4</ele>
        <time>2013-05-05T19:45:11Z</time>
      </trkpt>
      <trkpt lat="59.4090080291" lon="17.7917449004">
        <ele>20.4</ele>
        <time>2013-05-05T19:45:15Z</time>
      </trkpt>
      <trkpt lat="59.4090118848" lon="17.7916636798">
        <ele>20.4</ele>
        <time>2013-05-05T19:45:16Z</time>
      </trkpt>
      <trkpt lat="59.4090250444" lon="17.7914829661">
        <ele>20.4</ele>
        <time>2013-05-05T19:45:18Z</time>
      </trkpt>
      <trkpt lat="59.4090518664" lon="17.7912059443">
        <ele>20.4</ele>
        <time>2013-05-05T19:45:21Z</time>
      </trkpt>
      <trkpt lat="59.4090573147" lon="17.7911066187">
        <ele>20.8</ele>
        <time>2013-05-05T19:45:22Z</time>
      </trkpt>
      <trkpt lat="59.4090595778" lon="17.791006958">
        <ele>21.2</ele>
        <time>2013-05-05T19:45:23Z</time>
      </trkpt>
      <trkpt lat="59.4090653613" lon="17.7909043635">
        <ele>21.8</ele>
        <time>2013-05-05T19:45:24Z</time>
      </trkpt>
      <trkpt lat="59.4090713963" lon="17.7908046189">
        <ele>22.2</ele>
        <time>2013-05-05T19:45:25Z</time>
      </trkpt>
      <trkpt lat="59.4090848911" lon="17.7907023597">
        <ele>22.6</ele>
        <time>2013-05-05T19:45:26Z</time>
      </trkpt>
      <trkpt lat="59.4091182511" lon="17.7904080712">
        <ele>23</ele>
        <time>2013-05-05T19:45:29Z</time>
      </trkpt>
      <trkpt lat="59.4091229449" lon="17.7903080751">
        <ele>23.4</ele>
        <time>2013-05-05T19:45:30Z</time>
      </trkpt>
      <trkpt lat="59.4091288961" lon="17.7902069894">
        <ele>23.8</ele>
        <time>2013-05-05T19:45:31Z</time>
      </trkpt>
      <trkpt lat="59.4091361045" lon="17.790109927">
        <ele>24.2</ele>
        <time>2013-05-05T19:45:32Z</time>
      </trkpt>
      <trkpt lat="59.4091458275" lon="17.7900131161">
        <ele>24.6</ele>
        <time>2013-05-05T19:45:33Z</time>
      </trkpt>
      <trkpt lat="59.4091870665" lon="17.7895335876">
        <ele>25.2</ele>
        <time>2013-05-05T19:45:38Z</time>
      </trkpt>
      <trkpt lat="59.4091958675" lon="17.7894418058">
        <ele>26</ele>
        <time>2013-05-05T19:45:39Z</time>
      </trkpt>
      <trkpt lat="59.409203495" lon="17.7893512813">
        <ele>26.6</ele>
        <time>2013-05-05T19:45:40Z</time>
      </trkpt>
      <trkpt lat="59.4092138886" lon="17.7892563981">
        <ele>27</ele>
        <time>2013-05-05T19:45:41Z</time>
      </trkpt>
      <trkpt lat="59.4092713046" lon="17.7886245705">
        <ele>27</ele>
        <time>2013-05-05T19:45:48Z</time>
      </trkpt>
      <trkpt lat="59.4093749887" lon="17.787705579">
        <ele>27</ele>
        <time>2013-05-05T19:45:57Z</time>
      </trkpt>
      <trkpt lat="59.4094228493" lon="17.7873984662">
        <ele>27.4</ele>
        <time>2013-05-05T19:46:00Z</time>
      </trkpt>
      <trkpt lat="59.4094351707" lon="17.7873111268">
        <ele>28</ele>
        <time>2013-05-05T19:46:01Z</time>
      </trkpt>
      <trkpt lat="59.4094500905" lon="17.7872134777">
        <ele>28.4</ele>
        <time>2013-05-05T19:46:02Z</time>
      </trkpt>
      <trkpt lat="59.40947071" lon="17.7871057702">
        <ele>28.8</ele>
        <time>2013-05-05T19:46:03Z</time>
      </trkpt>
      <trkpt lat="59.4094846239" lon="17.786997979">
        <ele>29.2</ele>
        <time>2013-05-05T19:46:04Z</time>
      </trkpt>
      <trkpt lat="59.4095443869" lon="17.7865677361">
        <ele>29.2</ele>
        <time>2013-05-05T19:46:08Z</time>
      </trkpt>
      <trkpt lat="59.4096215842" lon="17.7859858646">
        <ele>29.6</ele>
        <time>2013-05-05T19:46:13Z</time>
      </trkpt>
      <trkpt lat="59.4096367554" lon="17.7858761455">
        <ele>30</ele>
        <time>2013-05-05T19:46:14Z</time>
      </trkpt>
      <trkpt lat="59.4096557823" lon="17.7857622355">
        <ele>30.6</ele>
        <time>2013-05-05T19:46:15Z</time>
      </trkpt>
      <trkpt lat="59.4096706183" lon="17.7856486607">
        <ele>31</ele>
        <time>2013-05-05T19:46:16Z</time>
      </trkpt>
      <trkpt lat="59.4096866277" lon="17.785539277">
        <ele>31.4</ele>
        <time>2013-05-05T19:46:17Z</time>
      </trkpt>
      <trkpt lat="59.4097491567" lon="17.7849773544">
        <ele>31.4</ele>
        <time>2013-05-05T19:46:22Z</time>
      </trkpt>
      <trkpt lat="59.4097551078" lon="17.7847417392">
        <ele>31.4</ele>
        <time>2013-05-05T19:46:24Z</time>
      </trkpt>
      <trkpt lat="59.4097591312" lon="17.7843835806">
        <ele>31.4</ele>
        <time>2013-05-05T19:46:27Z</time>
      </trkpt>
      <trkpt lat="59.4097399366" lon="17.7841407569">
        <ele>31.4</ele>
        <time>2013-05-05T19:46:29Z</time>
      </trkpt>
      <trkpt lat="59.4096940876" lon="17.7837747194">
        <ele>31.4</ele>
        <time>2013-05-05T19:46:32Z</time>
      </trkpt>
      <trkpt lat="59.4095444707" lon="17.7831405448">
        <ele>31.4</ele>
        <time>2013-05-05T19:46:37Z</time>
      </trkpt>
      <trkpt lat="59.4093158125" lon="17.7825875909">
        <ele>31.4</ele>
        <time>2013-05-05T19:46:42Z</time>
      </trkpt>
      <trkpt lat="59.40902429" lon="17.7820990937">
        <ele>31.4</ele>
        <time>2013-05-05T19:46:47Z</time>
      </trkpt>
      <trkpt lat="59.4089563128" lon="17.7820085692">
        <ele>31.4</ele>
        <time>2013-05-05T19:46:48Z</time>
      </trkpt>
      <trkpt lat="59.4087281575" lon="17.7817220759">
        <ele>30.8</ele>
        <time>2013-05-05T19:46:51Z</time>
      </trkpt>
      <trkpt lat="59.4086561569" lon="17.7816261031">
        <ele>30</ele>
        <time>2013-05-05T19:46:52Z</time>
      </trkpt>
      <trkpt lat="59.4085804684" lon="17.7815393505">
        <ele>29.6</ele>
        <time>2013-05-05T19:46:53Z</time>
      </trkpt>
      <trkpt lat="59.4085051989" lon="17.7814490774">
        <ele>29</ele>
        <time>2013-05-05T19:46:54Z</time>
      </trkpt>
      <trkpt lat="59.4080723576" lon="17.7808996438">
        <ele>29</ele>
        <time>2013-05-05T19:47:00Z</time>
      </trkpt>
      <trkpt lat="59.4080042128" lon="17.7808185071">
        <ele>28.6</ele>
        <time>2013-05-05T19:47:01Z</time>
      </trkpt>
      <trkpt lat="59.4079394207" lon="17.7807341851">
        <ele>28.2</ele>
        <time>2013-05-05T19:47:02Z</time>
      </trkpt>
      <trkpt lat="59.4078716111" lon="17.7806496956">
        <ele>27.8</ele>
        <time>2013-05-05T19:47:03Z</time>
      </trkpt>
      <trkpt lat="59.4078059808" lon="17.7805671339">
        <ele>27.4</ele>
        <time>2013-05-05T19:47:04Z</time>
      </trkpt>
      <trkpt lat="59.4077377522" lon="17.7804805488">
        <ele>27</ele>
        <time>2013-05-05T19:47:05Z</time>
      </trkpt>
      <trkpt lat="59.4076012948" lon="17.7803406549">
        <ele>27</ele>
        <time>2013-05-05T19:47:07Z</time>
      </trkpt>
      <trkpt lat="59.4075292105" lon="17.7802852506">
        <ele>27</ele>
        <time>2013-05-05T19:47:08Z</time>
      </trkpt>
      <trkpt lat="59.4073175675" lon="17.7800902876">
        <ele>27</ele>
        <time>2013-05-05T19:47:11Z</time>
      </trkpt>
      <trkpt lat="59.4072430524" lon="17.7800405829">
        <ele>27</ele>
        <time>2013-05-05T19:47:12Z</time>
      </trkpt>
      <trkpt lat="59.4070888255" lon="17.7799504775">
        <ele>27</ele>
        <time>2013-05-05T19:47:14Z</time>
      </trkpt>
      <trkpt lat="59.4067100474" lon="17.7797670815">
        <ele>27</ele>
        <time>2013-05-05T19:47:19Z</time>
      </trkpt>
      <trkpt lat="59.4062463607" lon="17.7796893813">
        <ele>27</ele>
        <time>2013-05-05T19:47:25Z</time>
      </trkpt>
      <trkpt lat="59.4058458735" lon="17.779752497">
        <ele>27</ele>
        <time>2013-05-05T19:47:30Z</time>
      </trkpt>
      <trkpt lat="59.4054364177" lon="17.7799002699">
        <ele>26.6</ele>
        <time>2013-05-05T19:47:35Z</time>
      </trkpt>
      <trkpt lat="59.4053541074" lon="17.7799461189">
        <ele>26.2</ele>
        <time>2013-05-05T19:47:36Z</time>
      </trkpt>
      <trkpt lat="59.4052726354" lon="17.7800003498">
        <ele>25.6</ele>
        <time>2013-05-05T19:47:37Z</time>
      </trkpt>
      <trkpt lat="59.4051894869" lon="17.7800522338">
        <ele>25.2</ele>
        <time>2013-05-05T19:47:38Z</time>
      </trkpt>
      <trkpt lat="59.4051053326" lon="17.780113254">
        <ele>24.8</ele>
        <time>2013-05-05T19:47:39Z</time>
      </trkpt>
      <trkpt lat="59.4050197534" lon="17.7801629587">
        <ele>24.4</ele>
        <time>2013-05-05T19:47:40Z</time>
      </trkpt>
      <trkpt lat="59.4049340904" lon="17.7802130824">
        <ele>24</ele>
        <time>2013-05-05T19:47:41Z</time>
      </trkpt>
      <trkpt lat="59.4048473378" lon="17.7802894415">
        <ele>23.2</ele>
        <time>2013-05-05T19:47:42Z</time>
      </trkpt>
      <trkpt lat="59.4047603336" lon="17.7803730091">
        <ele>22.8</ele>
        <time>2013-05-05T19:47:43Z</time>
      </trkpt>
      <trkpt lat="59.4045906002" lon="17.7805331872">
        <ele>22.2</ele>
        <time>2013-05-05T19:47:45Z</time>
      </trkpt>
      <trkpt lat="59.4045071164" lon="17.7806153298">
        <ele>21.8</ele>
        <time>2013-05-05T19:47:46Z</time>
      </trkpt>
      <trkpt lat="59.4044257282" lon="17.780707866">
        <ele>21.4</ele>
        <time>2013-05-05T19:47:47Z</time>
      </trkpt>
      <trkpt lat="59.404344759" lon="17.7808058504">
        <ele>21</ele>
        <time>2013-05-05T19:47:48Z</time>
      </trkpt>
      <trkpt lat="59.4042696572" lon="17.7809029128">
        <ele>20.4</ele>
        <time>2013-05-05T19:47:49Z</time>
      </trkpt>
      <trkpt lat="59.4041955612" lon="17.7809987179">
        <ele>19.8</ele>
        <time>2013-05-05T19:47:50Z</time>
      </trkpt>
      <trkpt lat="59.4041133348" lon="17.7811035755">
        <ele>19.4</ele>
        <time>2013-05-05T19:47:51Z</time>
      </trkpt>
      <trkpt lat="59.4040370595" lon="17.7812092712">
        <ele>18.8</ele>
        <time>2013-05-05T19:47:52Z</time>
      </trkpt>
      <trkpt lat="59.4039620415" lon="17.7813221754">
        <ele>18.4</ele>
        <time>2013-05-05T19:47:53Z</time>
      </trkpt>
      <trkpt lat="59.4038903762" lon="17.7814389353">
        <ele>18.4</ele>
        <time>2013-05-05T19:47:54Z</time>
      </trkpt>
      <trkpt lat="59.403563566" lon="17.7821151032">
        <ele>18.4</ele>
        <time>2013-05-05T19:47:59Z</time>
      </trkpt>
      <trkpt lat="59.4035048088" lon="17.7822682405">
        <ele>18</ele>
        <time>2013-05-05T19:48:00Z</time>
      </trkpt>
      <trkpt lat="59.403450075" lon="17.7824256526">
        <ele>17.6</ele>
        <time>2013-05-05T19:48:01Z</time>
      </trkpt>
      <trkpt lat="59.4033960118" lon="17.782582897">
        <ele>17.2</ele>
        <time>2013-05-05T19:48:02Z</time>
      </trkpt>
      <trkpt lat="59.403344044" lon="17.7827472661">
        <ele>16.8</ele>
        <time>2013-05-05T19:48:03Z</time>
      </trkpt>
      <trkpt lat="59.4032951775" lon="17.7829110484">
        <ele>16.4</ele>
        <time>2013-05-05T19:48:04Z</time>
      </trkpt>
      <trkpt lat="59.4030329079" lon="17.7839246716">
        <ele>16.4</ele>
        <time>2013-05-05T19:48:10Z</time>
      </trkpt>
      <trkpt lat="59.4029959437" lon="17.7840994342">
        <ele>16</ele>
        <time>2013-05-05T19:48:11Z</time>
      </trkpt>
      <trkpt lat="59.4029586442" lon="17.7842729395">
        <ele>15.6</ele>
        <time>2013-05-05T19:48:12Z</time>
      </trkpt>
      <trkpt lat="59.4029263739" lon="17.7844636277">
        <ele>15.2</ele>
        <time>2013-05-05T19:48:13Z</time>
      </trkpt>
      <trkpt lat="59.4028972887" lon="17.7846487001">
        <ele>14.6</ele>
        <time>2013-05-05T19:48:14Z</time>
      </trkpt>
      <trkpt lat="59.4028734003" lon="17.7848285756">
        <ele>14.2</ele>
        <time>2013-05-05T19:48:15Z</time>
      </trkpt>
      <trkpt lat="59.4028502663" lon="17.7850123069">
        <ele>14.2</ele>
        <time>2013-05-05T19:48:16Z</time>
      </trkpt>
      <trkpt lat="59.4027335902" lon="17.7861252556">
        <ele>14.2</ele>
        <time>2013-05-05T19:48:22Z</time>
      </trkpt>
      <trkpt lat="59.4026991406" lon="17.787244323">
        <ele>14.2</ele>
        <time>2013-05-05T19:48:28Z</time>
      </trkpt>
      <trkpt lat="59.4027030801" lon="17.7874320776">
        <ele>14.2</ele>
        <time>2013-05-05T19:48:29Z</time>
      </trkpt>
      <trkpt lat="59.4027159882" lon="17.7883904641">
        <ele>13.8</ele>
        <time>2013-05-05T19:48:34Z</time>
      </trkpt>
      <trkpt lat="59.4027234481" lon="17.7885954015">
        <ele>13.4</ele>
        <time>2013-05-05T19:48:35Z</time>
      </trkpt>
      <trkpt lat="59.4027334226" lon="17.7887847486">
        <ele>13</ele>
        <time>2013-05-05T19:48:36Z</time>
      </trkpt>
      <trkpt lat="59.4027362724" lon="17.7889750178">
        <ele>12.6</ele>
        <time>2013-05-05T19:48:37Z</time>
      </trkpt>
      <trkpt lat="59.4027397928" lon="17.7891641134">
        <ele>12.2</ele>
        <time>2013-05-05T19:48:38Z</time>
      </trkpt>
      <trkpt lat="59.4027183352" lon="17.7902764754">
        <ele>12.2</ele>
        <time>2013-05-05T19:48:44Z</time>
      </trkpt>
      <trkpt lat="59.4026728214" lon="17.7913428207">
        <ele>12.6</ele>
        <time>2013-05-05T19:48:50Z</time>
      </trkpt>
      <trkpt lat="59.4026559738" lon="17.791503837">
        <ele>13.2</ele>
        <time>2013-05-05T19:48:51Z</time>
      </trkpt>
      <trkpt lat="59.4026421437" lon="17.7916651886">
        <ele>13.6</ele>
        <time>2013-05-05T19:48:52Z</time>
      </trkpt>
      <trkpt lat="59.402626721" lon="17.7918201699">
        <ele>14</ele>
        <time>2013-05-05T19:48:53Z</time>
      </trkpt>
      <trkpt lat="59.4026095381" lon="17.7919708765">
        <ele>14.6</ele>
        <time>2013-05-05T19:48:54Z</time>
      </trkpt>
      <trkpt lat="59.4025922714" lon="17.7921216668">
        <ele>14.6</ele>
        <time>2013-05-05T19:48:55Z</time>
      </trkpt>
      <trkpt lat="59.4024657047" lon="17.7930771196">
        <ele>14.6</ele>
        <time>2013-05-05T19:49:02Z</time>
      </trkpt>
      <trkpt lat="59.4023548122" lon="17.7937555506">
        <ele>14.6</ele>
        <time>2013-05-05T19:49:07Z</time>
      </trkpt>
      <trkpt lat="59.4021834861" lon="17.7945936568">
        <ele>14.6</ele>
        <time>2013-05-05T19:49:13Z</time>
      </trkpt>
      <trkpt lat="59.402113162" lon="17.7948581896">
        <ele>15</ele>
        <time>2013-05-05T19:49:15Z</time>
      </trkpt>
      <trkpt lat="59.4020747729" lon="17.7949951498">
        <ele>15.4</ele>
        <time>2013-05-05T19:49:16Z</time>
      </trkpt>
      <trkpt lat="59.402037222" lon="17.7951231414">
        <ele>15.8</ele>
        <time>2013-05-05T19:49:17Z</time>
      </trkpt>
      <trkpt lat="59.402000174" lon="17.7952538991">
        <ele>16.2</ele>
        <time>2013-05-05T19:49:18Z</time>
      </trkpt>
      <trkpt lat="59.401964048" lon="17.7953845729">
        <ele>16.6</ele>
        <time>2013-05-05T19:49:19Z</time>
      </trkpt>
      <trkpt lat="59.4018871021" lon="17.7956414781">
        <ele>16.6</ele>
        <time>2013-05-05T19:49:21Z</time>
      </trkpt>
      <trkpt lat="59.4017693364" lon="17.7960103655">
        <ele>16.6</ele>
        <time>2013-05-05T19:49:24Z</time>
      </trkpt>
      <trkpt lat="59.401684344" lon="17.7962640856">
        <ele>16.6</ele>
        <time>2013-05-05T19:49:26Z</time>
      </trkpt>
      <trkpt lat="59.4013574499" lon="17.7971113281">
        <ele>16.6</ele>
        <time>2013-05-05T19:49:33Z</time>
      </trkpt>
      <trkpt lat="59.4010209166" lon="17.7979623424">
        <ele>16.6</ele>
        <time>2013-05-05T19:49:40Z</time>
      </trkpt>
      <trkpt lat="59.4009814378" lon="17.7980904178">
        <ele>16.6</ele>
        <time>2013-05-05T19:49:41Z</time>
      </trkpt>
      <trkpt lat="59.4008106147" lon="17.79877941">
        <ele>16.6</ele>
        <time>2013-05-05T19:49:46Z</time>
      </trkpt>
      <trkpt lat="59.4007390333" lon="17.7995005887">
        <ele>16.6</ele>
        <time>2013-05-05T19:49:51Z</time>
      </trkpt>
      <trkpt lat="59.4007379436" lon="17.7996543127">
        <ele>16.6</ele>
        <time>2013-05-05T19:49:52Z</time>
      </trkpt>
      <trkpt lat="59.4008262889" lon="17.8003597334">
        <ele>16.6</ele>
        <time>2013-05-05T19:49:57Z</time>
      </trkpt>
      <trkpt lat="59.4008573019" lon="17.8004925027">
        <ele>16.6</ele>
        <time>2013-05-05T19:49:58Z</time>
      </trkpt>
      <trkpt lat="59.4009703737" lon="17.80088092">
        <ele>16.2</ele>
        <time>2013-05-05T19:50:01Z</time>
      </trkpt>
      <trkpt lat="59.4010111936" lon="17.8010050559">
        <ele>15.8</ele>
        <time>2013-05-05T19:50:02Z</time>
      </trkpt>
      <trkpt lat="59.4010574617" lon="17.8011172896">
        <ele>15.4</ele>
        <time>2013-05-05T19:50:03Z</time>
      </trkpt>
      <trkpt lat="59.4011048194" lon="17.8012322892">
        <ele>15</ele>
        <time>2013-05-05T19:50:04Z</time>
      </trkpt>
      <trkpt lat="59.4011536859" lon="17.8013442714">
        <ele>14.6</ele>
        <time>2013-05-05T19:50:05Z</time>
      </trkpt>
      <trkpt lat="59.4012586273" lon="17.8015691578">
        <ele>14.6</ele>
        <time>2013-05-05T19:50:07Z</time>
      </trkpt>
      <trkpt lat="59.4014970923" lon="17.8020623488">
        <ele>14.6</ele>
        <time>2013-05-05T19:50:12Z</time>
      </trkpt>
      <trkpt lat="59.4018378166" lon="17.8025780033">
        <ele>14.6</ele>
        <time>2013-05-05T19:50:18Z</time>
      </trkpt>
      <trkpt lat="59.4019621201" lon="17.8027211661">
        <ele>15</ele>
        <time>2013-05-05T19:50:20Z</time>
      </trkpt>
      <trkpt lat="59.4020228051" lon="17.8027877184">
        <ele>15.6</ele>
        <time>2013-05-05T19:50:21Z</time>
      </trkpt>
      <trkpt lat="59.4020834062" lon="17.8028479843">
        <ele>16</ele>
        <time>2013-05-05T19:50:22Z</time>
      </trkpt>
      <trkpt lat="59.4021382239" lon="17.8029045621">
        <ele>16.4</ele>
        <time>2013-05-05T19:50:23Z</time>
      </trkpt>
      <trkpt lat="59.4021912813" lon="17.8029524227">
        <ele>17</ele>
        <time>2013-05-05T19:50:24Z</time>
      </trkpt>
      <trkpt lat="59.4022935405" lon="17.8030667519">
        <ele>17</ele>
        <time>2013-05-05T19:50:26Z</time>
      </trkpt>
      <trkpt lat="59.4023474361" lon="17.803261631">
        <ele>17</ele>
        <time>2013-05-05T19:50:28Z</time>
      </trkpt>
      <trkpt lat="59.402300246" lon="17.803640912">
        <ele>17</ele>
        <time>2013-05-05T19:50:31Z</time>
      </trkpt>
      <trkpt lat="59.402260432" lon="17.8039158383">
        <ele>17</ele>
        <time>2013-05-05T19:50:33Z</time>
      </trkpt>
      <trkpt lat="59.4022091347" lon="17.8043481767">
        <ele>17</ele>
        <time>2013-05-05T19:50:36Z</time>
      </trkpt>
      <trkpt lat="59.4021112341" lon="17.8054301124">
        <ele>17</ele>
        <time>2013-05-05T19:50:43Z</time>
      </trkpt>
      <trkpt lat="59.4020347074" lon="17.8066403749">
        <ele>17</ele>
        <time>2013-05-05T19:50:50Z</time>
      </trkpt>
      <trkpt lat="59.4019996711" lon="17.8076157766">
        <ele>16.4</ele>
        <time>2013-05-05T19:50:55Z</time>
      </trkpt>
      <trkpt lat="59.4019964859" lon="17.8078207979">
        <ele>16</ele>
        <time>2013-05-05T19:50:56Z</time>
      </trkpt>
      <trkpt lat="59.401988104" lon="17.8080264897">
        <ele>15.6</ele>
        <time>2013-05-05T19:50:57Z</time>
      </trkpt>
      <trkpt lat="59.4019788001" lon="17.8082323492">
        <ele>15.2</ele>
        <time>2013-05-05T19:50:58Z</time>
      </trkpt>
      <trkpt lat="59.4019665625" lon="17.8084460038">
        <ele>14.2</ele>
        <time>2013-05-05T19:50:59Z</time>
      </trkpt>
      <trkpt lat="59.4019591027" lon="17.8086662802">
        <ele>13.8</ele>
        <time>2013-05-05T19:51:00Z</time>
      </trkpt>
      <trkpt lat="59.4019523133" lon="17.8089052481">
        <ele>13.4</ele>
        <time>2013-05-05T19:51:01Z</time>
      </trkpt>
      <trkpt lat="59.401950134" lon="17.8091324814">
        <ele>13</ele>
        <time>2013-05-05T19:51:02Z</time>
      </trkpt>
      <trkpt lat="59.4019529" lon="17.8093544341">
        <ele>12.6</ele>
        <time>2013-05-05T19:51:03Z</time>
      </trkpt>
      <trkpt lat="59.4019799736" lon="17.8100572565">
        <ele>12.2</ele>
        <time>2013-05-05T19:51:06Z</time>
      </trkpt>
      <trkpt lat="59.401990451" lon="17.8102934584">
        <ele>11.6</ele>
        <time>2013-05-05T19:51:07Z</time>
      </trkpt>
      <trkpt lat="59.4020013474" lon="17.8105381261">
        <ele>11.2</ele>
        <time>2013-05-05T19:51:08Z</time>
      </trkpt>
      <trkpt lat="59.4020208773" lon="17.8107899183">
        <ele>10.8</ele>
        <time>2013-05-05T19:51:09Z</time>
      </trkpt>
      <trkpt lat="59.4020378087" lon="17.8110284672">
        <ele>10.4</ele>
        <time>2013-05-05T19:51:10Z</time>
      </trkpt>
      <trkpt lat="59.4020554107" lon="17.8112648368">
        <ele>9.8</ele>
        <time>2013-05-05T19:51:11Z</time>
      </trkpt>
      <trkpt lat="59.4020801373" lon="17.8115017931">
        <ele>9.4</ele>
        <time>2013-05-05T19:51:12Z</time>
      </trkpt>
      <trkpt lat="59.4021045286" lon="17.8117350614">
        <ele>8.8</ele>
        <time>2013-05-05T19:51:13Z</time>
      </trkpt>
      <trkpt lat="59.4021388106" lon="17.8119572656">
        <ele>8.4</ele>
        <time>2013-05-05T19:51:14Z</time>
      </trkpt>
      <trkpt lat="59.4021737631" lon="17.8121771228">
        <ele>7.8</ele>
        <time>2013-05-05T19:51:15Z</time>
      </trkpt>
      <trkpt lat="59.4022137448" lon="17.8124029312">
        <ele>7.4</ele>
        <time>2013-05-05T19:51:16Z</time>
      </trkpt>
      <trkpt lat="59.4022592585" lon="17.8126098803">
        <ele>7</ele>
        <time>2013-05-05T19:51:17Z</time>
      </trkpt>
      <trkpt lat="59.4023067839" lon="17.8128188411">
        <ele>6.6</ele>
        <time>2013-05-05T19:51:18Z</time>
      </trkpt>
      <trkpt lat="59.4023591707" lon="17.8130221859">
        <ele>6</ele>
        <time>2013-05-05T19:51:19Z</time>
      </trkpt>
      <trkpt lat="59.4024087916" lon="17.8132238545">
        <ele>5.4</ele>
        <time>2013-05-05T19:51:20Z</time>
      </trkpt>
      <trkpt lat="59.4024579095" lon="17.8134203262">
        <ele>4.8</ele>
        <time>2013-05-05T19:51:21Z</time>
      </trkpt>
      <trkpt lat="59.402539633" lon="17.813739006">
        <ele>3.6</ele>
        <time>2013-05-05T19:51:22Z</time>
      </trkpt>
      <trkpt lat="59.4025890024" lon="17.8139073984">
        <ele>3.6</ele>
        <time>2013-05-05T19:51:23Z</time>
      </trkpt>
      <trkpt lat="59.4029086881" lon="17.8149543815">
        <ele>3.6</ele>
        <time>2013-05-05T19:51:29Z</time>
      </trkpt>
      <trkpt lat="59.4029639248" lon="17.8151208461">
        <ele>3.6</ele>
        <time>2013-05-05T19:51:30Z</time>
      </trkpt>
      <trkpt lat="59.4030173175" lon="17.8152758274">
        <ele>3.2</ele>
        <time>2013-05-05T19:51:31Z</time>
      </trkpt>
      <trkpt lat="59.4030699559" lon="17.8154325689">
        <ele>2.8</ele>
        <time>2013-05-05T19:51:32Z</time>
      </trkpt>
      <trkpt lat="59.4031205825" lon="17.8155883885">
        <ele>2.2</ele>
        <time>2013-05-05T19:51:33Z</time>
      </trkpt>
      <trkpt lat="59.4031725503" lon="17.815748818">
        <ele>1.8</ele>
        <time>2013-05-05T19:51:34Z</time>
      </trkpt>
      <trkpt lat="59.4032215006" lon="17.8159137738">
        <ele>1.4</ele>
        <time>2013-05-05T19:51:35Z</time>
      </trkpt>
      <trkpt lat="59.4033171381" lon="17.816252654">
        <ele>1.4</ele>
        <time>2013-05-05T19:51:37Z</time>
      </trkpt>
      <trkpt lat="59.4036187189" lon="17.8172806102">
        <ele>1.4</ele>
        <time>2013-05-05T19:51:43Z</time>
      </trkpt>
      <trkpt lat="59.4037186311" lon="17.8176215859">
        <ele>1.4</ele>
        <time>2013-05-05T19:51:45Z</time>
      </trkpt>
      <trkpt lat="59.403921976" lon="17.8183157749">
        <ele>1</ele>
        <time>2013-05-05T19:51:49Z</time>
      </trkpt>
      <trkpt lat="59.4039712616" lon="17.8184940579">
        <ele>0.6</ele>
        <time>2013-05-05T19:51:50Z</time>
      </trkpt>
      <trkpt lat="59.4040171944" lon="17.8186731791">
        <ele>0</ele>
        <time>2013-05-05T19:51:51Z</time>
      </trkpt>
      <trkpt lat="59.4040608641" lon="17.8188512107">
        <ele>0</ele>
        <time>2013-05-05T19:51:52Z</time>
      </trkpt>
      <trkpt lat="59.4041084733" lon="17.8190385461">
        <ele>0</ele>
        <time>2013-05-05T19:51:53Z</time>
      </trkpt>
      <trkpt lat="59.4042598504" lon="17.8195630016">
        <ele>0</ele>
        <time>2013-05-05T19:51:56Z</time>
      </trkpt>
      <trkpt lat="59.4043101418" lon="17.819736926">
        <ele>0</ele>
        <time>2013-05-05T19:51:57Z</time>
      </trkpt>
      <trkpt lat="59.404355907" lon="17.8199188133">
        <ele>0</ele>
        <time>2013-05-05T19:51:58Z</time>
      </trkpt>
      <trkpt lat="59.4043953857" lon="17.8201033827">
        <ele>0</ele>
        <time>2013-05-05T19:51:59Z</time>
      </trkpt>
      <trkpt lat="59.4044352836" lon="17.8202919755">
        <ele>0</ele>
        <time>2013-05-05T19:52:00Z</time>
      </trkpt>
      <trkpt lat="59.4045632752" lon="17.8208503776">
        <ele>0</ele>
        <time>2013-05-05T19:52:03Z</time>
      </trkpt>
      <trkpt lat="59.4046416459" lon="17.8212176725">
        <ele>0</ele>
        <time>2013-05-05T19:52:05Z</time>
      </trkpt>
      <trkpt lat="59.4046759279" lon="17.8214040859">
        <ele>0</ele>
        <time>2013-05-05T19:52:06Z</time>
      </trkpt>
      <trkpt lat="59.4047055998" lon="17.8215914214">
        <ele>0</ele>
        <time>2013-05-05T19:52:07Z</time>
      </trkpt>
      <trkpt lat="59.4047351041" lon="17.8217789245">
        <ele>0</ele>
        <time>2013-05-05T19:52:08Z</time>
      </trkpt>
      <trkpt lat="59.4047631835" lon="17.8219744742">
        <ele>0</ele>
        <time>2013-05-05T19:52:09Z</time>
      </trkpt>
      <trkpt lat="59.4047899217" lon="17.8221644081">
        <ele>0</ele>
        <time>2013-05-05T19:52:10Z</time>
      </trkpt>
      <trkpt lat="59.4048361898" lon="17.822537235">
        <ele>0</ele>
        <time>2013-05-05T19:52:12Z</time>
      </trkpt>
      <trkpt lat="59.4048549653" lon="17.8227217206">
        <ele>0</ele>
        <time>2013-05-05T19:52:13Z</time>
      </trkpt>
      <trkpt lat="59.4048727349" lon="17.8229041108">
        <ele>0</ele>
        <time>2013-05-05T19:52:14Z</time>
      </trkpt>
      <trkpt lat="59.4048879062" lon="17.8230910271">
        <ele>0</ele>
        <time>2013-05-05T19:52:15Z</time>
      </trkpt>
      <trkpt lat="59.4048993055" lon="17.8232823021">
        <ele>0</ele>
        <time>2013-05-05T19:52:16Z</time>
      </trkpt>
      <trkpt lat="59.4049015687" lon="17.82346201">
        <ele>0</ele>
        <time>2013-05-05T19:52:17Z</time>
      </trkpt>
      <trkpt lat="59.4048919295" lon="17.8239908241">
        <ele>0</ele>
        <time>2013-05-05T19:52:20Z</time>
      </trkpt>
      <trkpt lat="59.4048390397" lon="17.8249886893">
        <ele>0</ele>
        <time>2013-05-05T19:52:26Z</time>
      </trkpt>
      <trkpt lat="59.4047649437" lon="17.8260637518">
        <ele>0</ele>
        <time>2013-05-05T19:52:33Z</time>
      </trkpt>
      <trkpt lat="59.4047074438" lon="17.8269384031">
        <ele>0</ele>
        <time>2013-05-05T19:52:39Z</time>
      </trkpt>
      <trkpt lat="59.4046278996" lon="17.8280292235">
        <ele>0</ele>
        <time>2013-05-05T19:52:47Z</time>
      </trkpt>
      <trkpt lat="59.4046197692" lon="17.8281538624">
        <ele>0</ele>
        <time>2013-05-05T19:52:48Z</time>
      </trkpt>
      <trkpt lat="59.4045509538" lon="17.8290985863">
        <ele>0</ele>
        <time>2013-05-05T19:52:56Z</time>
      </trkpt>
      <trkpt lat="59.4045304181" lon="17.8295056114">
        <ele>0</ele>
        <time>2013-05-05T19:53:00Z</time>
      </trkpt>
      <trkpt lat="59.4045246346" lon="17.8296139055">
        <ele>0</ele>
        <time>2013-05-05T19:53:01Z</time>
      </trkpt>
      <trkpt lat="59.4045207789" lon="17.8297140692">
        <ele>0</ele>
        <time>2013-05-05T19:53:02Z</time>
      </trkpt>
      <trkpt lat="59.4045142411" lon="17.8298113831">
        <ele>0</ele>
        <time>2013-05-05T19:53:03Z</time>
      </trkpt>
      <trkpt lat="59.4045099663" lon="17.8299058471">
        <ele>0</ele>
        <time>2013-05-05T19:53:04Z</time>
      </trkpt>
      <trkpt lat="59.4045022549" lon="17.8301837071">
        <ele>0</ele>
        <time>2013-05-05T19:53:07Z</time>
      </trkpt>
      <trkpt lat="59.404505943" lon="17.8302770815">
        <ele>0</ele>
        <time>2013-05-05T19:53:08Z</time>
      </trkpt>
      <trkpt lat="59.404508709" lon="17.8303679413">
        <ele>0</ele>
        <time>2013-05-05T19:53:09Z</time>
      </trkpt>
      <trkpt lat="59.404513822" lon="17.8304570409">
        <ele>0</ele>
        <time>2013-05-05T19:53:10Z</time>
      </trkpt>
      <trkpt lat="59.4045165042" lon="17.830542201">
        <ele>0</ele>
        <time>2013-05-05T19:53:11Z</time>
      </trkpt>
      <trkpt lat="59.4045183482" lon="17.8306277802">
        <ele>0</ele>
        <time>2013-05-05T19:53:12Z</time>
      </trkpt>
      <trkpt lat="59.4045237126" lon="17.8307986871">
        <ele>0</ele>
        <time>2013-05-05T19:53:14Z</time>
      </trkpt>
      <trkpt lat="59.4045275683" lon="17.8308803268">
        <ele>0</ele>
        <time>2013-05-05T19:53:15Z</time>
      </trkpt>
      <trkpt lat="59.4045311725" lon="17.8309633914">
        <ele>0</ele>
        <time>2013-05-05T19:53:16Z</time>
      </trkpt>
      <trkpt lat="59.4045371236" lon="17.8310375713">
        <ele>0</ele>
        <time>2013-05-05T19:53:17Z</time>
      </trkpt>
      <trkpt lat="59.404547601" lon="17.8311849251">
        <ele>0</ele>
        <time>2013-05-05T19:53:19Z</time>
      </trkpt>
      <trkpt lat="59.4045546418" lon="17.8312612003">
        <ele>0.4</ele>
        <time>2013-05-05T19:53:20Z</time>
      </trkpt>
      <trkpt lat="59.4045619341" lon="17.8313377271">
        <ele>0.8</ele>
        <time>2013-05-05T19:53:21Z</time>
      </trkpt>
      <trkpt lat="59.4045694778" lon="17.8314136671">
        <ele>1.2</ele>
        <time>2013-05-05T19:53:22Z</time>
      </trkpt>
      <trkpt lat="59.4045765186" lon="17.8314885175">
        <ele>1.8</ele>
        <time>2013-05-05T19:53:23Z</time>
      </trkpt>
      <trkpt lat="59.4045877503" lon="17.8316353684">
        <ele>1.8</ele>
        <time>2013-05-05T19:53:25Z</time>
      </trkpt>
      <trkpt lat="59.4046079507" lon="17.8318415631">
        <ele>2.2</ele>
        <time>2013-05-05T19:53:28Z</time>
      </trkpt>
      <trkpt lat="59.4046164164" lon="17.8319079478">
        <ele>2.6</ele>
        <time>2013-05-05T19:53:29Z</time>
      </trkpt>
      <trkpt lat="59.4046238763" lon="17.8319762602">
        <ele>3</ele>
        <time>2013-05-05T19:53:30Z</time>
      </trkpt>
      <trkpt lat="59.4046308333" lon="17.8320443213">
        <ele>3.6</ele>
        <time>2013-05-05T19:53:31Z</time>
      </trkpt>
      <trkpt lat="59.4046398857" lon="17.8321138072">
        <ele>4</ele>
        <time>2013-05-05T19:53:32Z</time>
      </trkpt>
      <trkpt lat="59.4046506984" lon="17.8321816168">
        <ele>4</ele>
        <time>2013-05-05T19:53:33Z</time>
      </trkpt>
      <trkpt lat="59.4046846451" lon="17.8324610693">
        <ele>4.4</ele>
        <time>2013-05-05T19:53:37Z</time>
      </trkpt>
      <trkpt lat="59.4046945357" lon="17.8325331537">
        <ele>4.8</ele>
        <time>2013-05-05T19:53:38Z</time>
      </trkpt>
      <trkpt lat="59.40470275" lon="17.8326058247">
        <ele>5.2</ele>
        <time>2013-05-05T19:53:39Z</time>
      </trkpt>
      <trkpt lat="59.4047134788" lon="17.8326780767">
        <ele>6.2</ele>
        <time>2013-05-05T19:53:40Z</time>
      </trkpt>
      <trkpt lat="59.4047729903" lon="17.8330800726">
        <ele>6.6</ele>
        <time>2013-05-05T19:53:46Z</time>
      </trkpt>
      <trkpt lat="59.404785647" lon="17.8331448647">
        <ele>7</ele>
        <time>2013-05-05T19:53:47Z</time>
      </trkpt>
      <trkpt lat="59.4048008182" lon="17.8332108303">
        <ele>7.4</ele>
        <time>2013-05-05T19:53:48Z</time>
      </trkpt>
      <trkpt lat="59.4048144807" lon="17.8332819926">
        <ele>7.8</ele>
        <time>2013-05-05T19:53:49Z</time>
      </trkpt>
      <trkpt lat="59.4048290652" lon="17.8333514786">
        <ele>8.2</ele>
        <time>2013-05-05T19:53:50Z</time>
      </trkpt>
      <trkpt lat="59.404894444" lon="17.833636547">
        <ele>8.2</ele>
        <time>2013-05-05T19:53:54Z</time>
      </trkpt>
      <trkpt lat="59.4049889919" lon="17.8339395527">
        <ele>8.6</ele>
        <time>2013-05-05T19:53:58Z</time>
      </trkpt>
      <trkpt lat="59.405014389" lon="17.8340138163">
        <ele>9</ele>
        <time>2013-05-05T19:53:59Z</time>
      </trkpt>
      <trkpt lat="59.4050387804" lon="17.8340879123">
        <ele>9.4</ele>
        <time>2013-05-05T19:54:00Z</time>
      </trkpt>
      <trkpt lat="59.4050636746" lon="17.8341680433">
        <ele>9.8</ele>
        <time>2013-05-05T19:54:01Z</time>
      </trkpt>
      <trkpt lat="59.4050891556" lon="17.8342456597">
        <ele>10.2</ele>
        <time>2013-05-05T19:54:02Z</time>
      </trkpt>
      <trkpt lat="59.4052131239" lon="17.8345535268">
        <ele>10.2</ele>
        <time>2013-05-05T19:54:06Z</time>
      </trkpt>
      <trkpt lat="59.4052506748" lon="17.834627539">
        <ele>10.2</ele>
        <time>2013-05-05T19:54:07Z</time>
      </trkpt>
      <trkpt lat="59.4052864655" lon="17.8347083405">
        <ele>10.2</ele>
        <time>2013-05-05T19:54:08Z</time>
      </trkpt>
      <trkpt lat="59.4054522595" lon="17.8350383359">
        <ele>10.2</ele>
        <time>2013-05-05T19:54:12Z</time>
      </trkpt>
      <trkpt lat="59.4057001961" lon="17.8356233926">
        <ele>10.2</ele>
        <time>2013-05-05T19:54:18Z</time>
      </trkpt>
      <trkpt lat="59.4059585262" lon="17.836304841">
        <ele>10.2</ele>
        <time>2013-05-05T19:54:24Z</time>
      </trkpt>
      <trkpt lat="59.4061309419" lon="17.8368250217">
        <ele>10.2</ele>
        <time>2013-05-05T19:54:28Z</time>
      </trkpt>
      <trkpt lat="59.4062500487" lon="17.8372809971">
        <ele>9.8</ele>
        <time>2013-05-05T19:54:31Z</time>
      </trkpt>
      <trkpt lat="59.4062896113" lon="17.8374449471">
        <ele>9.4</ele>
        <time>2013-05-05T19:54:32Z</time>
      </trkpt>
      <trkpt lat="59.406330515" lon="17.8376249065">
        <ele>9</ele>
        <time>2013-05-05T19:54:33Z</time>
      </trkpt>
      <trkpt lat="59.4063663057" lon="17.8378050335">
        <ele>8.6</ele>
        <time>2013-05-05T19:54:34Z</time>
      </trkpt>
      <trkpt lat="59.40640042" lon="17.8379927881">
        <ele>8.2</ele>
        <time>2013-05-05T19:54:35Z</time>
      </trkpt>
      <trkpt lat="59.4064310978" lon="17.8381712387">
        <ele>7.6</ele>
        <time>2013-05-05T19:54:36Z</time>
      </trkpt>
      <trkpt lat="59.4064591771" lon="17.8383357754">
        <ele>7.2</ele>
        <time>2013-05-05T19:54:37Z</time>
      </trkpt>
      <trkpt lat="59.4064849096" lon="17.8384858952">
        <ele>6.6</ele>
        <time>2013-05-05T19:54:38Z</time>
      </trkpt>
      <trkpt lat="59.4065090494" lon="17.8386200056">
        <ele>6</ele>
        <time>2013-05-05T19:54:39Z</time>
      </trkpt>
      <trkpt lat="59.4065341951" lon="17.8387581393">
        <ele>5.4</ele>
        <time>2013-05-05T19:54:40Z</time>
      </trkpt>
      <trkpt lat="59.406559257" lon="17.8388891484">
        <ele>4.8</ele>
        <time>2013-05-05T19:54:41Z</time>
      </trkpt>
      <trkpt lat="59.4065846542" lon="17.8390223368">
        <ele>4.2</ele>
        <time>2013-05-05T19:54:42Z</time>
      </trkpt>
      <trkpt lat="59.4066144937" lon="17.8391543518">
        <ele>3.6</ele>
        <time>2013-05-05T19:54:43Z</time>
      </trkpt>
      <trkpt lat="59.4066413996" lon="17.8392716984">
        <ele>3</ele>
        <time>2013-05-05T19:54:44Z</time>
      </trkpt>
      <trkpt lat="59.4066598398" lon="17.8393711915">
        <ele>2.4</ele>
        <time>2013-05-05T19:54:45Z</time>
      </trkpt>
      <trkpt lat="59.4066689761" lon="17.8394574413">
        <ele>1.8</ele>
        <time>2013-05-05T19:54:46Z</time>
      </trkpt>
      <trkpt lat="59.4066727479" lon="17.8395241612">
        <ele>1.4</ele>
        <time>2013-05-05T19:54:47Z</time>
      </trkpt>
      <trkpt lat="59.4066699819" lon="17.839573782">
        <ele>0.8</ele>
        <time>2013-05-05T19:54:48Z</time>
      </trkpt>
      <trkpt lat="59.4066631088" lon="17.8396187928">
        <ele>0.4</ele>
        <time>2013-05-05T19:54:49Z</time>
      </trkpt>
      <trkpt lat="59.4066523799" lon="17.8396670726">
        <ele>0</ele>
        <time>2013-05-05T19:54:50Z</time>
      </trkpt>
      <trkpt lat="59.4066331016" lon="17.8397228122">
        <ele>0</ele>
        <time>2013-05-05T19:54:51Z</time>
      </trkpt>
      <trkpt lat="59.4066041002" lon="17.8397750315">
        <ele>0</ele>
        <time>2013-05-05T19:54:52Z</time>
      </trkpt>
      <trkpt lat="59.4065651243" lon="17.8398199584">
        <ele>0</ele>
        <time>2013-05-05T19:54:53Z</time>
      </trkpt>
      <trkpt lat="59.4065198621" lon="17.8398662265">
        <ele>0</ele>
        <time>2013-05-05T19:54:54Z</time>
      </trkpt>
      <trkpt lat="59.4063399027" lon="17.8400228004">
        <ele>0</ele>
        <time>2013-05-05T19:54:57Z</time>
      </trkpt>
      <trkpt lat="59.4058506512" lon="17.8404438233">
        <ele>0</ele>
        <time>2013-05-05T19:55:04Z</time>
      </trkpt>
      <trkpt lat="59.4053814324" lon="17.8409220945">
        <ele>0</ele>
        <time>2013-05-05T19:55:10Z</time>
      </trkpt>
      <trkpt lat="59.4051310651" lon="17.8411747249">
        <ele>0</ele>
        <time>2013-05-05T19:55:13Z</time>
      </trkpt>
      <trkpt lat="59.4050478328" lon="17.8412578734">
        <ele>0</ele>
        <time>2013-05-05T19:55:14Z</time>
      </trkpt>
      <trkpt lat="59.4049617507" lon="17.8413408542">
        <ele>0</ele>
        <time>2013-05-05T19:55:15Z</time>
      </trkpt>
      <trkpt lat="59.4048752495" lon="17.8414185544">
        <ele>0</ele>
        <time>2013-05-05T19:55:16Z</time>
      </trkpt>
      <trkpt lat="59.4047831324" lon="17.8414975957">
        <ele>0</ele>
        <time>2013-05-05T19:55:17Z</time>
      </trkpt>
      <trkpt lat="59.4046944519" lon="17.8415788163">
        <ele>0</ele>
        <time>2013-05-05T19:55:18Z</time>
      </trkpt>
      <trkpt lat="59.4042305976" lon="17.8419828239">
        <ele>0</ele>
        <time>2013-05-05T19:55:23Z</time>
      </trkpt>
      <trkpt lat="59.4041372232" lon="17.8420574228">
        <ele>0</ele>
        <time>2013-05-05T19:55:24Z</time>
      </trkpt>
      <trkpt lat="59.4040374786" lon="17.8421376376">
        <ele>0</ele>
        <time>2013-05-05T19:55:25Z</time>
      </trkpt>
      <trkpt lat="59.4039430984" lon="17.842211566">
        <ele>0</ele>
        <time>2013-05-05T19:55:26Z</time>
      </trkpt>
      <trkpt lat="59.4038483829" lon="17.8422818901">
        <ele>0</ele>
        <time>2013-05-05T19:55:27Z</time>
      </trkpt>
      <trkpt lat="59.4034708621" lon="17.8425326766">
        <ele>0</ele>
        <time>2013-05-05T19:55:31Z</time>
      </trkpt>
      <trkpt lat="59.4029469934" lon="17.8428679526">
        <ele>0</ele>
        <time>2013-05-05T19:55:37Z</time>
      </trkpt>
      <trkpt lat="59.4027738233" lon="17.8430001351">
        <ele>0</ele>
        <time>2013-05-05T19:55:38Z</time>
      </trkpt>
      <trkpt lat="59.4023979789" lon="17.8434356586">
        <ele>0</ele>
        <time>2013-05-05T19:55:45Z</time>
      </trkpt>
      <trkpt lat="59.4019557499" lon="17.8441628723">
        <ele>0</ele>
        <time>2013-05-05T19:55:51Z</time>
      </trkpt>
      <trkpt lat="59.4017989245" lon="17.8444559873">
        <ele>0</ele>
        <time>2013-05-05T19:55:53Z</time>
      </trkpt>
      <trkpt lat="59.4017226493" lon="17.8445986473">
        <ele>0</ele>
        <time>2013-05-05T19:55:54Z</time>
      </trkpt>
      <trkpt lat="59.4016436079" lon="17.8447434027">
        <ele>0</ele>
        <time>2013-05-05T19:55:55Z</time>
      </trkpt>
      <trkpt lat="59.4015689252" lon="17.844882626">
        <ele>0</ele>
        <time>2013-05-05T19:55:56Z</time>
      </trkpt>
      <trkpt lat="59.4014984334" lon="17.8450182452">
        <ele>0</ele>
        <time>2013-05-05T19:55:57Z</time>
      </trkpt>
      <trkpt lat="59.4014303724" lon="17.8451510983">
        <ele>0</ele>
        <time>2013-05-05T19:55:58Z</time>
      </trkpt>
      <trkpt lat="59.4013642392" lon="17.8452843705">
        <ele>0</ele>
        <time>2013-05-05T19:55:59Z</time>
      </trkpt>
      <trkpt lat="59.4012992795" lon="17.8454227557">
        <ele>0</ele>
        <time>2013-05-05T19:56:00Z</time>
      </trkpt>
      <trkpt lat="59.4010044881" lon="17.8461469518">
        <ele>0</ele>
        <time>2013-05-05T19:56:05Z</time>
      </trkpt>
      <trkpt lat="59.4006338404" lon="17.847102237">
        <ele>0</ele>
        <time>2013-05-05T19:56:11Z</time>
      </trkpt>
      <trkpt lat="59.4005712277" lon="17.8472671928">
        <ele>0</ele>
        <time>2013-05-05T19:56:12Z</time>
      </trkpt>
      <trkpt lat="59.4002018373" lon="17.8482676564">
        <ele>0</ele>
        <time>2013-05-05T19:56:18Z</time>
      </trkpt>
      <trkpt lat="59.4000847422" lon="17.8485738472">
        <ele>0</ele>
        <time>2013-05-05T19:56:20Z</time>
      </trkpt>
      <trkpt lat="59.3999295094" lon="17.8489698081">
        <ele>0</ele>
        <time>2013-05-05T19:56:23Z</time>
      </trkpt>
      <trkpt lat="59.399892629" lon="17.8490641883">
        <ele>0</ele>
        <time>2013-05-05T19:56:24Z</time>
      </trkpt>
      <trkpt lat="59.399860694" lon="17.8491475044">
        <ele>0</ele>
        <time>2013-05-05T19:56:25Z</time>
      </trkpt>
      <trkpt lat="59.399835213" lon="17.8492173256">
        <ele>0</ele>
        <time>2013-05-05T19:56:26Z</time>
      </trkpt>
      <trkpt lat="59.3998134201" lon="17.8492941876">
        <ele>0</ele>
        <time>2013-05-05T19:56:27Z</time>
      </trkpt>
      <trkpt lat="59.3997801439" lon="17.8493713849">
        <ele>0</ele>
        <time>2013-05-05T19:56:28Z</time>
      </trkpt>
      <trkpt lat="59.399618038" lon="17.8496717084">
        <ele>0</ele>
        <time>2013-05-05T19:56:31Z</time>
      </trkpt>
      <trkpt lat="59.399290641" lon="17.8502741156">
        <ele>0</ele>
        <time>2013-05-05T19:56:36Z</time>
      </trkpt>
      <trkpt lat="59.3988085979" lon="17.8509973897">
        <ele>0</ele>
        <time>2013-05-05T19:56:43Z</time>
      </trkpt>
      <trkpt lat="59.3983542151" lon="17.8516436342">
        <ele>0</ele>
        <time>2013-05-05T19:56:50Z</time>
      </trkpt>
      <trkpt lat="59.397979628" lon="17.8521766392">
        <ele>0</ele>
        <time>2013-05-05T19:56:56Z</time>
      </trkpt>
      <trkpt lat="59.3974985069" lon="17.8528651285">
        <ele>0</ele>
        <time>2013-05-05T19:57:04Z</time>
      </trkpt>
      <trkpt lat="59.3970793281" lon="17.8534725648">
        <ele>0</ele>
        <time>2013-05-05T19:57:11Z</time>
      </trkpt>
      <trkpt lat="59.3965989614" lon="17.8541597968">
        <ele>0</ele>
        <time>2013-05-05T19:57:19Z</time>
      </trkpt>
      <trkpt lat="59.3961164993" lon="17.8548522255">
        <ele>0</ele>
        <time>2013-05-05T19:57:27Z</time>
      </trkpt>
      <trkpt lat="59.3960583289" lon="17.8549359607">
        <ele>0</ele>
        <time>2013-05-05T19:57:28Z</time>
      </trkpt>
      <trkpt lat="59.3956033593" lon="17.8555775113">
        <ele>0</ele>
        <time>2013-05-05T19:57:36Z</time>
      </trkpt>
      <trkpt lat="59.3954504735" lon="17.8558236039">
        <ele>0</ele>
        <time>2013-05-05T19:57:39Z</time>
      </trkpt>
      <trkpt lat="59.3953538302" lon="17.8560088439">
        <ele>0</ele>
        <time>2013-05-05T19:57:41Z</time>
      </trkpt>
      <trkpt lat="59.3950466335" lon="17.8564290286">
        <ele>0</ele>
        <time>2013-05-05T19:57:47Z</time>
      </trkpt>
      <trkpt lat="59.3947405266" lon="17.8568364727">
        <ele>0</ele>
        <time>2013-05-05T19:57:54Z</time>
      </trkpt>
      <trkpt lat="59.3946994552" lon="17.8569110716">
        <ele>0</ele>
        <time>2013-05-05T19:57:55Z</time>
      </trkpt>
      <trkpt lat="59.3946622396" lon="17.8571362095">
        <ele>0</ele>
        <time>2013-05-05T19:57:57Z</time>
      </trkpt>
      <trkpt lat="59.3946953481" lon="17.8573692263">
        <ele>0</ele>
        <time>2013-05-05T19:57:59Z</time>
      </trkpt>
      <trkpt lat="59.3947302168" lon="17.8574726589">
        <ele>0</ele>
        <time>2013-05-05T19:58:00Z</time>
      </trkpt>
      <trkpt lat="59.3947639959" lon="17.8575789414">
        <ele>0</ele>
        <time>2013-05-05T19:58:01Z</time>
      </trkpt>
      <trkpt lat="59.3948016306" lon="17.8576899178">
        <ele>0</ele>
        <time>2013-05-05T19:58:02Z</time>
      </trkpt>
      <trkpt lat="59.3948409417" lon="17.8577905844">
        <ele>0</ele>
        <time>2013-05-05T19:58:03Z</time>
      </trkpt>
      <trkpt lat="59.3949530915" lon="17.8580949312">
        <ele>0</ele>
        <time>2013-05-05T19:58:06Z</time>
      </trkpt>
      <trkpt lat="59.3949886308" lon="17.8581954302">
        <ele>0</ele>
        <time>2013-05-05T19:58:07Z</time>
      </trkpt>
      <trkpt lat="59.3952648144" lon="17.8589622902">
        <ele>0</ele>
        <time>2013-05-05T19:58:15Z</time>
      </trkpt>
      <trkpt lat="59.3953461188" lon="17.8591389807">
        <ele>0</ele>
        <time>2013-05-05T19:58:17Z</time>
      </trkpt>
      <trkpt lat="59.3953879445" lon="17.8592247275">
        <ele>0</ele>
        <time>2013-05-05T19:58:18Z</time>
      </trkpt>
      <trkpt lat="59.3954309437" lon="17.8593080436">
        <ele>0</ele>
        <time>2013-05-05T19:58:19Z</time>
      </trkpt>
      <trkpt lat="59.3954777147" lon="17.8593846541">
        <ele>0</ele>
        <time>2013-05-05T19:58:20Z</time>
      </trkpt>
      <trkpt lat="59.3955225578" lon="17.8594610971">
        <ele>0</ele>
        <time>2013-05-05T19:58:21Z</time>
      </trkpt>
      <trkpt lat="59.3955705023" lon="17.8595310859">
        <ele>0</ele>
        <time>2013-05-05T19:58:22Z</time>
      </trkpt>
      <trkpt lat="59.395706792" lon="17.8597340956">
        <ele>0</ele>
        <time>2013-05-05T19:58:25Z</time>
      </trkpt>
      <trkpt lat="59.3957540659" lon="17.859800564">
        <ele>0</ele>
        <time>2013-05-05T19:58:26Z</time>
      </trkpt>
      <trkpt lat="59.3958007531" lon="17.85985798">
        <ele>0</ele>
        <time>2013-05-05T19:58:27Z</time>
      </trkpt>
      <trkpt lat="59.3958490328" lon="17.8599104507">
        <ele>0</ele>
        <time>2013-05-05T19:58:28Z</time>
      </trkpt>
      <trkpt lat="59.3958956362" lon="17.8599577246">
        <ele>0</ele>
        <time>2013-05-05T19:58:29Z</time>
      </trkpt>
      <trkpt lat="59.3961857338" lon="17.8601658472">
        <ele>0</ele>
        <time>2013-05-05T19:58:35Z</time>
      </trkpt>
      <trkpt lat="59.3962315827" lon="17.8601933399">
        <ele>0</ele>
        <time>2013-05-05T19:58:36Z</time>
      </trkpt>
      <trkpt lat="59.3962752524" lon="17.8602184017">
        <ele>0</ele>
        <time>2013-05-05T19:58:37Z</time>
      </trkpt>
      <trkpt lat="59.3963188383" lon="17.8602448885">
        <ele>0</ele>
        <time>2013-05-05T19:58:38Z</time>
      </trkpt>
      <trkpt lat="59.3965034916" lon="17.8603515901">
        <ele>0</ele>
        <time>2013-05-05T19:58:42Z</time>
      </trkpt>
      <trkpt lat="59.396547748" lon="17.8603762329">
        <ele>0</ele>
        <time>2013-05-05T19:58:43Z</time>
      </trkpt>
      <trkpt lat="59.3965934294" lon="17.8603995346">
        <ele>0</ele>
        <time>2013-05-05T19:58:44Z</time>
      </trkpt>
      <trkpt lat="59.3966400327" lon="17.8604227525">
        <ele>0</ele>
        <time>2013-05-05T19:58:45Z</time>
      </trkpt>
      <trkpt lat="59.3966869714" lon="17.8604438748">
        <ele>0</ele>
        <time>2013-05-05T19:58:46Z</time>
      </trkpt>
      <trkpt lat="59.3968772405" lon="17.8605520852">
        <ele>0</ele>
        <time>2013-05-05T19:58:50Z</time>
      </trkpt>
      <trkpt lat="59.397020571" lon="17.8606245048">
        <ele>0</ele>
        <time>2013-05-05T19:58:53Z</time>
      </trkpt>
      <trkpt lat="59.3970685155" lon="17.8606486447">
        <ele>0</ele>
        <time>2013-05-05T19:58:54Z</time>
      </trkpt>
      <trkpt lat="59.3971166276" lon="17.8606741256">
        <ele>0</ele>
        <time>2013-05-05T19:58:55Z</time>
      </trkpt>
      <trkpt lat="59.3971663322" lon="17.8606969244">
        <ele>0</ele>
        <time>2013-05-05T19:58:56Z</time>
      </trkpt>
      <trkpt lat="59.3972126003" lon="17.8607235788">
        <ele>0</ele>
        <time>2013-05-05T19:58:57Z</time>
      </trkpt>
      <trkpt lat="59.3972566053" lon="17.8607504847">
        <ele>0</ele>
        <time>2013-05-05T19:58:58Z</time>
      </trkpt>
      <trkpt lat="59.3975946473" lon="17.8609270076">
        <ele>0</ele>
        <time>2013-05-05T19:59:05Z</time>
      </trkpt>
      <trkpt lat="59.3978334477" lon="17.8610615371">
        <ele>0.4</ele>
        <time>2013-05-05T19:59:10Z</time>
      </trkpt>
      <trkpt lat="59.3978862536" lon="17.8610916281">
        <ele>0.8</ele>
        <time>2013-05-05T19:59:11Z</time>
      </trkpt>
      <trkpt lat="59.397936545" lon="17.8611244013">
        <ele>1.2</ele>
        <time>2013-05-05T19:59:12Z</time>
      </trkpt>
      <trkpt lat="59.3979890995" lon="17.861155582">
        <ele>1.6</ele>
        <time>2013-05-05T19:59:13Z</time>
      </trkpt>
      <trkpt lat="59.3980446715" lon="17.8611835775">
        <ele>2</ele>
        <time>2013-05-05T19:59:14Z</time>
      </trkpt>
      <trkpt lat="59.3983527902" lon="17.8613523052">
        <ele>2</ele>
        <time>2013-05-05T19:59:19Z</time>
      </trkpt>
      <trkpt lat="59.3987583903" lon="17.8615587514">
        <ele>2</ele>
        <time>2013-05-05T19:59:25Z</time>
      </trkpt>
      <trkpt lat="59.3991935786" lon="17.8618328395">
        <ele>2</ele>
        <time>2013-05-05T19:59:31Z</time>
      </trkpt>
      <trkpt lat="59.3993442851" lon="17.8619472524">
        <ele>1.6</ele>
        <time>2013-05-05T19:59:33Z</time>
      </trkpt>
      <trkpt lat="59.3994243323" lon="17.8620072668">
        <ele>1.2</ele>
        <time>2013-05-05T19:59:34Z</time>
      </trkpt>
      <trkpt lat="59.3995019487" lon="17.8620680356">
        <ele>0.8</ele>
        <time>2013-05-05T19:59:35Z</time>
      </trkpt>
      <trkpt lat="59.3995799842" lon="17.8621333306">
        <ele>0.4</ele>
        <time>2013-05-05T19:59:36Z</time>
      </trkpt>
      <trkpt lat="59.3996580196" lon="17.8621943508">
        <ele>0</ele>
        <time>2013-05-05T19:59:37Z</time>
      </trkpt>
      <trkpt lat="59.3998187845" lon="17.8623210013">
        <ele>0</ele>
        <time>2013-05-05T19:59:39Z</time>
      </trkpt>
      <trkpt lat="59.4002951279" lon="17.8627243384">
        <ele>0</ele>
        <time>2013-05-05T19:59:45Z</time>
      </trkpt>
      <trkpt lat="59.4003689724" lon="17.8627910583">
        <ele>0</ele>
        <time>2013-05-05T19:59:46Z</time>
      </trkpt>
      <trkpt lat="59.40044047" lon="17.8628522462">
        <ele>0</ele>
        <time>2013-05-05T19:59:47Z</time>
      </trkpt>
      <trkpt lat="59.4005130573" lon="17.862905136">
        <ele>0</ele>
        <time>2013-05-05T19:59:48Z</time>
      </trkpt>
      <trkpt lat="59.4005866503" lon="17.8629459558">
        <ele>0</ele>
        <time>2013-05-05T19:59:49Z</time>
      </trkpt>
      <trkpt lat="59.4007402906" lon="17.8630010249">
        <ele>0</ele>
        <time>2013-05-05T19:59:51Z</time>
      </trkpt>
      <trkpt lat="59.4012332301" lon="17.8630902083">
        <ele>0</ele>
        <time>2013-05-05T19:59:57Z</time>
      </trkpt>
      <trkpt lat="59.4018132576" lon="17.8632066329">
        <ele>0</ele>
        <time>2013-05-05T20:00:03Z</time>
      </trkpt>
      <trkpt lat="59.4019192048" lon="17.8632430103">
        <ele>0</ele>
        <time>2013-05-05T20:00:04Z</time>
      </trkpt>
      <trkpt lat="59.4020291753" lon="17.8632966545">
        <ele>0</ele>
        <time>2013-05-05T20:00:05Z</time>
      </trkpt>
      <trkpt lat="59.4021328594" lon="17.8633633744">
        <ele>0</ele>
        <time>2013-05-05T20:00:06Z</time>
      </trkpt>
      <trkpt lat="59.4022352863" lon="17.8634442598">
        <ele>0</ele>
        <time>2013-05-05T20:00:07Z</time>
      </trkpt>
      <trkpt lat="59.4024276509" lon="17.863610389">
        <ele>0</ele>
        <time>2013-05-05T20:00:09Z</time>
      </trkpt>
      <trkpt lat="59.4025224502" lon="17.8636975608">
        <ele>0</ele>
        <time>2013-05-05T20:00:10Z</time>
      </trkpt>
      <trkpt lat="59.4026177524" lon="17.8637873309">
        <ele>0</ele>
        <time>2013-05-05T20:00:11Z</time>
      </trkpt>
      <trkpt lat="59.4027161559" lon="17.8638751732">
        <ele>0</ele>
        <time>2013-05-05T20:00:12Z</time>
      </trkpt>
      <trkpt lat="59.4028108713" lon="17.8639501074">
        <ele>0</ele>
        <time>2013-05-05T20:00:13Z</time>
      </trkpt>
      <trkpt lat="59.4031440519" lon="17.864209192">
        <ele>0</ele>
        <time>2013-05-05T20:00:17Z</time>
      </trkpt>
      <trkpt lat="59.4032157171" lon="17.8642731459">
        <ele>0</ele>
        <time>2013-05-05T20:00:18Z</time>
      </trkpt>
      <trkpt lat="59.4032800063" lon="17.8643475771">
        <ele>0</ele>
        <time>2013-05-05T20:00:19Z</time>
      </trkpt>
      <trkpt lat="59.4033506657" lon="17.8644163087">
        <ele>0</ele>
        <time>2013-05-05T20:00:20Z</time>
      </trkpt>
      <trkpt lat="59.4034776515" lon="17.864539355">
        <ele>0</ele>
        <time>2013-05-05T20:00:22Z</time>
      </trkpt>
      <trkpt lat="59.4036391707" lon="17.8646878823">
        <ele>0</ele>
        <time>2013-05-05T20:00:26Z</time>
      </trkpt>
      <trkpt lat="59.4036942398" lon="17.8647404368">
        <ele>0</ele>
        <time>2013-05-05T20:00:30Z</time>
      </trkpt>
      <trkpt lat="59.4037047171" lon="17.8647428675">
        <ele>0</ele>
        <time>2013-05-05T20:00:31Z</time>
      </trkpt>
      <trkpt lat="59.4038487182" lon="17.864802379">
        <ele>0</ele>
        <time>2013-05-05T20:01:02Z</time>
      </trkpt>
      <trkpt lat="59.4039139294" lon="17.8647560271">
        <ele>0</ele>
        <time>2013-05-05T20:01:04Z</time>
      </trkpt>
      <trkpt lat="59.4040598583" lon="17.864508342">
        <ele>0</ele>
        <time>2013-05-05T20:01:08Z</time>
      </trkpt>
      <trkpt lat="59.4041020192" lon="17.8644506745">
        <ele>0</ele>
        <time>2013-05-05T20:01:09Z</time>
      </trkpt>
      <trkpt lat="59.4042621135" lon="17.8643103615">
        <ele>0</ele>
        <time>2013-05-05T20:01:12Z</time>
      </trkpt>
      <trkpt lat="59.4044624409" lon="17.8643012252">
        <ele>0</ele>
        <time>2013-05-05T20:01:15Z</time>
      </trkpt>
      <trkpt lat="59.404535112" lon="17.8643565458">
        <ele>0</ele>
        <time>2013-05-05T20:01:16Z</time>
      </trkpt>
      <trkpt lat="59.4046023348" lon="17.8644298874">
        <ele>0</ele>
        <time>2013-05-05T20:01:17Z</time>
      </trkpt>
      <trkpt lat="59.4046698929" lon="17.8645056598">
        <ele>0</ele>
        <time>2013-05-05T20:01:18Z</time>
      </trkpt>
      <trkpt lat="59.4047272251" lon="17.8645887244">
        <ele>0</ele>
        <time>2013-05-05T20:01:19Z</time>
      </trkpt>
      <trkpt lat="59.4047888321" lon="17.8646276164">
        <ele>0</ele>
        <time>2013-05-05T20:01:20Z</time>
      </trkpt>
      <trkpt lat="59.4049787659" lon="17.8645136226">
        <ele>0</ele>
        <time>2013-05-05T20:01:23Z</time>
      </trkpt>
      <trkpt lat="59.4050949391" lon="17.8642035761">
        <ele>0</ele>
        <time>2013-05-05T20:01:26Z</time>
      </trkpt>
      <trkpt lat="59.4051430512" lon="17.8637234609">
        <ele>0</ele>
        <time>2013-05-05T20:01:30Z</time>
      </trkpt>
      <trkpt lat="59.4050870601" lon="17.8633459401">
        <ele>0</ele>
        <time>2013-05-05T20:01:33Z</time>
      </trkpt>
      <trkpt lat="59.404946328" lon="17.8630342172">
        <ele>0</ele>
        <time>2013-05-05T20:01:36Z</time>
      </trkpt>
      <trkpt lat="59.4048912589" lon="17.8629460396">
        <ele>0</ele>
        <time>2013-05-05T20:01:37Z</time>
      </trkpt>
      <trkpt lat="59.4048371118" lon="17.8628591193">
        <ele>0</ele>
        <time>2013-05-05T20:01:38Z</time>
      </trkpt>
      <trkpt lat="59.4047873234" lon="17.8627708579">
        <ele>0</ele>
        <time>2013-05-05T20:01:39Z</time>
      </trkpt>
      <trkpt lat="59.404742564" lon="17.8626831832">
        <ele>0</ele>
        <time>2013-05-05T20:01:40Z</time>
      </trkpt>
      <trkpt lat="59.4046812923" lon="17.8624795869">
        <ele>0</ele>
        <time>2013-05-05T20:01:42Z</time>
      </trkpt>
      <trkpt lat="59.4046793645" lon="17.862102569">
        <ele>0</ele>
        <time>2013-05-05T20:01:46Z</time>
      </trkpt>
      <trkpt lat="59.4047864852" lon="17.8617700591">
        <ele>0</ele>
        <time>2013-05-05T20:01:49Z</time>
      </trkpt>
      <trkpt lat="59.4049581465" lon="17.8611855892">
        <ele>0</ele>
        <time>2013-05-05T20:01:55Z</time>
      </trkpt>
      <trkpt lat="59.4049800232" lon="17.8610891973">
        <ele>0</ele>
        <time>2013-05-05T20:01:56Z</time>
      </trkpt>
      <trkpt lat="59.4050031573" lon="17.860995823">
        <ele>0</ele>
        <time>2013-05-05T20:01:57Z</time>
      </trkpt>
      <trkpt lat="59.4050232738" lon="17.8609003531">
        <ele>0</ele>
        <time>2013-05-05T20:01:58Z</time>
      </trkpt>
      <trkpt lat="59.4050407082" lon="17.8608022011">
        <ele>0</ele>
        <time>2013-05-05T20:01:59Z</time>
      </trkpt>
      <trkpt lat="59.4050573044" lon="17.8607120118">
        <ele>0</ele>
        <time>2013-05-05T20:02:00Z</time>
      </trkpt>
      <trkpt lat="59.4050946038" lon="17.8604333975">
        <ele>0</ele>
        <time>2013-05-05T20:02:03Z</time>
      </trkpt>
      <trkpt lat="59.4051075119" lon="17.860236339">
        <ele>0</ele>
        <time>2013-05-05T20:02:05Z</time>
      </trkpt>
      <trkpt lat="59.4051127087" lon="17.8601314814">
        <ele>0</ele>
        <time>2013-05-05T20:02:06Z</time>
      </trkpt>
      <trkpt lat="59.4051144689" lon="17.8600329103">
        <ele>0</ele>
        <time>2013-05-05T20:02:07Z</time>
      </trkpt>
      <trkpt lat="59.4051128763" lon="17.8599337524">
        <ele>0</ele>
        <time>2013-05-05T20:02:08Z</time>
      </trkpt>
      <trkpt lat="59.4051138822" lon="17.8598301521">
        <ele>0</ele>
        <time>2013-05-05T20:02:09Z</time>
      </trkpt>
      <trkpt lat="59.405108853" lon="17.8597258813">
        <ele>0</ele>
        <time>2013-05-05T20:02:10Z</time>
      </trkpt>
      <trkpt lat="59.4050640937" lon="17.8592132443">
        <ele>0</ele>
        <time>2013-05-05T20:02:15Z</time>
      </trkpt>
      <trkpt lat="59.4049630918" lon="17.8582702805">
        <ele>0</ele>
        <time>2013-05-05T20:02:24Z</time>
      </trkpt>
      <trkpt lat="59.4048887443" lon="17.8575371996">
        <ele>0</ele>
        <time>2013-05-05T20:02:31Z</time>
      </trkpt>
      <trkpt lat="59.404879189" lon="17.8574325934">
        <ele>0</ele>
        <time>2013-05-05T20:02:32Z</time>
      </trkpt>
      <trkpt lat="59.4048736569" lon="17.8573324297">
        <ele>0</ele>
        <time>2013-05-05T20:02:33Z</time>
      </trkpt>
      <trkpt lat="59.4048674543" lon="17.8572332719">
        <ele>0</ele>
        <time>2013-05-05T20:02:34Z</time>
      </trkpt>
      <trkpt lat="59.4048623414" lon="17.8571338625">
        <ele>0</ele>
        <time>2013-05-05T20:02:35Z</time>
      </trkpt>
      <trkpt lat="59.4048571446" lon="17.8570294241">
        <ele>0</ele>
        <time>2013-05-05T20:02:36Z</time>
      </trkpt>
      <trkpt lat="59.4048454937" lon="17.8568116623">
        <ele>0</ele>
        <time>2013-05-05T20:02:38Z</time>
      </trkpt>
      <trkpt lat="59.4048163247" lon="17.8558651782">
        <ele>0</ele>
        <time>2013-05-05T20:02:46Z</time>
      </trkpt>
      <trkpt lat="59.4047861499" lon="17.8550963065">
        <ele>0</ele>
        <time>2013-05-05T20:02:52Z</time>
      </trkpt>
      <trkpt lat="59.4047732418" lon="17.8539992834">
        <ele>0</ele>
        <time>2013-05-05T20:03:00Z</time>
      </trkpt>
      <trkpt lat="59.4047686317" lon="17.8538585513">
        <ele>0</ele>
        <time>2013-05-05T20:03:01Z</time>
      </trkpt>
      <trkpt lat="59.4047548854" lon="17.8534329184">
        <ele>0</ele>
        <time>2013-05-05T20:03:04Z</time>
      </trkpt>
      <trkpt lat="59.4047524546" lon="17.8532869057">
        <ele>0</ele>
        <time>2013-05-05T20:03:05Z</time>
      </trkpt>
      <trkpt lat="59.4047499401" lon="17.8531517895">
        <ele>0</ele>
        <time>2013-05-05T20:03:06Z</time>
      </trkpt>
      <trkpt lat="59.4047449948" lon="17.8530226244">
        <ele>0</ele>
        <time>2013-05-05T20:03:07Z</time>
      </trkpt>
      <trkpt lat="59.4047438213" lon="17.8528895198">
        <ele>0</ele>
        <time>2013-05-05T20:03:08Z</time>
      </trkpt>
      <trkpt lat="59.4047157419" lon="17.8519000365">
        <ele>0</ele>
        <time>2013-05-05T20:03:16Z</time>
      </trkpt>
      <trkpt lat="59.4047173345" lon="17.8516940094">
        <ele>0</ele>
        <time>2013-05-05T20:03:18Z</time>
      </trkpt>
      <trkpt lat="59.4047076953" lon="17.8513879024">
        <ele>0</ele>
        <time>2013-05-05T20:03:21Z</time>
      </trkpt>
      <trkpt lat="59.404697637" lon="17.8508605971">
        <ele>0</ele>
        <time>2013-05-05T20:03:26Z</time>
      </trkpt>
      <trkpt lat="59.4047148199" lon="17.8503741116">
        <ele>0</ele>
        <time>2013-05-05T20:03:31Z</time>
      </trkpt>
      <trkpt lat="59.4047184241" lon="17.850276714">
        <ele>0</ele>
        <time>2013-05-05T20:03:32Z</time>
      </trkpt>
      <trkpt lat="59.4047243753" lon="17.8501866085">
        <ele>0</ele>
        <time>2013-05-05T20:03:33Z</time>
      </trkpt>
      <trkpt lat="59.4047286501" lon="17.8500943238">
        <ele>0</ele>
        <time>2013-05-05T20:03:34Z</time>
      </trkpt>
      <trkpt lat="59.4047331763" lon="17.849997932">
        <ele>0</ele>
        <time>2013-05-05T20:03:35Z</time>
      </trkpt>
      <trkpt lat="59.4047806178" lon="17.8495283779">
        <ele>0</ele>
        <time>2013-05-05T20:03:40Z</time>
      </trkpt>
      <trkpt lat="59.4047925201" lon="17.8494355903">
        <ele>0</ele>
        <time>2013-05-05T20:03:41Z</time>
      </trkpt>
      <trkpt lat="59.4048055121" lon="17.8493432218">
        <ele>0</ele>
        <time>2013-05-05T20:03:42Z</time>
      </trkpt>
      <trkpt lat="59.4048154027" lon="17.8492508532">
        <ele>0</ele>
        <time>2013-05-05T20:03:43Z</time>
      </trkpt>
      <trkpt lat="59.404826383" lon="17.8491572274">
        <ele>0</ele>
        <time>2013-05-05T20:03:44Z</time>
      </trkpt>
      <trkpt lat="59.4049030774" lon="17.848660516">
        <ele>0</ele>
        <time>2013-05-05T20:03:49Z</time>
      </trkpt>
      <trkpt lat="59.40503526" lon="17.8479901316">
        <ele>0</ele>
        <time>2013-05-05T20:03:55Z</time>
      </trkpt>
      <trkpt lat="59.4052551172" lon="17.8471484212">
        <ele>0</ele>
        <time>2013-05-05T20:04:03Z</time>
      </trkpt>
      <trkpt lat="59.4054215817" lon="17.8466362033">
        <ele>0</ele>
        <time>2013-05-05T20:04:08Z</time>
      </trkpt>
      <trkpt lat="59.4054647485" lon="17.8465458465">
        <ele>0</ele>
        <time>2013-05-05T20:04:09Z</time>
      </trkpt>
      <trkpt lat="59.4055953385" lon="17.8462922102">
        <ele>0</ele>
        <time>2013-05-05T20:04:12Z</time>
      </trkpt>
      <trkpt lat="59.4057581988" lon="17.8459504801">
        <ele>0</ele>
        <time>2013-05-05T20:04:16Z</time>
      </trkpt>
      <trkpt lat="59.4057994378" lon="17.8458620511">
        <ele>0</ele>
        <time>2013-05-05T20:04:17Z</time>
      </trkpt>
      <trkpt lat="59.4058417664" lon="17.8457825068">
        <ele>0</ele>
        <time>2013-05-05T20:04:18Z</time>
      </trkpt>
      <trkpt lat="59.4058791496" lon="17.8456977658">
        <ele>0</ele>
        <time>2013-05-05T20:04:19Z</time>
      </trkpt>
      <trkpt lat="59.4059179578" lon="17.8456172996">
        <ele>0</ele>
        <time>2013-05-05T20:04:20Z</time>
      </trkpt>
      <trkpt lat="59.4061686605" lon="17.845009528">
        <ele>0</ele>
        <time>2013-05-05T20:04:27Z</time>
      </trkpt>
      <trkpt lat="59.406194812" lon="17.8449129685">
        <ele>0</ele>
        <time>2013-05-05T20:04:28Z</time>
      </trkpt>
      <trkpt lat="59.4062521442" lon="17.8445877508">
        <ele>0</ele>
        <time>2013-05-05T20:04:31Z</time>
      </trkpt>
      <trkpt lat="59.4062694947" lon="17.8443507107">
        <ele>0</ele>
        <time>2013-05-05T20:04:33Z</time>
      </trkpt>
      <trkpt lat="59.4062686565" lon="17.8435486467">
        <ele>0</ele>
        <time>2013-05-05T20:04:39Z</time>
      </trkpt>
      <trkpt lat="59.4062771223" lon="17.8430093552">
        <ele>0</ele>
        <time>2013-05-05T20:04:43Z</time>
      </trkpt>
      <trkpt lat="59.4063079677" lon="17.8427701358">
        <ele>0</ele>
        <time>2013-05-05T20:04:45Z</time>
      </trkpt>
      <trkpt lat="59.4063335324" lon="17.8426553876">
        <ele>0</ele>
        <time>2013-05-05T20:04:46Z</time>
      </trkpt>
      <trkpt lat="59.4064461852" lon="17.8423346961">
        <ele>0</ele>
        <time>2013-05-05T20:04:49Z</time>
      </trkpt>
      <trkpt lat="59.4066235462" lon="17.8420451852">
        <ele>0</ele>
        <time>2013-05-05T20:04:53Z</time>
      </trkpt>
      <trkpt lat="59.4067184293" lon="17.8419554989">
        <ele>0</ele>
        <time>2013-05-05T20:04:55Z</time>
      </trkpt>
      <trkpt lat="59.4068180901" lon="17.8418807324">
        <ele>0</ele>
        <time>2013-05-05T20:04:57Z</time>
      </trkpt>
      <trkpt lat="59.4068691359" lon="17.8418697521">
        <ele>0</ele>
        <time>2013-05-05T20:04:58Z</time>
      </trkpt>
      <trkpt lat="59.4070271347" lon="17.84191887">
        <ele>0</ele>
        <time>2013-05-05T20:05:01Z</time>
      </trkpt>
      <trkpt lat="59.4072111174" lon="17.8421792956">
        <ele>0</ele>
        <time>2013-05-05T20:05:05Z</time>
      </trkpt>
      <trkpt lat="59.4072939305" lon="17.8425164157">
        <ele>0</ele>
        <time>2013-05-05T20:05:08Z</time>
      </trkpt>
      <trkpt lat="59.4073163102" lon="17.8426366959">
        <ele>0</ele>
        <time>2013-05-05T20:05:09Z</time>
      </trkpt>
      <trkpt lat="59.4073454792" lon="17.8427540425">
        <ele>0</ele>
        <time>2013-05-05T20:05:10Z</time>
      </trkpt>
      <trkpt lat="59.4073775819" lon="17.8428563017">
        <ele>0</ele>
        <time>2013-05-05T20:05:11Z</time>
      </trkpt>
      <trkpt lat="59.4075135363" lon="17.8432652546">
        <ele>0</ele>
        <time>2013-05-05T20:05:15Z</time>
      </trkpt>
      <trkpt lat="59.4076233392" lon="17.8435597946">
        <ele>0</ele>
        <time>2013-05-05T20:05:18Z</time>
      </trkpt>
      <trkpt lat="59.407657705" lon="17.8436576952">
        <ele>0.4</ele>
        <time>2013-05-05T20:05:19Z</time>
      </trkpt>
      <trkpt lat="59.4076939148" lon="17.843754087">
        <ele>0.8</ele>
        <time>2013-05-05T20:05:20Z</time>
      </trkpt>
      <trkpt lat="59.4077288673" lon="17.8438446115">
        <ele>1.4</ele>
        <time>2013-05-05T20:05:21Z</time>
      </trkpt>
      <trkpt lat="59.4077664183" lon="17.8439316995">
        <ele>1.8</ele>
        <time>2013-05-05T20:05:22Z</time>
      </trkpt>
      <trkpt lat="59.4078053941" lon="17.8440156023">
        <ele>1.8</ele>
        <time>2013-05-05T20:05:23Z</time>
      </trkpt>
      <trkpt lat="59.4079923105" lon="17.8444489465">
        <ele>2.2</ele>
        <time>2013-05-05T20:05:28Z</time>
      </trkpt>
      <trkpt lat="59.4080303643" lon="17.844539974">
        <ele>2.6</ele>
        <time>2013-05-05T20:05:29Z</time>
      </trkpt>
      <trkpt lat="59.4080726929" lon="17.8446320072">
        <ele>3</ele>
        <time>2013-05-05T20:05:30Z</time>
      </trkpt>
      <trkpt lat="59.4081153567" lon="17.8447154071">
        <ele>3.4</ele>
        <time>2013-05-05T20:05:31Z</time>
      </trkpt>
      <trkpt lat="59.4081543326" lon="17.8448029142">
        <ele>3.8</ele>
        <time>2013-05-05T20:05:32Z</time>
      </trkpt>
      <trkpt lat="59.4083844157" lon="17.8453529344">
        <ele>3.8</ele>
        <time>2013-05-05T20:05:38Z</time>
      </trkpt>
      <trkpt lat="59.4085483657" lon="17.8458657391">
        <ele>4.4</ele>
        <time>2013-05-05T20:05:43Z</time>
      </trkpt>
      <trkpt lat="59.4085828153" lon="17.8459663219">
        <ele>4.8</ele>
        <time>2013-05-05T20:05:44Z</time>
      </trkpt>
      <trkpt lat="59.4086262336" lon="17.8460522364">
        <ele>5.2</ele>
        <time>2013-05-05T20:05:45Z</time>
      </trkpt>
      <trkpt lat="59.4086807159" lon="17.8461202136">
        <ele>5.6</ele>
        <time>2013-05-05T20:05:46Z</time>
      </trkpt>
      <trkpt lat="59.4087352821" lon="17.8461765399">
        <ele>6</ele>
        <time>2013-05-05T20:05:47Z</time>
      </trkpt>
      <trkpt lat="59.408796889" lon="17.8462396556">
        <ele>6</ele>
        <time>2013-05-05T20:05:48Z</time>
      </trkpt>
      <trkpt lat="59.4088497788" lon="17.8463228879">
        <ele>6</ele>
        <time>2013-05-05T20:05:49Z</time>
      </trkpt>
      <trkpt lat="59.4090014912" lon="17.8466052741">
        <ele>6</ele>
        <time>2013-05-05T20:05:52Z</time>
      </trkpt>
      <trkpt lat="59.4093560456" lon="17.8473824439">
        <ele>6</ele>
        <time>2013-05-05T20:05:59Z</time>
      </trkpt>
      <trkpt lat="59.40968185" lon="17.8481898723">
        <ele>6</ele>
        <time>2013-05-05T20:06:05Z</time>
      </trkpt>
      <trkpt lat="59.4097371706" lon="17.848355331">
        <ele>5.6</ele>
        <time>2013-05-05T20:06:06Z</time>
      </trkpt>
      <trkpt lat="59.4097992805" lon="17.8485184428">
        <ele>5.2</ele>
        <time>2013-05-05T20:06:07Z</time>
      </trkpt>
      <trkpt lat="59.4098596301" lon="17.8486899365">
        <ele>4.8</ele>
        <time>2013-05-05T20:06:08Z</time>
      </trkpt>
      <trkpt lat="59.4099215724" lon="17.8488636933">
        <ele>4.4</ele>
        <time>2013-05-05T20:06:09Z</time>
      </trkpt>
      <trkpt lat="59.4099836823" lon="17.8490434012">
        <ele>4</ele>
        <time>2013-05-05T20:06:10Z</time>
      </trkpt>
      <trkpt lat="59.4103039547" lon="17.849983096">
        <ele>3.4</ele>
        <time>2013-05-05T20:06:15Z</time>
      </trkpt>
      <trkpt lat="59.4103683276" lon="17.8501700124">
        <ele>2.8</ele>
        <time>2013-05-05T20:06:16Z</time>
      </trkpt>
      <trkpt lat="59.410432533" lon="17.8503577669">
        <ele>2.2</ele>
        <time>2013-05-05T20:06:17Z</time>
      </trkpt>
      <trkpt lat="59.410497828" lon="17.850543426">
        <ele>1.6</ele>
        <time>2013-05-05T20:06:18Z</time>
      </trkpt>
      <trkpt lat="59.4105675654" lon="17.8507380537">
        <ele>1</ele>
        <time>2013-05-05T20:06:19Z</time>
      </trkpt>
      <trkpt lat="59.4106320222" lon="17.8509317594">
        <ele>0.4</ele>
        <time>2013-05-05T20:06:20Z</time>
      </trkpt>
      <trkpt lat="59.410699748" lon="17.8511219448">
        <ele>0</ele>
        <time>2013-05-05T20:06:21Z</time>
      </trkpt>
      <trkpt lat="59.4107686472" lon="17.8513091126">
        <ele>0</ele>
        <time>2013-05-05T20:06:22Z</time>
      </trkpt>
      <trkpt lat="59.410838217" lon="17.8514972862">
        <ele>0</ele>
        <time>2013-05-05T20:06:23Z</time>
      </trkpt>
      <trkpt lat="59.4108972255" lon="17.8516878906">
        <ele>0</ele>
        <time>2013-05-05T20:06:24Z</time>
      </trkpt>
      <trkpt lat="59.4109507859" lon="17.851858127">
        <ele>0</ele>
        <time>2013-05-05T20:06:25Z</time>
      </trkpt>
      <trkpt lat="59.4109838106" lon="17.852035488">
        <ele>0</ele>
        <time>2013-05-05T20:06:26Z</time>
      </trkpt>
      <trkpt lat="59.4109917734" lon="17.8522339714">
        <ele>0</ele>
        <time>2013-05-05T20:06:27Z</time>
      </trkpt>
      <trkpt lat="59.4109861575" lon="17.8524201334">
        <ele>0</ele>
        <time>2013-05-05T20:06:28Z</time>
      </trkpt>
      <trkpt lat="59.410976183" lon="17.8526023559">
        <ele>0</ele>
        <time>2013-05-05T20:06:29Z</time>
      </trkpt>
      <trkpt lat="59.4109787814" lon="17.8527868416">
        <ele>0</ele>
        <time>2013-05-05T20:06:30Z</time>
      </trkpt>
      <trkpt lat="59.4111180048" lon="17.8532516179">
        <ele>0</ele>
        <time>2013-05-05T20:06:33Z</time>
      </trkpt>
      <trkpt lat="59.4112617544" lon="17.853489161">
        <ele>0</ele>
        <time>2013-05-05T20:06:35Z</time>
      </trkpt>
      <trkpt lat="59.411323529" lon="17.8536239419">
        <ele>0</ele>
        <time>2013-05-05T20:06:36Z</time>
      </trkpt>
      <trkpt lat="59.4113787657" lon="17.8537701222">
        <ele>0</ele>
        <time>2013-05-05T20:06:37Z</time>
      </trkpt>
      <trkpt lat="59.4114252014" lon="17.8539283725">
        <ele>0</ele>
        <time>2013-05-05T20:06:38Z</time>
      </trkpt>
      <trkpt lat="59.4114615789" lon="17.854092993">
        <ele>0</ele>
        <time>2013-05-05T20:06:39Z</time>
      </trkpt>
      <trkpt lat="59.4114909993" lon="17.8542612178">
        <ele>0</ele>
        <time>2013-05-05T20:06:40Z</time>
      </trkpt>
      <trkpt lat="59.4115176538" lon="17.8544379082">
        <ele>0</ele>
        <time>2013-05-05T20:06:41Z</time>
      </trkpt>
      <trkpt lat="59.4115257842" lon="17.8546279259">
        <ele>0</ele>
        <time>2013-05-05T20:06:42Z</time>
      </trkpt>
      <trkpt lat="59.4115339147" lon="17.8550167622">
        <ele>0</ele>
        <time>2013-05-05T20:06:44Z</time>
      </trkpt>
      <trkpt lat="59.4115457331" lon="17.8557918365">
        <ele>0</ele>
        <time>2013-05-05T20:06:48Z</time>
      </trkpt>
      <trkpt lat="59.4115484992" lon="17.855980094">
        <ele>0</ele>
        <time>2013-05-05T20:06:49Z</time>
      </trkpt>
      <trkpt lat="59.4115506785" lon="17.8561744703">
        <ele>0</ele>
        <time>2013-05-05T20:06:50Z</time>
      </trkpt>
      <trkpt lat="59.411565263" lon="17.8563340616">
        <ele>0</ele>
        <time>2013-05-05T20:06:51Z</time>
      </trkpt>
      <trkpt lat="59.4116148838" lon="17.8566116702">
        <ele>0</ele>
        <time>2013-05-05T20:06:53Z</time>
      </trkpt>
      <trkpt lat="59.4117658418" lon="17.857062784">
        <ele>0</ele>
        <time>2013-05-05T20:06:57Z</time>
      </trkpt>
      <trkpt lat="59.411812529" lon="17.8571682283">
        <ele>0</ele>
        <time>2013-05-05T20:06:58Z</time>
      </trkpt>
      <trkpt lat="59.411998691" lon="17.8576146483">
        <ele>0</ele>
        <time>2013-05-05T20:07:03Z</time>
      </trkpt>
      <trkpt lat="59.4120367448" lon="17.8577154826">
        <ele>0</ele>
        <time>2013-05-05T20:07:04Z</time>
      </trkpt>
      <trkpt lat="59.4120740443" lon="17.8578299793">
        <ele>0</ele>
        <time>2013-05-05T20:07:05Z</time>
      </trkpt>
      <trkpt lat="59.4121190551" lon="17.8579427159">
        <ele>0</ele>
        <time>2013-05-05T20:07:06Z</time>
      </trkpt>
      <trkpt lat="59.4121586177" lon="17.8580585537">
        <ele>0</ele>
        <time>2013-05-05T20:07:07Z</time>
      </trkpt>
      <trkpt lat="59.4121990184" lon="17.8581838631">
        <ele>0</ele>
        <time>2013-05-05T20:07:08Z</time>
      </trkpt>
      <trkpt lat="59.4122405088" lon="17.8582949233">
        <ele>0</ele>
        <time>2013-05-05T20:07:09Z</time>
      </trkpt>
      <trkpt lat="59.4122761319" lon="17.8583987751">
        <ele>0</ele>
        <time>2013-05-05T20:07:10Z</time>
      </trkpt>
      <trkpt lat="59.4123056362" lon="17.8584942449">
        <ele>0</ele>
        <time>2013-05-05T20:07:11Z</time>
      </trkpt>
      <trkpt lat="59.4123308657" lon="17.8585925646">
        <ele>0</ele>
        <time>2013-05-05T20:07:12Z</time>
      </trkpt>
      <trkpt lat="59.4123578554" lon="17.8586886212">
        <ele>0</ele>
        <time>2013-05-05T20:07:13Z</time>
      </trkpt>
      <trkpt lat="59.4123832526" lon="17.8587891201">
        <ele>0</ele>
        <time>2013-05-05T20:07:14Z</time>
      </trkpt>
      <trkpt lat="59.4125129206" lon="17.8594006636">
        <ele>0</ele>
        <time>2013-05-05T20:07:20Z</time>
      </trkpt>
      <trkpt lat="59.412556255" lon="17.8597682099">
        <ele>0</ele>
        <time>2013-05-05T20:07:23Z</time>
      </trkpt>
      <trkpt lat="59.4125260802" lon="17.8600317368">
        <ele>0</ele>
        <time>2013-05-05T20:07:25Z</time>
      </trkpt>
      <trkpt lat="59.4125758687" lon="17.8604258538">
        <ele>0</ele>
        <time>2013-05-05T20:07:28Z</time>
      </trkpt>
      <trkpt lat="59.4127458536" lon="17.8606996066">
        <ele>0</ele>
        <time>2013-05-05T20:07:31Z</time>
      </trkpt>
      <trkpt lat="59.4129939578" lon="17.8611894448">
        <ele>0</ele>
        <time>2013-05-05T20:07:36Z</time>
      </trkpt>
      <trkpt lat="59.4133251267" lon="17.8615564883">
        <ele>0</ele>
        <time>2013-05-05T20:07:41Z</time>
      </trkpt>
      <trkpt lat="59.4133997256" lon="17.8616069473">
        <ele>0</ele>
        <time>2013-05-05T20:07:42Z</time>
      </trkpt>
      <trkpt lat="59.4136566308" lon="17.8616972204">
        <ele>0</ele>
        <time>2013-05-05T20:07:45Z</time>
      </trkpt>
      <trkpt lat="59.4137452275" lon="17.861706189">
        <ele>0</ele>
        <time>2013-05-05T20:07:46Z</time>
      </trkpt>
      <trkpt lat="59.4140732113" lon="17.8616866592">
        <ele>0</ele>
        <time>2013-05-05T20:07:50Z</time>
      </trkpt>
      <trkpt lat="59.4142287793" lon="17.8616654529">
        <ele>0</ele>
        <time>2013-05-05T20:07:52Z</time>
      </trkpt>
      <trkpt lat="59.4142991035" lon="17.8616501141">
        <ele>0</ele>
        <time>2013-05-05T20:07:53Z</time>
      </trkpt>
      <trkpt lat="59.414371104" lon="17.8616337694">
        <ele>0</ele>
        <time>2013-05-05T20:07:54Z</time>
      </trkpt>
      <trkpt lat="59.4144436074" lon="17.8616194363">
        <ele>0</ele>
        <time>2013-05-05T20:07:55Z</time>
      </trkpt>
      <trkpt lat="59.4145133448" lon="17.8616079531">
        <ele>0</ele>
        <time>2013-05-05T20:07:56Z</time>
      </trkpt>
      <trkpt lat="59.4145829984" lon="17.8615886747">
        <ele>0</ele>
        <time>2013-05-05T20:07:57Z</time>
      </trkpt>
      <trkpt lat="59.4150446735" lon="17.8614533071">
        <ele>0</ele>
        <time>2013-05-05T20:08:04Z</time>
      </trkpt>
      <trkpt lat="59.4154667021" lon="17.8612352938">
        <ele>0</ele>
        <time>2013-05-05T20:08:11Z</time>
      </trkpt>
      <trkpt lat="59.4156521098" lon="17.861108811">
        <ele>0</ele>
        <time>2013-05-05T20:08:14Z</time>
      </trkpt>
      <trkpt lat="59.4158401158" lon="17.8609707611">
        <ele>0</ele>
        <time>2013-05-05T20:08:17Z</time>
      </trkpt>
      <trkpt lat="59.416097021" lon="17.860790215">
        <ele>0</ele>
        <time>2013-05-05T20:08:21Z</time>
      </trkpt>
      <trkpt lat="59.4161612264" lon="17.8607411808">
        <ele>0</ele>
        <time>2013-05-05T20:08:22Z</time>
      </trkpt>
      <trkpt lat="59.4162224981" lon="17.8606989361">
        <ele>0</ele>
        <time>2013-05-05T20:08:23Z</time>
      </trkpt>
      <trkpt lat="59.4162779862" lon="17.8606530871">
        <ele>0</ele>
        <time>2013-05-05T20:08:24Z</time>
      </trkpt>
      <trkpt lat="59.416341102" lon="17.860611429">
        <ele>0</ele>
        <time>2013-05-05T20:08:25Z</time>
      </trkpt>
      <trkpt lat="59.4165932295" lon="17.8604413603">
        <ele>0</ele>
        <time>2013-05-05T20:08:29Z</time>
      </trkpt>
      <trkpt lat="59.4169539027" lon="17.8601909929">
        <ele>0</ele>
        <time>2013-05-05T20:08:35Z</time>
      </trkpt>
      <trkpt lat="59.4172991531" lon="17.8598882387">
        <ele>0</ele>
        <time>2013-05-05T20:08:41Z</time>
      </trkpt>
      <trkpt lat="59.4173518753" lon="17.8598342593">
        <ele>0</ele>
        <time>2013-05-05T20:08:42Z</time>
      </trkpt>
      <trkpt lat="59.4174036754" lon="17.8597749992">
        <ele>0</ele>
        <time>2013-05-05T20:08:43Z</time>
      </trkpt>
      <trkpt lat="59.4174558108" lon="17.8597215227">
        <ele>0</ele>
        <time>2013-05-05T20:08:44Z</time>
      </trkpt>
      <trkpt lat="59.4175146518" lon="17.8596682976">
        <ele>0</ele>
        <time>2013-05-05T20:08:45Z</time>
      </trkpt>
      <trkpt lat="59.4177357663" lon="17.8594397232">
        <ele>0</ele>
        <time>2013-05-05T20:08:49Z</time>
      </trkpt>
      <trkpt lat="59.4177901648" lon="17.8593771104">
        <ele>0</ele>
        <time>2013-05-05T20:08:50Z</time>
      </trkpt>
      <trkpt lat="59.4178441443" lon="17.8593174313">
        <ele>0</ele>
        <time>2013-05-05T20:08:51Z</time>
      </trkpt>
      <trkpt lat="59.417904913" lon="17.8592582551">
        <ele>0</ele>
        <time>2013-05-05T20:08:52Z</time>
      </trkpt>
      <trkpt lat="59.4181287936" lon="17.8590140903">
        <ele>0</ele>
        <time>2013-05-05T20:08:56Z</time>
      </trkpt>
      <trkpt lat="59.4185194739" lon="17.8585612163">
        <ele>0</ele>
        <time>2013-05-05T20:09:03Z</time>
      </trkpt>
      <trkpt lat="59.4188125052" lon="17.8581238487">
        <ele>0</ele>
        <time>2013-05-05T20:09:09Z</time>
      </trkpt>
      <trkpt lat="59.4189513094" lon="17.85795839">
        <ele>0</ele>
        <time>2013-05-05T20:09:12Z</time>
      </trkpt>
      <trkpt lat="59.4190373915" lon="17.8579454819">
        <ele>0</ele>
        <time>2013-05-05T20:09:14Z</time>
      </trkpt>
      <trkpt lat="59.4191706638" lon="17.8581498326">
        <ele>0</ele>
        <time>2013-05-05T20:09:17Z</time>
      </trkpt>
      <trkpt lat="59.4192348691" lon="17.8583363299">
        <ele>0</ele>
        <time>2013-05-05T20:09:19Z</time>
      </trkpt>
      <trkpt lat="59.4193452587" lon="17.8586259246">
        <ele>0</ele>
        <time>2013-05-05T20:09:22Z</time>
      </trkpt>
      <trkpt lat="59.4193850728" lon="17.8587058879">
        <ele>0</ele>
        <time>2013-05-05T20:09:23Z</time>
      </trkpt>
      <trkpt lat="59.4194541396" lon="17.8588664851">
        <ele>0.4</ele>
        <time>2013-05-05T20:09:25Z</time>
      </trkpt>
      <trkpt lat="59.4194905171" lon="17.8589557523">
        <ele>0.8</ele>
        <time>2013-05-05T20:09:26Z</time>
      </trkpt>
      <trkpt lat="59.4195274812" lon="17.8590467798">
        <ele>1.2</ele>
        <time>2013-05-05T20:09:27Z</time>
      </trkpt>
      <trkpt lat="59.4195626852" lon="17.8591279165">
        <ele>1.8</ele>
        <time>2013-05-05T20:09:28Z</time>
      </trkpt>
      <trkpt lat="59.4196025831" lon="17.8592125737">
        <ele>2.2</ele>
        <time>2013-05-05T20:09:29Z</time>
      </trkpt>
      <trkpt lat="59.4197717298" lon="17.8595277332">
        <ele>2.2</ele>
        <time>2013-05-05T20:09:33Z</time>
      </trkpt>
      <trkpt lat="59.4199086062" lon="17.8597342632">
        <ele>2.2</ele>
        <time>2013-05-05T20:09:36Z</time>
      </trkpt>
      <trkpt lat="59.4201187405" lon="17.860007094">
        <ele>2.2</ele>
        <time>2013-05-05T20:09:40Z</time>
      </trkpt>
      <trkpt lat="59.4202880548" lon="17.8602215869">
        <ele>2.2</ele>
        <time>2013-05-05T20:09:43Z</time>
      </trkpt>
      <trkpt lat="59.420407916" lon="17.8603707847">
        <ele>2.2</ele>
        <time>2013-05-05T20:09:45Z</time>
      </trkpt>
      <trkpt lat="59.4207014502" lon="17.8608756265">
        <ele>2.2</ele>
        <time>2013-05-05T20:09:51Z</time>
      </trkpt>
      <trkpt lat="59.4208363149" lon="17.8611316097">
        <ele>2.2</ele>
        <time>2013-05-05T20:09:54Z</time>
      </trkpt>
      <trkpt lat="59.420967324" lon="17.8612130818">
        <ele>2.2</ele>
        <time>2013-05-05T20:09:56Z</time>
      </trkpt>
      <trkpt lat="59.4212648815" lon="17.8612453521">
        <ele>2.2</ele>
        <time>2013-05-05T20:10:00Z</time>
      </trkpt>
      <trkpt lat="59.421870809" lon="17.8612405744">
        <ele>2.2</ele>
        <time>2013-05-05T20:10:08Z</time>
      </trkpt>
      <trkpt lat="59.4222234356" lon="17.861269492">
        <ele>2.2</ele>
        <time>2013-05-05T20:10:13Z</time>
      </trkpt>
      <trkpt lat="59.4223130381" lon="17.8610662309">
        <ele>2.2</ele>
        <time>2013-05-05T20:10:15Z</time>
      </trkpt>
      <trkpt lat="59.4223403631" lon="17.8606537576">
        <ele>2.2</ele>
        <time>2013-05-05T20:10:18Z</time>
      </trkpt>
      <trkpt lat="59.4223368427" lon="17.8603831061">
        <ele>2.2</ele>
        <time>2013-05-05T20:10:20Z</time>
      </trkpt>
      <trkpt lat="59.4223424585" lon="17.8598096165">
        <ele>2.2</ele>
        <time>2013-05-05T20:10:24Z</time>
      </trkpt>
      <trkpt lat="59.4223585518" lon="17.858625254">
        <ele>1.8</ele>
        <time>2013-05-05T20:10:32Z</time>
      </trkpt>
      <trkpt lat="59.4223546123" lon="17.8584834323">
        <ele>1.2</ele>
        <time>2013-05-05T20:10:33Z</time>
      </trkpt>
      <trkpt lat="59.4223551152" lon="17.8583487351">
        <ele>0.8</ele>
        <time>2013-05-05T20:10:34Z</time>
      </trkpt>
      <trkpt lat="59.4223526845" lon="17.858200124">
        <ele>0.4</ele>
        <time>2013-05-05T20:10:35Z</time>
      </trkpt>
      <trkpt lat="59.4223530197" lon="17.8580585537">
        <ele>0</ele>
        <time>2013-05-05T20:10:36Z</time>
      </trkpt>
      <trkpt lat="59.4223578812" lon="17.857636106">
        <ele>0</ele>
        <time>2013-05-05T20:10:39Z</time>
      </trkpt>
      <trkpt lat="59.422383446" lon="17.8571079625">
        <ele>0</ele>
        <time>2013-05-05T20:10:43Z</time>
      </trkpt>
      <trkpt lat="59.4223789198" lon="17.8569838265">
        <ele>0</ele>
        <time>2013-05-05T20:10:44Z</time>
      </trkpt>
      <trkpt lat="59.42237607" lon="17.8568598582">
        <ele>0</ele>
        <time>2013-05-05T20:10:45Z</time>
      </trkpt>
      <trkpt lat="59.42237607" lon="17.8567334592">
        <ele>0</ele>
        <time>2013-05-05T20:10:46Z</time>
      </trkpt>
      <trkpt lat="59.4223753156" lon="17.8566181242">
        <ele>0</ele>
        <time>2013-05-05T20:10:47Z</time>
      </trkpt>
      <trkpt lat="59.4223883075" lon="17.8563051441">
        <ele>0</ele>
        <time>2013-05-05T20:10:50Z</time>
      </trkpt>
      <trkpt lat="59.4223869664" lon="17.8562116021">
        <ele>0</ele>
        <time>2013-05-05T20:10:51Z</time>
      </trkpt>
      <trkpt lat="59.4223904868" lon="17.8561199879">
        <ele>0</ele>
        <time>2013-05-05T20:10:52Z</time>
      </trkpt>
      <trkpt lat="59.4224597213" lon="17.8560007973">
        <ele>0</ele>
        <time>2013-05-05T20:10:54Z</time>
      </trkpt>
      <trkpt lat="59.4225124435" lon="17.8559515117">
        <ele>0</ele>
        <time>2013-05-05T20:10:55Z</time>
      </trkpt>
      <trkpt lat="59.4225666744" lon="17.855897197">
        <ele>0</ele>
        <time>2013-05-05T20:10:56Z</time>
      </trkpt>
      <trkpt lat="59.4226228331" lon="17.8558811876">
        <ele>0</ele>
        <time>2013-05-05T20:10:57Z</time>
      </trkpt>
      <trkpt lat="59.4226820093" lon="17.8558759908">
        <ele>0</ele>
        <time>2013-05-05T20:10:58Z</time>
      </trkpt>
      <trkpt lat="59.4228923112" lon="17.8558482467">
        <ele>0</ele>
        <time>2013-05-05T20:11:01Z</time>
      </trkpt>
      <trkpt lat="59.4230325404" lon="17.8558141324">
        <ele>0</ele>
        <time>2013-05-05T20:11:03Z</time>
      </trkpt>
      <trkpt lat="59.4235622764" lon="17.8555796068">
        <ele>0</ele>
        <time>2013-05-05T20:11:11Z</time>
      </trkpt>
      <trkpt lat="59.4239226981" lon="17.8553278984">
        <ele>0</ele>
        <time>2013-05-05T20:11:17Z</time>
      </trkpt>
      <trkpt lat="59.4243071759" lon="17.8550191092">
        <ele>0</ele>
        <time>2013-05-05T20:11:23Z</time>
      </trkpt>
      <trkpt lat="59.4246727944" lon="17.8546827435">
        <ele>0</ele>
        <time>2013-05-05T20:11:29Z</time>
      </trkpt>
      <trkpt lat="59.424727612" lon="17.8546156045">
        <ele>0</ele>
        <time>2013-05-05T20:11:30Z</time>
      </trkpt>
      <trkpt lat="59.4247834355" lon="17.8545486331">
        <ele>0</ele>
        <time>2013-05-05T20:11:31Z</time>
      </trkpt>
      <trkpt lat="59.4248416897" lon="17.854480153">
        <ele>0</ele>
        <time>2013-05-05T20:11:32Z</time>
      </trkpt>
      <trkpt lat="59.424896172" lon="17.8544025366">
        <ele>0</ele>
        <time>2013-05-05T20:11:33Z</time>
      </trkpt>
      <trkpt lat="59.4250991816" lon="17.8541044762">
        <ele>0</ele>
        <time>2013-05-05T20:11:37Z</time>
      </trkpt>
      <trkpt lat="59.4253827413" lon="17.8534544599">
        <ele>0</ele>
        <time>2013-05-05T20:11:44Z</time>
      </trkpt>
      <trkpt lat="59.4255549055" lon="17.8527891885">
        <ele>0</ele>
        <time>2013-05-05T20:11:50Z</time>
      </trkpt>
      <trkpt lat="59.4256659657" lon="17.8519447121">
        <ele>0</ele>
        <time>2013-05-05T20:11:57Z</time>
      </trkpt>
      <trkpt lat="59.4256490343" lon="17.8511959569">
        <ele>0</ele>
        <time>2013-05-05T20:12:03Z</time>
      </trkpt>
      <trkpt lat="59.4255910315" lon="17.8500777277">
        <ele>0</ele>
        <time>2013-05-05T20:12:12Z</time>
      </trkpt>
      <trkpt lat="59.4255631198" lon="17.8493913339">
        <ele>0</ele>
        <time>2013-05-05T20:12:18Z</time>
      </trkpt>
      <trkpt lat="59.4255337831" lon="17.8485091389">
        <ele>0</ele>
        <time>2013-05-05T20:12:26Z</time>
      </trkpt>
      <trkpt lat="59.4255156782" lon="17.8478149499">
        <ele>0</ele>
        <time>2013-05-05T20:12:33Z</time>
      </trkpt>
      <trkpt lat="59.4255220485" lon="17.8477368306">
        <ele>0</ele>
        <time>2013-05-05T20:12:34Z</time>
      </trkpt>
      <trkpt lat="59.4255994134" lon="17.8474207492">
        <ele>0</ele>
        <time>2013-05-05T20:12:39Z</time>
      </trkpt>
      <trkpt lat="59.4256484475" lon="17.8473517661">
        <ele>0</ele>
        <time>2013-05-05T20:12:40Z</time>
      </trkpt>
      <trkpt lat="59.4257476892" lon="17.8472580565">
        <ele>0</ele>
        <time>2013-05-05T20:12:42Z</time>
      </trkpt>
      <trkpt lat="59.4261498528" lon="17.8470487605">
        <ele>0</ele>
        <time>2013-05-05T20:12:49Z</time>
      </trkpt>
      <trkpt lat="59.4265667685" lon="17.8468200184">
        <ele>0</ele>
        <time>2013-05-05T20:12:56Z</time>
      </trkpt>
      <trkpt lat="59.4266251903" lon="17.8467906818">
        <ele>0</ele>
        <time>2013-05-05T20:12:57Z</time>
      </trkpt>
      <trkpt lat="59.4266825225" lon="17.8467647817">
        <ele>0</ele>
        <time>2013-05-05T20:12:58Z</time>
      </trkpt>
      <trkpt lat="59.426739268" lon="17.8467367861">
        <ele>0</ele>
        <time>2013-05-05T20:12:59Z</time>
      </trkpt>
      <trkpt lat="59.4267960973" lon="17.8467108022">
        <ele>0.2</ele>
        <time>2013-05-05T20:13:00Z</time>
      </trkpt>
      <trkpt lat="59.4269801638" lon="17.8466624387">
        <ele>0.2</ele>
        <time>2013-05-05T20:13:03Z</time>
      </trkpt>
      <trkpt lat="59.4273302758" lon="17.8465373807">
        <ele>0.2</ele>
        <time>2013-05-05T20:13:09Z</time>
      </trkpt>
      <trkpt lat="59.4276080519" lon="17.8464230516">
        <ele>0.2</ele>
        <time>2013-05-05T20:13:14Z</time>
      </trkpt>
      <trkpt lat="59.4280630215" lon="17.8462797211">
        <ele>0.2</ele>
        <time>2013-05-05T20:13:21Z</time>
      </trkpt>
      <trkpt lat="59.4283073538" lon="17.846194561">
        <ele>0.6</ele>
        <time>2013-05-05T20:13:25Z</time>
      </trkpt>
      <trkpt lat="59.4283749958" lon="17.8461675713">
        <ele>1</ele>
        <time>2013-05-05T20:13:26Z</time>
      </trkpt>
      <trkpt lat="59.4284400393" lon="17.8461420903">
        <ele>1.4</ele>
        <time>2013-05-05T20:13:27Z</time>
      </trkpt>
      <trkpt lat="59.4285071783" lon="17.8461123346">
        <ele>1.8</ele>
        <time>2013-05-05T20:13:28Z</time>
      </trkpt>
      <trkpt lat="59.4285761614" lon="17.8460875242">
        <ele>2.2</ele>
        <time>2013-05-05T20:13:29Z</time>
      </trkpt>
      <trkpt lat="59.4286489163" lon="17.8460629652">
        <ele>2.2</ele>
        <time>2013-05-05T20:13:30Z</time>
      </trkpt>
      <trkpt lat="59.4291246729" lon="17.8458840116">
        <ele>2.2</ele>
        <time>2013-05-05T20:13:37Z</time>
      </trkpt>
      <trkpt lat="59.4295328714" lon="17.8457270186">
        <ele>2.2</ele>
        <time>2013-05-05T20:13:43Z</time>
      </trkpt>
      <trkpt lat="59.4297577578" lon="17.8457068183">
        <ele>1.8</ele>
        <time>2013-05-05T20:13:46Z</time>
      </trkpt>
      <trkpt lat="59.4298356257" lon="17.8457010348">
        <ele>1.4</ele>
        <time>2013-05-05T20:13:47Z</time>
      </trkpt>
      <trkpt lat="59.429912823" lon="17.8456913117">
        <ele>0.6</ele>
        <time>2013-05-05T20:13:48Z</time>
      </trkpt>
      <trkpt lat="59.4299930378" lon="17.8456816726">
        <ele>0.2</ele>
        <time>2013-05-05T20:13:49Z</time>
      </trkpt>
      <trkpt lat="59.4305994682" lon="17.8456684292">
        <ele>0.2</ele>
        <time>2013-05-05T20:13:56Z</time>
      </trkpt>
      <trkpt lat="59.4307771645" lon="17.8456655793">
        <ele>0</ele>
        <time>2013-05-05T20:13:58Z</time>
      </trkpt>
      <trkpt lat="59.4308660965" lon="17.8456691835">
        <ele>0</ele>
        <time>2013-05-05T20:13:59Z</time>
      </trkpt>
      <trkpt lat="59.4309598061" lon="17.8456746318">
        <ele>0</ele>
        <time>2013-05-05T20:14:00Z</time>
      </trkpt>
      <trkpt lat="59.431044128" lon="17.8456823431">
        <ele>0</ele>
        <time>2013-05-05T20:14:01Z</time>
      </trkpt>
      <trkpt lat="59.4311338982" lon="17.8456897192">
        <ele>0</ele>
        <time>2013-05-05T20:14:02Z</time>
      </trkpt>
      <trkpt lat="59.4313958325" lon="17.8456880428">
        <ele>0</ele>
        <time>2013-05-05T20:14:05Z</time>
      </trkpt>
      <trkpt lat="59.4318440966" lon="17.8456718657">
        <ele>0</ele>
        <time>2013-05-05T20:14:11Z</time>
      </trkpt>
      <trkpt lat="59.4322122296" lon="17.8456318841">
        <ele>0</ele>
        <time>2013-05-05T20:14:17Z</time>
      </trkpt>
      <trkpt lat="59.4325902533" lon="17.8455343188">
        <ele>0</ele>
        <time>2013-05-05T20:14:24Z</time>
      </trkpt>
      <trkpt lat="59.4329324024" lon="17.8453557843">
        <ele>0</ele>
        <time>2013-05-05T20:14:31Z</time>
      </trkpt>
      <trkpt lat="59.4329794249" lon="17.8453168085">
        <ele>0</ele>
        <time>2013-05-05T20:14:32Z</time>
      </trkpt>
      <trkpt lat="59.4330246872" lon="17.8452783355">
        <ele>0</ele>
        <time>2013-05-05T20:14:33Z</time>
      </trkpt>
      <trkpt lat="59.4330717934" lon="17.8452361746">
        <ele>0</ele>
        <time>2013-05-05T20:14:34Z</time>
      </trkpt>
      <trkpt lat="59.4331191512" lon="17.8451946004">
        <ele>0</ele>
        <time>2013-05-05T20:14:35Z</time>
      </trkpt>
      <trkpt lat="59.4332648286" lon="17.8450586459">
        <ele>0</ele>
        <time>2013-05-05T20:14:38Z</time>
      </trkpt>
      <trkpt lat="59.4335899625" lon="17.8447624296">
        <ele>0</ele>
        <time>2013-05-05T20:14:45Z</time>
      </trkpt>
      <trkpt lat="59.4336867734" lon="17.8446884174">
        <ele>0.4</ele>
        <time>2013-05-05T20:14:47Z</time>
      </trkpt>
      <trkpt lat="59.4337363105" lon="17.844649693">
        <ele>0.8</ele>
        <time>2013-05-05T20:14:48Z</time>
      </trkpt>
      <trkpt lat="59.4337864342" lon="17.8446030059">
        <ele>1.2</ele>
        <time>2013-05-05T20:14:49Z</time>
      </trkpt>
      <trkpt lat="59.4338318641" lon="17.8445597552">
        <ele>1.6</ele>
        <time>2013-05-05T20:14:50Z</time>
      </trkpt>
      <trkpt lat="59.4338778808" lon="17.8445196059">
        <ele>2</ele>
        <time>2013-05-05T20:14:51Z</time>
      </trkpt>
      <trkpt lat="59.434247774" lon="17.8442077993">
        <ele>2</ele>
        <time>2013-05-05T20:14:59Z</time>
      </trkpt>
      <trkpt lat="59.4342952156" lon="17.8441652192">
        <ele>2.6</ele>
        <time>2013-05-05T20:15:00Z</time>
      </trkpt>
      <trkpt lat="59.4343416513" lon="17.8441253214">
        <ele>3</ele>
        <time>2013-05-05T20:15:01Z</time>
      </trkpt>
      <trkpt lat="59.4343868297" lon="17.8440890277">
        <ele>3.8</ele>
        <time>2013-05-05T20:15:02Z</time>
      </trkpt>
      <trkpt lat="59.4344322596" lon="17.8440520636">
        <ele>4.2</ele>
        <time>2013-05-05T20:15:03Z</time>
      </trkpt>
      <trkpt lat="59.4345164139" lon="17.8439892831">
        <ele>4.2</ele>
        <time>2013-05-05T20:15:05Z</time>
      </trkpt>
      <trkpt lat="59.4347832098" lon="17.8437861897">
        <ele>4.2</ele>
        <time>2013-05-05T20:15:11Z</time>
      </trkpt>
      <trkpt lat="59.4349851298" lon="17.8436690107">
        <ele>4.8</ele>
        <time>2013-05-05T20:15:15Z</time>
      </trkpt>
      <trkpt lat="59.4350343315" lon="17.843648056">
        <ele>5.2</ele>
        <time>2013-05-05T20:15:16Z</time>
      </trkpt>
      <trkpt lat="59.4350827789" lon="17.8436271012">
        <ele>5.6</ele>
        <time>2013-05-05T20:15:17Z</time>
      </trkpt>
      <trkpt lat="59.4351300528" lon="17.8436083258">
        <ele>6.2</ele>
        <time>2013-05-05T20:15:18Z</time>
      </trkpt>
      <trkpt lat="59.4351791707" lon="17.843588796">
        <ele>6.6</ele>
        <time>2013-05-05T20:15:19Z</time>
      </trkpt>
      <trkpt lat="59.4353667577" lon="17.8435214893">
        <ele>6.6</ele>
        <time>2013-05-05T20:15:23Z</time>
      </trkpt>
      <trkpt lat="59.4354582042" lon="17.8434950025">
        <ele>7</ele>
        <time>2013-05-05T20:15:25Z</time>
      </trkpt>
      <trkpt lat="59.4355038017" lon="17.8434870397">
        <ele>7.6</ele>
        <time>2013-05-05T20:15:26Z</time>
      </trkpt>
      <trkpt lat="59.4355561048" lon="17.8434816753">
        <ele>8.4</ele>
        <time>2013-05-05T20:15:27Z</time>
      </trkpt>
      <trkpt lat="59.4356074858" lon="17.8434755565">
        <ele>8.8</ele>
        <time>2013-05-05T20:15:28Z</time>
      </trkpt>
      <trkpt lat="59.4357515707" lon="17.8434599662">
        <ele>8.8</ele>
        <time>2013-05-05T20:15:31Z</time>
      </trkpt>
      <trkpt lat="59.4358374014" lon="17.843454015">
        <ele>9.2</ele>
        <time>2013-05-05T20:15:33Z</time>
      </trkpt>
      <trkpt lat="59.4358789756" lon="17.8434447949">
        <ele>9.6</ele>
        <time>2013-05-05T20:15:34Z</time>
      </trkpt>
      <trkpt lat="59.4359201307" lon="17.8434372512">
        <ele>10</ele>
        <time>2013-05-05T20:15:35Z</time>
      </trkpt>
      <trkpt lat="59.4359586874" lon="17.8434371674">
        <ele>10.4</ele>
        <time>2013-05-05T20:15:36Z</time>
      </trkpt>
      <trkpt lat="59.43599825" lon="17.8434325573">
        <ele>10.8</ele>
        <time>2013-05-05T20:15:37Z</time>
      </trkpt>
      <trkpt lat="59.4362944664" lon="17.8433471458">
        <ele>10.8</ele>
        <time>2013-05-05T20:15:44Z</time>
      </trkpt>
      <trkpt lat="59.4365719911" lon="17.8432400251">
        <ele>10.8</ele>
        <time>2013-05-05T20:15:50Z</time>
      </trkpt>
      <trkpt lat="59.4366190973" lon="17.8432084253">
        <ele>11.6</ele>
        <time>2013-05-05T20:15:51Z</time>
      </trkpt>
      <trkpt lat="59.4366656169" lon="17.8431731375">
        <ele>12</ele>
        <time>2013-05-05T20:15:52Z</time>
      </trkpt>
      <trkpt lat="59.4367124717" lon="17.84313215">
        <ele>12.6</ele>
        <time>2013-05-05T20:15:53Z</time>
      </trkpt>
      <trkpt lat="59.4367598294" lon="17.8430888994">
        <ele>13</ele>
        <time>2013-05-05T20:15:54Z</time>
      </trkpt>
      <trkpt lat="59.436952697" lon="17.8428763345">
        <ele>13</ele>
        <time>2013-05-05T20:15:58Z</time>
      </trkpt>
      <trkpt lat="59.4372569599" lon="17.8424962153">
        <ele>13</ele>
        <time>2013-05-05T20:16:05Z</time>
      </trkpt>
      <trkpt lat="59.4374952574" lon="17.8421875937">
        <ele>13</ele>
        <time>2013-05-05T20:16:10Z</time>
      </trkpt>
      <trkpt lat="59.4375984385" lon="17.8420549083">
        <ele>13.4</ele>
        <time>2013-05-05T20:16:12Z</time>
      </trkpt>
      <trkpt lat="59.4376457125" lon="17.8419899485">
        <ele>13.8</ele>
        <time>2013-05-05T20:16:13Z</time>
      </trkpt>
      <trkpt lat="59.4376918129" lon="17.8419254917">
        <ele>14.2</ele>
        <time>2013-05-05T20:16:14Z</time>
      </trkpt>
      <trkpt lat="59.4377378295" lon="17.8418627113">
        <ele>14.8</ele>
        <time>2013-05-05T20:16:15Z</time>
      </trkpt>
      <trkpt lat="59.4377842653" lon="17.8418006014">
        <ele>15.2</ele>
        <time>2013-05-05T20:16:16Z</time>
      </trkpt>
      <trkpt lat="59.4378312039" lon="17.8417410061">
        <ele>15.2</ele>
        <time>2013-05-05T20:16:17Z</time>
      </trkpt>
      <trkpt lat="59.4382008457" lon="17.8412448814">
        <ele>15.2</ele>
        <time>2013-05-05T20:16:25Z</time>
      </trkpt>
      <trkpt lat="59.4385426596" lon="17.8409003015">
        <ele>15.2</ele>
        <time>2013-05-05T20:16:31Z</time>
      </trkpt>
      <trkpt lat="59.4389604973" lon="17.8406169933">
        <ele>15.2</ele>
        <time>2013-05-05T20:16:37Z</time>
      </trkpt>
      <trkpt lat="59.4394360863" lon="17.8403993992">
        <ele>14.8</ele>
        <time>2013-05-05T20:16:43Z</time>
      </trkpt>
      <trkpt lat="59.4395227551" lon="17.840367548">
        <ele>14.4</ele>
        <time>2013-05-05T20:16:44Z</time>
      </trkpt>
      <trkpt lat="59.4396113518" lon="17.8403386304">
        <ele>14</ele>
        <time>2013-05-05T20:16:45Z</time>
      </trkpt>
      <trkpt lat="59.4397053129" lon="17.84031382">
        <ele>13.6</ele>
        <time>2013-05-05T20:16:46Z</time>
      </trkpt>
      <trkpt lat="59.4398026268" lon="17.8402896801">
        <ele>13.2</ele>
        <time>2013-05-05T20:16:47Z</time>
      </trkpt>
      <trkpt lat="59.4402285111" lon="17.8400976508">
        <ele>13.2</ele>
        <time>2013-05-05T20:16:52Z</time>
      </trkpt>
      <trkpt lat="59.4403069657" lon="17.8400539811">
        <ele>12.8</ele>
        <time>2013-05-05T20:16:53Z</time>
      </trkpt>
      <trkpt lat="59.4403805588" lon="17.8400064557">
        <ele>12.4</ele>
        <time>2013-05-05T20:16:54Z</time>
      </trkpt>
      <trkpt lat="59.4404528108" lon="17.8399540688">
        <ele>12</ele>
        <time>2013-05-05T20:16:55Z</time>
      </trkpt>
      <trkpt lat="59.4405210394" lon="17.8398985807">
        <ele>11.6</ele>
        <time>2013-05-05T20:16:56Z</time>
      </trkpt>
      <trkpt lat="59.4405945487" lon="17.8398414161">
        <ele>11</ele>
        <time>2013-05-05T20:16:57Z</time>
      </trkpt>
      <trkpt lat="59.4408096283" lon="17.8396938108">
        <ele>11</ele>
        <time>2013-05-05T20:17:00Z</time>
      </trkpt>
      <trkpt lat="59.441312207" lon="17.8393777294">
        <ele>11</ele>
        <time>2013-05-05T20:17:07Z</time>
      </trkpt>
      <trkpt lat="59.4418476427" lon="17.8391694392">
        <ele>11</ele>
        <time>2013-05-05T20:17:14Z</time>
      </trkpt>
      <trkpt lat="59.4423458629" lon="17.8390777412">
        <ele>10.6</ele>
        <time>2013-05-05T20:17:20Z</time>
      </trkpt>
      <trkpt lat="59.4424202103" lon="17.8390617318">
        <ele>10.2</ele>
        <time>2013-05-05T20:17:21Z</time>
      </trkpt>
      <trkpt lat="59.4424939711" lon="17.8390453032">
        <ele>9.8</ele>
        <time>2013-05-05T20:17:22Z</time>
      </trkpt>
      <trkpt lat="59.442566223" lon="17.8390241809">
        <ele>9.4</ele>
        <time>2013-05-05T20:17:23Z</time>
      </trkpt>
      <trkpt lat="59.4426373015" lon="17.8390056569">
        <ele>9</ele>
        <time>2013-05-05T20:17:24Z</time>
      </trkpt>
      <trkpt lat="59.4429253036" lon="17.8389534376">
        <ele>9</ele>
        <time>2013-05-05T20:17:28Z</time>
      </trkpt>
      <trkpt lat="59.4433490925" lon="17.8389201615">
        <ele>9</ele>
        <time>2013-05-05T20:17:34Z</time>
      </trkpt>
      <trkpt lat="59.4437979432" lon="17.8390437107">
        <ele>9</ele>
        <time>2013-05-05T20:17:40Z</time>
      </trkpt>
      <trkpt lat="59.4443961594" lon="17.8392848579">
        <ele>9</ele>
        <time>2013-05-05T20:17:48Z</time>
      </trkpt>
      <trkpt lat="59.4449218722" lon="17.8394178787">
        <ele>9</ele>
        <time>2013-05-05T20:17:56Z</time>
      </trkpt>
      <trkpt lat="59.4451508657" lon="17.8393925654">
        <ele>9</ele>
        <time>2013-05-05T20:18:00Z</time>
      </trkpt>
      <trkpt lat="59.4455127123" lon="17.8392957544">
        <ele>9</ele>
        <time>2013-05-05T20:18:06Z</time>
      </trkpt>
      <trkpt lat="59.4457016404" lon="17.8392001169">
        <ele>9.6</ele>
        <time>2013-05-05T20:18:09Z</time>
      </trkpt>
      <trkpt lat="59.4457629121" lon="17.8391660864">
        <ele>10</ele>
        <time>2013-05-05T20:18:10Z</time>
      </trkpt>
      <trkpt lat="59.4458253572" lon="17.839128787">
        <ele>10.6</ele>
        <time>2013-05-05T20:18:11Z</time>
      </trkpt>
      <trkpt lat="59.4458882215" lon="17.8390909008">
        <ele>11</ele>
        <time>2013-05-05T20:18:12Z</time>
      </trkpt>
      <trkpt lat="59.445952343" lon="17.8390528469">
        <ele>11.6</ele>
        <time>2013-05-05T20:18:13Z</time>
      </trkpt>
      <trkpt lat="59.4463378266" lon="17.8388146334">
        <ele>11.6</ele>
        <time>2013-05-05T20:18:19Z</time>
      </trkpt>
      <trkpt lat="59.446758095" lon="17.8384848056">
        <ele>11.6</ele>
        <time>2013-05-05T20:18:25Z</time>
      </trkpt>
      <trkpt lat="59.446895642" lon="17.8383506114">
        <ele>11.2</ele>
        <time>2013-05-05T20:18:27Z</time>
      </trkpt>
      <trkpt lat="59.4469626134" lon="17.8382820474">
        <ele>10.8</ele>
        <time>2013-05-05T20:18:28Z</time>
      </trkpt>
      <trkpt lat="59.4470349492" lon="17.8382145731">
        <ele>10.4</ele>
        <time>2013-05-05T20:18:29Z</time>
      </trkpt>
      <trkpt lat="59.447103597" lon="17.8381517927">
        <ele>10</ele>
        <time>2013-05-05T20:18:30Z</time>
      </trkpt>
      <trkpt lat="59.4471718256" lon="17.8380854081">
        <ele>9.6</ele>
        <time>2013-05-05T20:18:31Z</time>
      </trkpt>
      <trkpt lat="59.4472384617" lon="17.8380189396">
        <ele>9.6</ele>
        <time>2013-05-05T20:18:32Z</time>
      </trkpt>
      <trkpt lat="59.4476283039" lon="17.8376763713">
        <ele>9.6</ele>
        <time>2013-05-05T20:18:38Z</time>
      </trkpt>
      <trkpt lat="59.4480501649" lon="17.8372797398">
        <ele>9.6</ele>
        <time>2013-05-05T20:18:45Z</time>
      </trkpt>
      <trkpt lat="59.4484497301" lon="17.8368883051">
        <ele>9.6</ele>
        <time>2013-05-05T20:18:52Z</time>
      </trkpt>
      <trkpt lat="59.4488264127" lon="17.8365257879">
        <ele>9.6</ele>
        <time>2013-05-05T20:18:58Z</time>
      </trkpt>
      <trkpt lat="59.4492843997" lon="17.8360817987">
        <ele>9.6</ele>
        <time>2013-05-05T20:19:05Z</time>
      </trkpt>
      <trkpt lat="59.4497844639" lon="17.8355798905">
        <ele>9.6</ele>
        <time>2013-05-05T20:19:13Z</time>
      </trkpt>
      <trkpt lat="59.4498191649" lon="17.835547704">
        <ele>9</ele>
        <time>2013-05-05T20:19:14Z</time>
      </trkpt>
      <trkpt lat="59.4498347553" lon="17.835533371">
        <ele>8.6</ele>
        <time>2013-05-05T20:19:15Z</time>
      </trkpt>
      <trkpt lat="59.4501670138" lon="17.8352159484">
        <ele>7.4</ele>
        <time>2013-05-05T20:19:44Z</time>
      </trkpt>
      <trkpt lat="59.4504426106" lon="17.8349760584">
        <ele>7.4</ele>
        <time>2013-05-05T20:19:49Z</time>
      </trkpt>
      <trkpt lat="59.4507715164" lon="17.8345495035">
        <ele>7.4</ele>
        <time>2013-05-05T20:19:55Z</time>
      </trkpt>
      <trkpt lat="59.4510501308" lon="17.834025551">
        <ele>7.4</ele>
        <time>2013-05-05T20:20:01Z</time>
      </trkpt>
      <trkpt lat="59.4513807967" lon="17.8332197989">
        <ele>7.4</ele>
        <time>2013-05-05T20:20:09Z</time>
      </trkpt>
      <trkpt lat="59.4517180005" lon="17.832385297">
        <ele>7.4</ele>
        <time>2013-05-05T20:20:17Z</time>
      </trkpt>
      <trkpt lat="59.4520987903" lon="17.8314806385">
        <ele>7.4</ele>
        <time>2013-05-05T20:20:26Z</time>
      </trkpt>
      <trkpt lat="59.452396683" lon="17.8309177939">
        <ele>7.4</ele>
        <time>2013-05-05T20:20:32Z</time>
      </trkpt>
      <trkpt lat="59.4527017003" lon="17.8303733895">
        <ele>7.4</ele>
        <time>2013-05-05T20:20:38Z</time>
      </trkpt>
      <trkpt lat="59.4531145089" lon="17.829659084">
        <ele>7.4</ele>
        <time>2013-05-05T20:20:46Z</time>
      </trkpt>
      <trkpt lat="59.4531690751" lon="17.8295741753">
        <ele>7.4</ele>
        <time>2013-05-05T20:20:47Z</time>
      </trkpt>
      <trkpt lat="59.4535095479" lon="17.8291488777">
        <ele>7.4</ele>
        <time>2013-05-05T20:20:53Z</time>
      </trkpt>
      <trkpt lat="59.4538848055" lon="17.8287726142">
        <ele>7</ele>
        <time>2013-05-05T20:20:59Z</time>
      </trkpt>
      <trkpt lat="59.453948005" lon="17.8287117616">
        <ele>6.6</ele>
        <time>2013-05-05T20:21:00Z</time>
      </trkpt>
      <trkpt lat="59.4540142221" lon="17.8286554353">
        <ele>6.2</ele>
        <time>2013-05-05T20:21:01Z</time>
      </trkpt>
      <trkpt lat="59.4540797685" lon="17.8286003662">
        <ele>5.8</ele>
        <time>2013-05-05T20:21:02Z</time>
      </trkpt>
      <trkpt lat="59.4541477457" lon="17.8285462191">
        <ele>5.4</ele>
        <time>2013-05-05T20:21:03Z</time>
      </trkpt>
      <trkpt lat="59.4543548625" lon="17.8283936685">
        <ele>5.4</ele>
        <time>2013-05-05T20:21:06Z</time>
      </trkpt>
      <trkpt lat="59.4548452874" lon="17.8280930936">
        <ele>5.4</ele>
        <time>2013-05-05T20:21:13Z</time>
      </trkpt>
      <trkpt lat="59.4551708404" lon="17.8279121284">
        <ele>5</ele>
        <time>2013-05-05T20:21:18Z</time>
      </trkpt>
      <trkpt lat="59.4552378956" lon="17.8278765891">
        <ele>4.4</ele>
        <time>2013-05-05T20:21:19Z</time>
      </trkpt>
      <trkpt lat="59.4553050347" lon="17.8278389544">
        <ele>4</ele>
        <time>2013-05-05T20:21:20Z</time>
      </trkpt>
      <trkpt lat="59.4553739339" lon="17.8278010682">
        <ele>3.6</ele>
        <time>2013-05-05T20:21:21Z</time>
      </trkpt>
      <trkpt lat="59.4554415758" lon="17.8277627629">
        <ele>3.2</ele>
        <time>2013-05-05T20:21:22Z</time>
      </trkpt>
      <trkpt lat="59.4558647779" lon="17.827502002">
        <ele>3.2</ele>
        <time>2013-05-05T20:21:28Z</time>
      </trkpt>
      <trkpt lat="59.4562696237" lon="17.8272485334">
        <ele>3.2</ele>
        <time>2013-05-05T20:21:34Z</time>
      </trkpt>
      <trkpt lat="59.4565250202" lon="17.8270891934">
        <ele>3.2</ele>
        <time>2013-05-05T20:21:38Z</time>
      </trkpt>
      <trkpt lat="59.4565789158" lon="17.8270022731">
        <ele>3.2</ele>
        <time>2013-05-05T20:21:39Z</time>
      </trkpt>
      <trkpt lat="59.456643205" lon="17.826601283">
        <ele>3.2</ele>
        <time>2013-05-05T20:21:42Z</time>
      </trkpt>
      <trkpt lat="59.4566414448" lon="17.8264714474">
        <ele>3.2</ele>
        <time>2013-05-05T20:21:43Z</time>
      </trkpt>
      <trkpt lat="59.4566601364" lon="17.8258357641">
        <ele>3.2</ele>
        <time>2013-05-05T20:21:48Z</time>
      </trkpt>
      <trkpt lat="59.4567185583" lon="17.8248015215">
        <ele>3.2</ele>
        <time>2013-05-05T20:21:56Z</time>
      </trkpt>
      <trkpt lat="59.4567605516" lon="17.8242431193">
        <ele>2.8</ele>
        <time>2013-05-05T20:22:00Z</time>
      </trkpt>
      <trkpt lat="59.456777483" lon="17.8241004594">
        <ele>2.4</ele>
        <time>2013-05-05T20:22:01Z</time>
      </trkpt>
      <trkpt lat="59.4567945821" lon="17.8239600625">
        <ele>1.8</ele>
        <time>2013-05-05T20:22:02Z</time>
      </trkpt>
      <trkpt lat="59.4568078255" lon="17.8238231023">
        <ele>1.4</ele>
        <time>2013-05-05T20:22:03Z</time>
      </trkpt>
      <trkpt lat="59.4568221586" lon="17.8236785983">
        <ele>1</ele>
        <time>2013-05-05T20:22:04Z</time>
      </trkpt>
      <trkpt lat="59.4568560214" lon="17.8234184242">
        <ele>1</ele>
        <time>2013-05-05T20:22:06Z</time>
      </trkpt>
      <trkpt lat="59.4568938238" lon="17.8231575794">
        <ele>1</ele>
        <time>2013-05-05T20:22:08Z</time>
      </trkpt>
      <trkpt lat="59.4569350627" lon="17.8228931305">
        <ele>1</ele>
        <time>2013-05-05T20:22:10Z</time>
      </trkpt>
      <trkpt lat="59.4569791515" lon="17.8226434337">
        <ele>1</ele>
        <time>2013-05-05T20:22:12Z</time>
      </trkpt>
      <trkpt lat="59.4570234918" lon="17.8223867799">
        <ele>1</ele>
        <time>2013-05-05T20:22:14Z</time>
      </trkpt>
      <trkpt lat="59.4571180396" lon="17.8218886436">
        <ele>1</ele>
        <time>2013-05-05T20:22:18Z</time>
      </trkpt>
      <trkpt lat="59.4571977515" lon="17.8215194209">
        <ele>1</ele>
        <time>2013-05-05T20:22:22Z</time>
      </trkpt>
      <trkpt lat="59.4573462788" lon="17.8208114018">
        <ele>1</ele>
        <time>2013-05-05T20:22:28Z</time>
      </trkpt>
      <trkpt lat="59.4575048643" lon="17.819924513">
        <ele>1</ele>
        <time>2013-05-05T20:22:35Z</time>
      </trkpt>
      <trkpt lat="59.4575108155" lon="17.8192644383">
        <ele>1</ele>
        <time>2013-05-05T20:22:40Z</time>
      </trkpt>
      <trkpt lat="59.4574893578" lon="17.8187734266">
        <ele>0.6</ele>
        <time>2013-05-05T20:22:44Z</time>
      </trkpt>
      <trkpt lat="59.4574801377" lon="17.8186677309">
        <ele>0.2</ele>
        <time>2013-05-05T20:22:45Z</time>
      </trkpt>
      <trkpt lat="59.4574773717" lon="17.8185357159">
        <ele>0</ele>
        <time>2013-05-05T20:22:46Z</time>
      </trkpt>
      <trkpt lat="59.4574840772" lon="17.8184125858">
        <ele>0</ele>
        <time>2013-05-05T20:22:47Z</time>
      </trkpt>
      <trkpt lat="59.4574946384" lon="17.8183048784">
        <ele>0</ele>
        <time>2013-05-05T20:22:48Z</time>
      </trkpt>
      <trkpt lat="59.4576088837" lon="17.8179074925">
        <ele>0</ele>
        <time>2013-05-05T20:22:52Z</time>
      </trkpt>
      <trkpt lat="59.4576618573" lon="17.8176163892">
        <ele>0</ele>
        <time>2013-05-05T20:22:55Z</time>
      </trkpt>
      <trkpt lat="59.457582816" lon="17.817286729">
        <ele>0</ele>
        <time>2013-05-05T20:22:58Z</time>
      </trkpt>
      <trkpt lat="59.4575362964" lon="17.8171722323">
        <ele>0</ele>
        <time>2013-05-05T20:22:59Z</time>
      </trkpt>
      <trkpt lat="59.4573570076" lon="17.8167705716">
        <ele>0</ele>
        <time>2013-05-05T20:23:03Z</time>
      </trkpt>
      <trkpt lat="59.4570860208" lon="17.8161505625">
        <ele>0</ele>
        <time>2013-05-05T20:23:09Z</time>
      </trkpt>
      <trkpt lat="59.4567530079" lon="17.8156185633">
        <ele>0</ele>
        <time>2013-05-05T20:23:15Z</time>
      </trkpt>
      <trkpt lat="59.4563754033" lon="17.8149514479">
        <ele>0</ele>
        <time>2013-05-05T20:23:22Z</time>
      </trkpt>
      <trkpt lat="59.4560262971" lon="17.8142559178">
        <ele>0</ele>
        <time>2013-05-05T20:23:29Z</time>
      </trkpt>
      <trkpt lat="59.4557991477" lon="17.8137533391">
        <ele>0</ele>
        <time>2013-05-05T20:23:34Z</time>
      </trkpt>
      <trkpt lat="59.4555895163" lon="17.813111537">
        <ele>0</ele>
        <time>2013-05-05T20:23:39Z</time>
      </trkpt>
      <trkpt lat="59.45551651" lon="17.8128383709">
        <ele>0</ele>
        <time>2013-05-05T20:23:41Z</time>
      </trkpt>
      <trkpt lat="59.4554824795" lon="17.8127030032">
        <ele>0</ele>
        <time>2013-05-05T20:23:42Z</time>
      </trkpt>
      <trkpt lat="59.4554497062" lon="17.8125695633">
        <ele>0</ele>
        <time>2013-05-05T20:23:43Z</time>
      </trkpt>
      <trkpt lat="59.4554181903" lon="17.8124344471">
        <ele>0.6</ele>
        <time>2013-05-05T20:23:44Z</time>
      </trkpt>
      <trkpt lat="59.4553852494" lon="17.812296481">
        <ele>1</ele>
        <time>2013-05-05T20:23:45Z</time>
      </trkpt>
      <trkpt lat="59.4551874366" lon="17.8115233346">
        <ele>1</ele>
        <time>2013-05-05T20:23:51Z</time>
      </trkpt>
      <trkpt lat="59.4549638913" lon="17.8105656187">
        <ele>1</ele>
        <time>2013-05-05T20:23:59Z</time>
      </trkpt>
      <trkpt lat="59.454761217" lon="17.809940748">
        <ele>1</ele>
        <time>2013-05-05T20:24:05Z</time>
      </trkpt>
      <trkpt lat="59.4545899748" lon="17.8095473855">
        <ele>1</ele>
        <time>2013-05-05T20:24:09Z</time>
      </trkpt>
      <trkpt lat="59.4545437905" lon="17.809448982">
        <ele>1</ele>
        <time>2013-05-05T20:24:10Z</time>
      </trkpt>
      <trkpt lat="59.4542657629" lon="17.8088851316">
        <ele>1</ele>
        <time>2013-05-05T20:24:16Z</time>
      </trkpt>
      <trkpt lat="59.4541211751" lon="17.8085979677">
        <ele>0.4</ele>
        <time>2013-05-05T20:24:19Z</time>
      </trkpt>
      <trkpt lat="59.4540708837" lon="17.8085010729">
        <ele>0</ele>
        <time>2013-05-05T20:24:20Z</time>
      </trkpt>
      <trkpt lat="59.4540200056" lon="17.8084043458">
        <ele>0</ele>
        <time>2013-05-05T20:24:21Z</time>
      </trkpt>
      <trkpt lat="59.453969798" lon="17.8083075348">
        <ele>0</ele>
        <time>2013-05-05T20:24:22Z</time>
      </trkpt>
      <trkpt lat="59.4539195904" lon="17.8082142443">
        <ele>0</ele>
        <time>2013-05-05T20:24:23Z</time>
      </trkpt>
      <trkpt lat="59.4538639346" lon="17.8081217919">
        <ele>0</ele>
        <time>2013-05-05T20:24:24Z</time>
      </trkpt>
      <trkpt lat="59.4535949594" lon="17.8077165271">
        <ele>0</ele>
        <time>2013-05-05T20:24:29Z</time>
      </trkpt>
      <trkpt lat="59.453554391" lon="17.8076093226">
        <ele>0</ele>
        <time>2013-05-05T20:24:30Z</time>
      </trkpt>
      <trkpt lat="59.4533864177" lon="17.8069289637">
        <ele>0</ele>
        <time>2013-05-05T20:24:36Z</time>
      </trkpt>
      <trkpt lat="59.4534534729" lon="17.8066247846">
        <ele>0</ele>
        <time>2013-05-05T20:24:39Z</time>
      </trkpt>
      <trkpt lat="59.4535512897" lon="17.8064592421">
        <ele>0</ele>
        <time>2013-05-05T20:24:41Z</time>
      </trkpt>
      <trkpt lat="59.4537461689" lon="17.8061175958">
        <ele>0</ele>
        <time>2013-05-05T20:24:45Z</time>
      </trkpt>
      <trkpt lat="59.4540336681" lon="17.805581741">
        <ele>0</ele>
        <time>2013-05-05T20:24:51Z</time>
      </trkpt>
      <trkpt lat="59.4544838599" lon="17.8048106062">
        <ele>0</ele>
        <time>2013-05-05T20:24:59Z</time>
      </trkpt>
      <trkpt lat="59.4547364904" lon="17.8045159824">
        <ele>0</ele>
        <time>2013-05-05T20:25:03Z</time>
      </trkpt>
      <trkpt lat="59.4548029588" lon="17.804466613">
        <ele>0</ele>
        <time>2013-05-05T20:25:04Z</time>
      </trkpt>
      <trkpt lat="59.4549467922" lon="17.8043889128">
        <ele>0</ele>
        <time>2013-05-05T20:25:06Z</time>
      </trkpt>
      <trkpt lat="59.4550833334" lon="17.8043583188">
        <ele>0</ele>
        <time>2013-05-05T20:25:08Z</time>
      </trkpt>
      <trkpt lat="59.4551538252" lon="17.8043618392">
        <ele>0</ele>
        <time>2013-05-05T20:25:09Z</time>
      </trkpt>
      <trkpt lat="59.4552917913" lon="17.8043948639">
        <ele>0</ele>
        <time>2013-05-05T20:25:11Z</time>
      </trkpt>
      <trkpt lat="59.4553569186" lon="17.8044266313">
        <ele>0</ele>
        <time>2013-05-05T20:25:12Z</time>
      </trkpt>
      <trkpt lat="59.4557218665" lon="17.8046857997">
        <ele>0</ele>
        <time>2013-05-05T20:25:18Z</time>
      </trkpt>
      <trkpt lat="59.455774002" lon="17.8047399467">
        <ele>0</ele>
        <time>2013-05-05T20:25:19Z</time>
      </trkpt>
      <trkpt lat="59.4558833019" lon="17.8048455587">
        <ele>0</ele>
        <time>2013-05-05T20:25:21Z</time>
      </trkpt>
      <trkpt lat="59.4559396283" lon="17.8048940899">
        <ele>0</ele>
        <time>2013-05-05T20:25:22Z</time>
      </trkpt>
      <trkpt lat="59.4559941945" lon="17.8049414476">
        <ele>0</ele>
        <time>2013-05-05T20:25:23Z</time>
      </trkpt>
      <trkpt lat="59.4560478386" lon="17.8049848659">
        <ele>0.2</ele>
        <time>2013-05-05T20:25:24Z</time>
      </trkpt>
      <trkpt lat="59.4561054223" lon="17.8050273621">
        <ele>0.6</ele>
        <time>2013-05-05T20:25:25Z</time>
      </trkpt>
      <trkpt lat="59.4562773351" lon="17.8051479776">
        <ele>0.6</ele>
        <time>2013-05-05T20:25:28Z</time>
      </trkpt>
      <trkpt lat="59.4567328913" lon="17.8054996822">
        <ele>0.6</ele>
        <time>2013-05-05T20:25:36Z</time>
      </trkpt>
      <trkpt lat="59.4569517427" lon="17.8056268356">
        <ele>0.6</ele>
        <time>2013-05-05T20:25:40Z</time>
      </trkpt>
      <trkpt lat="59.457011338" lon="17.8055959064">
        <ele>0.6</ele>
        <time>2013-05-05T20:25:41Z</time>
      </trkpt>
      <trkpt lat="59.4571454484" lon="17.8054134324">
        <ele>0.6</ele>
        <time>2013-05-05T20:25:44Z</time>
      </trkpt>
      <trkpt lat="59.457185933" lon="17.8053451199">
        <ele>1.2</ele>
        <time>2013-05-05T20:25:45Z</time>
      </trkpt>
      <trkpt lat="59.4572268367" lon="17.8052788191">
        <ele>1.6</ele>
        <time>2013-05-05T20:25:46Z</time>
      </trkpt>
      <trkpt lat="59.4572664831" lon="17.8052160387">
        <ele>2</ele>
        <time>2013-05-05T20:25:47Z</time>
      </trkpt>
      <trkpt lat="59.4573060456" lon="17.8051473909">
        <ele>2.4</ele>
        <time>2013-05-05T20:25:48Z</time>
      </trkpt>
      <trkpt lat="59.4573425069" lon="17.8050846943">
        <ele>2.8</ele>
        <time>2013-05-05T20:25:49Z</time>
      </trkpt>
      <trkpt lat="59.4574566684" lon="17.8049028909">
        <ele>2.8</ele>
        <time>2013-05-05T20:25:52Z</time>
      </trkpt>
      <trkpt lat="59.4577894298" lon="17.8045412957">
        <ele>2.8</ele>
        <time>2013-05-05T20:25:59Z</time>
      </trkpt>
      <trkpt lat="59.4579609235" lon="17.8044311575">
        <ele>2.8</ele>
        <time>2013-05-05T20:26:02Z</time>
      </trkpt>
      <trkpt lat="59.4580814552" lon="17.8043894157">
        <ele>2.8</ele>
        <time>2013-05-05T20:26:04Z</time>
      </trkpt>
      <trkpt lat="59.4582516078" lon="17.8043872364">
        <ele>2.8</ele>
        <time>2013-05-05T20:26:07Z</time>
      </trkpt>
      <trkpt lat="59.4583689544" lon="17.8043975461">
        <ele>2.4</ele>
        <time>2013-05-05T20:26:09Z</time>
      </trkpt>
      <trkpt lat="59.4584288011" lon="17.8044062633">
        <ele>2</ele>
        <time>2013-05-05T20:26:10Z</time>
      </trkpt>
      <trkpt lat="59.4584868039" lon="17.8044178303">
        <ele>1.6</ele>
        <time>2013-05-05T20:26:11Z</time>
      </trkpt>
      <trkpt lat="59.4585407833" lon="17.8044273019">
        <ele>1.2</ele>
        <time>2013-05-05T20:26:12Z</time>
      </trkpt>
      <trkpt lat="59.4585919129" lon="17.804430487">
        <ele>0.6</ele>
        <time>2013-05-05T20:26:13Z</time>
      </trkpt>
      <trkpt lat="59.4586871313" lon="17.8044268828">
        <ele>0.6</ele>
        <time>2013-05-05T20:26:15Z</time>
      </trkpt>
      <trkpt lat="59.458808585" lon="17.8043760046">
        <ele>0.6</ele>
        <time>2013-05-05T20:26:18Z</time>
      </trkpt>
    </trkseg>
  </trk>
</gpx>